Time,TemperatureF,DewpointF,PressureIn,WindDirection,WindDirectionDegrees,WindSpeedMPH,WindSpeedGustMPH,Humidity,HourlyPrecipIn,Conditions,Clouds,dailyrainin,SoftwareType,DateUTC
2014-03-09 00:00:00,41.9,40.3,30.02,SSW,213,0.0,0.0,94,0.00,,CLR,0.00,VWS V14.01,2014-03-09 05:00:00,
2014-03-09 00:01:00,43.3,41.1,30.02,SSW,213,0.0,0.0,92,0.00,,CLR,0.00,VWS V14.01,2014-03-09 05:01:00,
2014-03-09 00:02:00,43.3,41.1,30.02,SSW,213,0.0,0.0,92,0.00,,CLR,0.00,VWS V14.01,2014-03-09 05:02:00,
2014-03-09 00:03:00,41.8,40.2,30.02,SSW,213,0.0,0.0,94,0.00,,CLR,0.00,VWS V14.01,2014-03-09 05:03:00,
2014-03-09 00:04:00,41.8,40.2,30.02,SSW,213,0.0,0.0,94,0.00,,CLR,0.00,VWS V14.01,2014-03-09 05:04:00,
2014-03-09 00:05:00,41.8,40.2,30.02,SSW,213,0.0,0.0,94,0.00,,CLR,0.00,VWS V14.01,2014-03-09 05:05:00,
2014-03-09 00:06:00,41.8,40.2,30.02,SSW,213,0.0,0.0,94,0.00,,CLR,0.00,VWS V14.01,2014-03-09 05:06:00,
2014-03-09 00:07:00,43.1,41.2,30.02,SSW,213,0.0,0.0,93,0.00,,CLR,0.00,VWS V14.01,2014-03-09 05:07:00,
2014-03-09 00:08:00,41.8,40.2,30.02,SSW,213,0.0,0.0,94,0.00,,CLR,0.00,VWS V14.01,2014-03-09 05:08:00,
2014-03-09 00:09:00,41.7,40.1,30.02,SSW,213,0.0,0.0,94,0.00,,CLR,0.00,VWS V14.01,2014-03-09 05:09:00,
2014-03-09 00:10:00,41.7,40.1,30.01,SSW,213,0.0,0.0,94,0.00,,CLR,0.00,VWS V14.01,2014-03-09 05:10:00,
2014-03-09 00:11:00,41.6,40.0,30.01,SSW,213,0.0,0.0,94,0.00,,CLR,0.00,VWS V14.01,2014-03-09 05:11:00,
2014-03-09 00:12:00,43.0,41.1,30.02,SSW,213,0.0,0.0,93,0.00,,CLR,0.00,VWS V14.01,2014-03-09 05:12:00,
2014-03-09 00:13:00,41.6,40.0,30.01,SSW,213,0.0,0.0,94,0.00,,CLR,0.00,VWS V14.01,2014-03-09 05:13:00,
2014-03-09 00:14:00,41.6,40.0,30.01,SSW,213,0.0,0.0,94,0.00,,CLR,0.00,VWS V14.01,2014-03-09 05:14:00,
2014-03-09 00:15:00,41.6,40.0,30.01,SSW,213,0.0,0.0,94,0.00,,CLR,0.00,VWS V14.01,2014-03-09 05:15:00,
2014-03-09 00:16:00,41.5,39.9,30.01,SSW,213,0.0,0.0,94,0.00,,CLR,0.00,VWS V14.01,2014-03-09 05:16:00,
2014-03-09 00:17:00,42.9,41.0,30.02,SSW,213,0.0,0.0,93,0.00,,CLR,0.00,VWS V14.01,2014-03-09 05:17:00,
2014-03-09 00:18:00,41.5,39.9,30.02,SSW,213,0.0,0.0,94,0.00,,CLR,0.00,VWS V14.01,2014-03-09 05:18:00,
2014-03-09 00:19:00,41.5,39.9,30.02,SSW,213,0.0,0.0,94,0.00,,CLR,0.00,VWS V14.01,2014-03-09 05:19:00,
2014-03-09 00:20:00,41.5,39.9,30.02,SSW,213,0.0,0.0,94,0.00,,CLR,0.00,VWS V14.01,2014-03-09 05:20:00,
2014-03-09 00:21:00,41.5,39.9,30.02,SSW,213,0.0,0.0,94,0.00,,CLR,0.00,VWS V14.01,2014-03-09 05:21:00,
2014-03-09 00:22:00,42.7,40.5,30.02,SSW,213,0.0,0.0,92,0.00,,CLR,0.00,VWS V14.01,2014-03-09 05:22:00,
2014-03-09 00:23:00,41.4,39.8,30.02,SSW,213,0.0,0.0,94,0.00,,CLR,0.00,VWS V14.01,2014-03-09 05:23:00,
2014-03-09 00:24:00,41.4,39.8,30.02,SSW,213,0.0,0.0,94,0.00,,CLR,0.00,VWS V14.01,2014-03-09 05:24:00,
2014-03-09 00:25:00,41.4,39.8,30.02,SSW,213,0.0,0.0,94,0.00,,CLR,0.00,VWS V14.01,2014-03-09 05:25:00,
2014-03-09 00:26:00,41.4,39.8,30.02,SSW,213,0.0,0.0,94,0.00,,CLR,0.00,VWS V14.01,2014-03-09 05:26:00,
2014-03-09 00:27:00,42.6,40.7,30.02,SSW,213,0.0,0.0,93,0.00,,CLR,0.00,VWS V14.01,2014-03-09 05:27:00,
2014-03-09 00:28:00,41.3,39.7,30.02,SSW,213,0.0,0.0,94,0.00,,CLR,0.00,VWS V14.01,2014-03-09 05:28:00,
2014-03-09 00:29:00,41.3,39.7,30.02,SSW,213,0.0,0.0,94,0.00,,CLR,0.00,VWS V14.01,2014-03-09 05:29:00,
2014-03-09 00:30:00,41.3,39.7,30.02,SSW,213,0.0,0.0,94,0.00,,CLR,0.00,VWS V14.01,2014-03-09 05:30:00,
2014-03-09 00:31:00,41.3,39.7,30.02,SSW,213,0.0,0.0,94,0.00,,CLR,0.00,VWS V14.01,2014-03-09 05:31:00,
2014-03-09 00:32:00,42.4,40.5,30.02,SSW,213,0.0,0.0,93,0.00,,CLR,0.00,VWS V14.01,2014-03-09 05:32:00,
2014-03-09 00:33:00,41.2,39.9,30.02,SSW,213,0.0,0.0,95,0.00,,CLR,0.00,VWS V14.01,2014-03-09 05:33:00,
2014-03-09 00:34:00,41.2,39.9,30.02,SSW,213,0.0,0.0,95,0.00,,CLR,0.00,VWS V14.01,2014-03-09 05:34:00,
2014-03-09 00:35:00,41.2,39.9,30.02,SSW,213,0.0,0.0,95,0.00,,CLR,0.00,VWS V14.01,2014-03-09 05:35:00,
2014-03-09 00:36:00,41.2,39.9,30.02,SSW,213,0.0,0.0,95,0.00,,CLR,0.00,VWS V14.01,2014-03-09 05:36:00,
2014-03-09 00:37:00,42.3,40.4,30.02,SSW,213,0.0,0.0,93,0.00,,CLR,0.00,VWS V14.01,2014-03-09 05:37:00,
2014-03-09 00:38:00,41.1,39.5,30.02,SSW,213,0.0,0.0,94,0.00,,CLR,0.00,VWS V14.01,2014-03-09 05:38:00,
2014-03-09 00:39:00,41.1,39.5,30.02,SSW,213,0.0,0.0,94,0.00,,CLR,0.00,VWS V14.01,2014-03-09 05:39:00,
2014-03-09 00:40:00,41.1,39.5,30.02,SSW,213,0.0,0.0,94,0.00,,CLR,0.00,VWS V14.01,2014-03-09 05:40:00,
2014-03-09 00:41:00,41.0,39.4,30.02,SSW,213,0.0,0.0,94,0.00,,CLR,0.00,VWS V14.01,2014-03-09 05:41:00,
2014-03-09 00:42:00,42.2,40.6,30.02,SSW,213,0.0,0.0,94,0.00,,CLR,0.00,VWS V14.01,2014-03-09 05:42:00,
2014-03-09 00:43:00,41.0,39.4,30.02,SSW,213,0.0,0.0,94,0.00,,CLR,0.00,VWS V14.01,2014-03-09 05:43:00,
2014-03-09 00:44:00,41.0,39.4,30.02,SSW,213,0.0,0.0,94,0.00,,CLR,0.00,VWS V14.01,2014-03-09 05:44:00,
2014-03-09 00:45:00,40.9,39.3,30.02,SSW,213,0.0,0.0,94,0.00,,CLR,0.00,VWS V14.01,2014-03-09 05:45:00,
2014-03-09 00:46:00,40.9,39.3,30.02,SSW,213,0.0,0.0,94,0.00,,CLR,0.00,VWS V14.01,2014-03-09 05:46:00,
2014-03-09 00:47:00,42.1,40.5,30.02,SSW,213,0.0,0.0,94,0.00,,CLR,0.00,VWS V14.01,2014-03-09 05:47:00,
2014-03-09 00:48:00,40.9,39.6,30.02,SSW,213,0.0,0.0,95,0.00,,CLR,0.00,VWS V14.01,2014-03-09 05:48:00,
2014-03-09 00:49:00,40.9,39.6,30.01,SSW,213,0.0,0.0,95,0.00,,CLR,0.00,VWS V14.01,2014-03-09 05:49:00,
2014-03-09 00:50:00,40.8,39.5,30.01,SSW,213,0.0,0.0,95,0.00,,CLR,0.00,VWS V14.01,2014-03-09 05:50:00,
2014-03-09 00:51:00,40.9,39.6,30.01,SSW,213,0.0,0.0,95,0.00,,CLR,0.00,VWS V14.01,2014-03-09 05:51:00,
2014-03-09 00:52:00,42.0,40.4,30.02,SSW,213,0.0,0.0,94,0.00,,CLR,0.00,VWS V14.01,2014-03-09 05:52:00,
2014-03-09 00:53:00,40.9,39.6,30.01,SSW,213,0.0,0.0,95,0.00,,CLR,0.00,VWS V14.01,2014-03-09 05:53:00,
2014-03-09 00:54:00,40.9,39.6,30.01,SSW,213,0.0,0.0,95,0.00,,CLR,0.00,VWS V14.01,2014-03-09 05:54:00,
2014-03-09 00:55:00,40.9,39.6,30.01,SSW,213,0.0,0.0,95,0.00,,CLR,0.00,VWS V14.01,2014-03-09 05:55:00,
2014-03-09 00:56:00,40.9,39.6,30.01,SSW,213,0.0,0.0,95,0.00,,CLR,0.00,VWS V14.01,2014-03-09 05:56:00,
2014-03-09 00:57:00,41.9,40.3,30.01,SSW,213,0.0,0.0,94,0.00,,CLR,0.00,VWS V14.01,2014-03-09 05:57:00,
2014-03-09 00:58:00,40.9,39.6,30.01,SSW,213,0.0,0.0,95,0.00,,CLR,0.00,VWS V14.01,2014-03-09 05:58:00,
2014-03-09 00:59:00,40.8,39.5,30.01,SSW,213,0.0,0.0,95,0.00,,CLR,0.00,VWS V14.01,2014-03-09 05:59:00,
2014-03-09 01:02:00,41.8,40.2,30.02,SSW,213,0.0,0.0,94,0.00,,CLR,0.00,VWS V14.01,2014-03-09 06:02:00,
2014-03-09 01:07:00,41.7,40.1,30.02,SSW,213,0.0,0.0,94,0.00,,CLR,0.00,VWS V14.01,2014-03-09 06:07:00,
2014-03-09 01:12:00,41.6,40.0,30.01,SSW,213,0.0,0.0,94,0.00,,CLR,0.00,VWS V14.01,2014-03-09 06:12:00,
2014-03-09 01:17:00,41.5,39.9,30.02,SSW,213,0.0,0.0,94,0.00,,CLR,0.00,VWS V14.01,2014-03-09 06:17:00,
2014-03-09 01:22:00,41.4,39.8,30.02,SSW,213,0.0,0.0,94,0.00,,CLR,0.00,VWS V14.01,2014-03-09 06:22:00,
2014-03-09 01:27:00,41.3,39.7,30.02,SSW,213,0.0,0.0,94,0.00,,CLR,0.00,VWS V14.01,2014-03-09 06:27:00,
2014-03-09 01:32:00,41.2,39.9,30.02,SSW,213,0.0,0.0,95,0.00,,CLR,0.00,VWS V14.01,2014-03-09 06:32:00,
2014-03-09 01:37:00,41.1,39.5,30.02,SSW,213,0.0,0.0,94,0.00,,CLR,0.00,VWS V14.01,2014-03-09 06:37:00,
2014-03-09 01:42:00,40.9,39.3,30.02,SSW,213,0.0,0.0,94,0.00,,CLR,0.00,VWS V14.01,2014-03-09 06:42:00,
2014-03-09 01:47:00,40.9,39.6,30.01,SSW,213,0.0,0.0,95,0.00,,CLR,0.00,VWS V14.01,2014-03-09 06:47:00,
2014-03-09 01:52:00,40.9,39.6,30.01,SSW,213,0.0,0.0,95,0.00,,CLR,0.00,VWS V14.01,2014-03-09 06:52:00,
2014-03-09 01:57:00,40.9,39.6,30.01,SSW,213,0.0,0.0,95,0.00,,CLR,0.00,VWS V14.01,2014-03-09 06:57:00,
2014-03-09 03:00:00,40.8,39.5,30.01,SSW,213,0.0,0.0,95,0.00,,CLR,0.00,VWS V14.01,2014-03-09 07:00:00,
2014-03-09 03:01:00,40.8,39.5,30.01,SSW,213,0.0,0.0,95,0.00,,CLR,0.00,VWS V14.01,2014-03-09 07:01:00,
2014-03-09 03:02:00,40.8,39.5,30.01,SSW,213,0.0,0.0,95,0.00,,CLR,0.00,VWS V14.01,2014-03-09 07:02:00,
2014-03-09 03:03:00,40.8,39.5,30.01,SSW,213,0.0,0.0,95,0.00,,CLR,0.00,VWS V14.01,2014-03-09 07:03:00,
2014-03-09 03:04:00,40.8,39.5,30.01,SSW,213,0.0,0.0,95,0.00,,CLR,0.00,VWS V14.01,2014-03-09 07:04:00,
2014-03-09 03:05:00,40.8,39.5,30.01,SSW,213,0.0,0.0,95,0.00,,CLR,0.00,VWS V14.01,2014-03-09 07:05:00,
2014-03-09 03:06:00,40.7,39.4,30.01,SSW,213,0.0,0.0,95,0.00,,CLR,0.00,VWS V14.01,2014-03-09 07:06:00,
2014-03-09 03:07:00,40.7,39.4,30.01,SSW,213,0.0,0.0,95,0.00,,CLR,0.00,VWS V14.01,2014-03-09 07:07:00,
2014-03-09 03:08:00,40.7,39.4,30.01,SSW,213,0.0,0.0,95,0.00,,CLR,0.00,VWS V14.01,2014-03-09 07:08:00,
2014-03-09 03:09:00,40.7,39.4,30.01,SSW,213,0.0,0.0,95,0.00,,CLR,0.00,VWS V14.01,2014-03-09 07:09:00,
2014-03-09 03:10:00,40.7,39.4,30.01,SSW,213,0.0,0.0,95,0.00,,CLR,0.00,VWS V14.01,2014-03-09 07:10:00,
2014-03-09 03:11:00,40.6,39.3,30.01,SSW,213,0.0,0.0,95,0.00,,CLR,0.00,VWS V14.01,2014-03-09 07:11:00,
2014-03-09 03:12:00,40.6,39.3,30.01,SSW,213,0.0,0.0,95,0.00,,CLR,0.00,VWS V14.01,2014-03-09 07:12:00,
2014-03-09 03:13:00,40.6,39.3,30.01,SSW,213,0.0,0.0,95,0.00,,CLR,0.00,VWS V14.01,2014-03-09 07:13:00,
2014-03-09 03:14:00,40.6,39.3,30.01,SSW,213,0.0,0.0,95,0.00,,CLR,0.00,VWS V14.01,2014-03-09 07:14:00,
2014-03-09 03:15:00,40.5,39.2,30.01,SSW,213,0.0,0.0,95,0.00,,CLR,0.00,VWS V14.01,2014-03-09 07:15:00,
2014-03-09 03:16:00,40.5,39.2,30.01,SSW,213,0.0,0.0,95,0.00,,CLR,0.00,VWS V14.01,2014-03-09 07:16:00,
2014-03-09 03:17:00,40.5,39.2,30.01,SSW,213,0.0,0.0,95,0.00,,CLR,0.00,VWS V14.01,2014-03-09 07:17:00,
2014-03-09 03:18:00,40.5,39.2,30.01,SSW,213,0.0,0.0,95,0.00,,CLR,0.00,VWS V14.01,2014-03-09 07:18:00,
2014-03-09 03:19:00,40.5,39.2,30.01,SSW,213,0.0,0.0,95,0.00,,CLR,0.00,VWS V14.01,2014-03-09 07:19:00,
2014-03-09 03:20:00,40.4,39.1,30.01,SSW,213,0.0,0.0,95,0.00,,CLR,0.00,VWS V14.01,2014-03-09 07:20:00,
2014-03-09 03:21:00,40.4,39.1,30.01,SSW,213,0.0,0.0,95,0.00,,CLR,0.00,VWS V14.01,2014-03-09 07:21:00,
2014-03-09 03:22:00,40.4,39.1,30.01,SSW,213,0.0,0.0,95,0.00,,CLR,0.00,VWS V14.01,2014-03-09 07:22:00,
2014-03-09 03:23:00,40.4,39.1,30.01,SSW,213,0.0,0.0,95,0.00,,CLR,0.00,VWS V14.01,2014-03-09 07:23:00,
2014-03-09 03:24:00,40.4,39.1,30.01,SSW,213,0.0,0.0,95,0.00,,CLR,0.00,VWS V14.01,2014-03-09 07:24:00,
2014-03-09 03:25:00,40.4,39.1,30.01,SSW,213,0.0,0.0,95,0.00,,CLR,0.00,VWS V14.01,2014-03-09 07:25:00,
2014-03-09 03:26:00,40.4,39.1,30.01,SSW,213,0.0,0.0,95,0.00,,CLR,0.00,VWS V14.01,2014-03-09 07:26:00,
2014-03-09 03:27:00,40.3,39.0,30.01,SSW,213,0.0,0.0,95,0.00,,CLR,0.00,VWS V14.01,2014-03-09 07:27:00,
2014-03-09 03:28:00,40.3,39.0,30.01,SSW,213,0.0,0.0,95,0.00,,CLR,0.00,VWS V14.01,2014-03-09 07:28:00,
2014-03-09 03:29:00,40.3,39.0,30.01,SSW,213,0.0,0.0,95,0.00,,CLR,0.00,VWS V14.01,2014-03-09 07:29:00,
2014-03-09 03:30:00,40.2,38.9,30.01,SSW,213,0.0,0.0,95,0.00,,CLR,0.00,VWS V14.01,2014-03-09 07:30:00,
2014-03-09 03:31:00,40.2,38.9,30.01,SSW,213,0.0,0.0,95,0.00,,CLR,0.00,VWS V14.01,2014-03-09 07:31:00,
2014-03-09 03:32:00,40.2,38.9,30.01,SSW,213,0.0,0.0,95,0.00,,CLR,0.00,VWS V14.01,2014-03-09 07:32:00,
2014-03-09 03:33:00,40.2,38.9,30.01,SSW,213,0.0,0.0,95,0.00,,CLR,0.00,VWS V14.01,2014-03-09 07:33:00,
2014-03-09 03:34:00,40.2,38.9,30.01,SSW,213,0.0,0.0,95,0.00,,CLR,0.00,VWS V14.01,2014-03-09 07:34:00,
2014-03-09 03:35:00,40.2,38.9,30.01,SSW,213,0.0,0.0,95,0.00,,CLR,0.00,VWS V14.01,2014-03-09 07:35:00,
2014-03-09 03:36:00,40.2,38.9,30.01,SSW,213,0.0,0.0,95,0.00,,CLR,0.00,VWS V14.01,2014-03-09 07:36:00,
2014-03-09 03:37:00,40.2,38.9,30.01,SSW,213,0.0,0.0,95,0.00,,CLR,0.00,VWS V14.01,2014-03-09 07:37:00,
2014-03-09 03:38:00,40.2,38.9,30.01,SSW,213,0.0,0.0,95,0.00,,CLR,0.00,VWS V14.01,2014-03-09 07:38:00,
2014-03-09 03:39:00,40.1,38.8,30.01,SSW,213,0.0,0.0,95,0.00,,CLR,0.00,VWS V14.01,2014-03-09 07:39:00,
2014-03-09 03:40:00,40.1,38.8,30.01,SSW,213,0.0,0.0,95,0.00,,CLR,0.00,VWS V14.01,2014-03-09 07:40:00,
2014-03-09 03:41:00,40.1,38.8,30.01,SSW,213,0.0,0.0,95,0.00,,CLR,0.00,VWS V14.01,2014-03-09 07:41:00,
2014-03-09 03:42:00,40.1,39.0,30.01,SSW,213,0.0,0.0,96,0.00,,CLR,0.00,VWS V14.01,2014-03-09 07:42:00,
2014-03-09 03:43:00,40.1,39.0,30.01,SSW,213,0.0,0.0,96,0.00,,CLR,0.00,VWS V14.01,2014-03-09 07:43:00,
2014-03-09 03:44:00,40.1,39.0,30.01,SSW,213,0.0,0.0,96,0.00,,CLR,0.00,VWS V14.01,2014-03-09 07:44:00,
2014-03-09 03:45:00,40.1,39.0,30.01,SSW,213,0.0,0.0,96,0.00,,CLR,0.00,VWS V14.01,2014-03-09 07:45:00,
2014-03-09 03:46:00,40.1,39.0,30.01,SSW,213,0.0,0.0,96,0.00,,CLR,0.00,VWS V14.01,2014-03-09 07:46:00,
2014-03-09 03:47:00,40.0,38.7,30.01,SSW,213,0.0,0.0,95,0.00,,CLR,0.00,VWS V14.01,2014-03-09 07:47:00,
2014-03-09 03:48:00,40.0,38.7,30.01,SSW,213,0.0,0.0,95,0.00,,CLR,0.00,VWS V14.01,2014-03-09 07:48:00,
2014-03-09 03:49:00,40.0,38.7,30.01,SSW,213,0.0,0.0,95,0.00,,CLR,0.00,VWS V14.01,2014-03-09 07:49:00,
2014-03-09 03:50:00,39.9,38.6,30.01,SSW,213,0.0,0.0,95,0.00,,CLR,0.00,VWS V14.01,2014-03-09 07:50:00,
2014-03-09 03:51:00,39.9,38.6,30.01,SSW,213,0.0,0.0,95,0.00,,CLR,0.00,VWS V14.01,2014-03-09 07:51:00,
2014-03-09 03:52:00,39.8,38.5,30.01,SSW,213,0.0,0.0,95,0.00,,CLR,0.00,VWS V14.01,2014-03-09 07:52:00,
2014-03-09 03:53:00,39.9,38.6,30.01,SSW,213,0.0,0.0,95,0.00,,CLR,0.00,VWS V14.01,2014-03-09 07:53:00,
2014-03-09 03:54:00,39.8,38.5,30.01,SSW,213,0.0,0.0,95,0.00,,CLR,0.00,VWS V14.01,2014-03-09 07:54:00,
2014-03-09 03:55:00,39.8,38.5,30.01,SSW,213,0.0,0.0,95,0.00,,CLR,0.00,VWS V14.01,2014-03-09 07:55:00,
2014-03-09 03:56:00,39.9,38.6,30.01,SSW,213,0.0,0.0,95,0.00,,CLR,0.00,VWS V14.01,2014-03-09 07:56:00,
2014-03-09 03:57:00,39.9,38.8,30.01,SSW,213,0.0,0.0,96,0.00,,CLR,0.00,VWS V14.01,2014-03-09 07:57:00,
2014-03-09 03:58:00,39.9,38.8,30.01,SSW,213,0.0,0.0,96,0.00,,CLR,0.00,VWS V14.01,2014-03-09 07:58:00,
2014-03-09 03:59:00,39.9,38.8,30.01,SSW,213,0.0,0.0,96,0.00,,CLR,0.00,VWS V14.01,2014-03-09 07:59:00,
2014-03-09 04:00:00,39.9,38.8,30.01,SSW,213,0.0,0.0,96,0.00,,CLR,0.00,VWS V14.01,2014-03-09 08:00:00,
2014-03-09 04:01:00,39.9,38.8,30.01,SSW,213,1.0,1.0,96,0.00,,CLR,0.00,VWS V14.01,2014-03-09 08:01:00,
2014-03-09 04:02:00,39.8,38.8,30.01,SSW,213,0.0,0.0,96,0.00,,CLR,0.00,VWS V14.01,2014-03-09 08:02:00,
2014-03-09 04:03:00,39.8,38.8,30.01,SSW,213,0.0,1.0,96,0.00,,CLR,0.00,VWS V14.01,2014-03-09 08:03:00,
2014-03-09 04:04:00,39.8,38.8,30.01,SSW,213,0.0,0.0,96,0.00,,CLR,0.00,VWS V14.01,2014-03-09 08:04:00,
2014-03-09 04:05:00,39.8,38.8,30.01,SSW,213,0.0,0.0,96,0.00,,CLR,0.00,VWS V14.01,2014-03-09 08:05:00,
2014-03-09 04:06:00,39.8,38.8,30.01,SSW,213,0.0,1.0,96,0.00,,CLR,0.00,VWS V14.01,2014-03-09 08:06:00,
2014-03-09 04:07:00,39.8,38.8,30.01,SSW,213,0.0,2.0,96,0.00,,CLR,0.00,VWS V14.01,2014-03-09 08:07:00,
2014-03-09 04:08:00,39.8,38.8,30.01,SSW,213,0.0,1.0,96,0.00,,CLR,0.00,VWS V14.01,2014-03-09 08:08:00,
2014-03-09 04:09:00,39.8,38.8,30.01,SSW,213,0.0,2.0,96,0.00,,CLR,0.00,VWS V14.01,2014-03-09 08:09:00,
2014-03-09 04:10:00,39.8,38.8,30.01,SSW,213,0.0,1.0,96,0.00,,CLR,0.00,VWS V14.01,2014-03-09 08:10:00,
2014-03-09 04:11:00,39.8,38.8,30.01,SSW,213,0.0,1.0,96,0.00,,CLR,0.00,VWS V14.01,2014-03-09 08:11:00,
2014-03-09 04:12:00,39.8,38.8,30.01,SSW,213,0.0,0.0,96,0.00,,CLR,0.00,VWS V14.01,2014-03-09 08:12:00,
2014-03-09 04:13:00,39.8,38.8,30.01,SSW,213,0.0,0.0,96,0.00,,CLR,0.00,VWS V14.01,2014-03-09 08:13:00,
2014-03-09 04:14:00,39.8,38.8,30.01,SSW,213,0.0,0.0,96,0.00,,CLR,0.00,VWS V14.01,2014-03-09 08:14:00,
2014-03-09 04:15:00,39.8,38.8,30.01,SSW,213,0.0,0.0,96,0.00,,CLR,0.00,VWS V14.01,2014-03-09 08:15:00,
2014-03-09 04:16:00,39.8,38.8,30.01,SSW,213,0.0,0.0,96,0.00,,CLR,0.00,VWS V14.01,2014-03-09 08:16:00,
2014-03-09 04:17:00,39.8,38.8,30.01,SSW,213,0.0,0.0,96,0.00,,CLR,0.00,VWS V14.01,2014-03-09 08:17:00,
2014-03-09 04:18:00,39.8,38.8,30.01,SSW,213,0.0,0.0,96,0.00,,CLR,0.00,VWS V14.01,2014-03-09 08:18:00,
2014-03-09 04:19:00,39.8,38.8,30.01,SSW,213,0.0,0.0,96,0.00,,CLR,0.00,VWS V14.01,2014-03-09 08:19:00,
2014-03-09 04:20:00,39.8,38.8,30.01,SSW,213,0.0,0.0,96,0.00,,CLR,0.00,VWS V14.01,2014-03-09 08:20:00,
2014-03-09 04:21:00,39.8,38.8,30.01,SSW,213,0.0,0.0,96,0.00,,CLR,0.00,VWS V14.01,2014-03-09 08:21:00,
2014-03-09 04:22:00,39.9,38.8,30.01,SW,219,0.0,1.0,96,0.00,,CLR,0.00,VWS V14.01,2014-03-09 08:22:00,
2014-03-09 04:23:00,39.9,38.8,30.01,SW,219,0.0,2.0,96,0.00,,CLR,0.00,VWS V14.01,2014-03-09 08:23:00,
2014-03-09 04:24:00,39.9,38.8,30.01,SW,219,0.0,1.0,96,0.00,,CLR,0.00,VWS V14.01,2014-03-09 08:24:00,
2014-03-09 04:25:00,40.0,39.0,30.01,SW,219,0.0,0.0,96,0.00,,CLR,0.00,VWS V14.01,2014-03-09 08:25:00,
2014-03-09 04:26:00,40.0,39.0,30.01,SW,219,0.0,0.0,96,0.00,,CLR,0.00,VWS V14.01,2014-03-09 08:26:00,
2014-03-09 04:27:00,40.1,39.3,30.01,SW,219,0.0,0.0,97,0.00,,CLR,0.00,VWS V14.01,2014-03-09 08:27:00,
2014-03-09 04:28:00,40.1,39.3,30.01,SW,219,0.0,0.0,97,0.00,,CLR,0.00,VWS V14.01,2014-03-09 08:28:00,
2014-03-09 04:29:00,40.2,39.4,30.01,SW,219,0.0,0.0,97,0.00,,CLR,0.00,VWS V14.01,2014-03-09 08:29:00,
2014-03-09 04:30:00,40.2,39.4,30.01,SW,219,0.0,0.0,97,0.00,,CLR,0.00,VWS V14.01,2014-03-09 08:30:00,
2014-03-09 04:31:00,40.2,39.4,30.01,SW,219,0.0,0.0,97,0.00,,CLR,0.00,VWS V14.01,2014-03-09 08:31:00,
2014-03-09 04:32:00,40.3,39.5,30.01,SW,219,0.0,0.0,97,0.00,,CLR,0.00,VWS V14.01,2014-03-09 08:32:00,
2014-03-09 04:33:00,40.3,39.5,30.01,SW,219,0.0,0.0,97,0.00,,CLR,0.00,VWS V14.01,2014-03-09 08:33:00,
2014-03-09 04:34:00,40.3,39.5,30.01,SW,219,0.0,0.0,97,0.00,,CLR,0.00,VWS V14.01,2014-03-09 08:34:00,
2014-03-09 04:35:00,40.3,39.5,30.01,SW,219,0.0,0.0,97,0.00,,CLR,0.00,VWS V14.01,2014-03-09 08:35:00,
2014-03-09 04:36:00,40.3,39.5,30.01,SW,219,0.0,0.0,97,0.00,,CLR,0.00,VWS V14.01,2014-03-09 08:36:00,
2014-03-09 04:37:00,40.3,39.5,30.01,SW,219,0.0,0.0,97,0.00,,CLR,0.00,VWS V14.01,2014-03-09 08:37:00,
2014-03-09 04:38:00,40.3,39.5,30.01,SW,219,0.0,0.0,97,0.00,,CLR,0.00,VWS V14.01,2014-03-09 08:38:00,
2014-03-09 04:39:00,40.3,39.5,30.01,SW,219,0.0,0.0,97,0.00,,CLR,0.00,VWS V14.01,2014-03-09 08:39:00,
2014-03-09 04:40:00,40.3,39.5,30.01,SW,219,0.0,0.0,97,0.00,,CLR,0.00,VWS V14.01,2014-03-09 08:40:00,
2014-03-09 04:41:00,40.3,39.5,30.01,SW,219,0.0,0.0,97,0.00,,CLR,0.00,VWS V14.01,2014-03-09 08:41:00,
2014-03-09 04:42:00,40.3,39.5,30.01,SW,219,0.0,0.0,97,0.00,,CLR,0.00,VWS V14.01,2014-03-09 08:42:00,
2014-03-09 04:43:00,40.3,39.5,30.01,SW,219,0.0,0.0,97,0.00,,CLR,0.00,VWS V14.01,2014-03-09 08:43:00,
2014-03-09 04:44:00,40.4,39.6,30.01,SW,219,0.0,0.0,97,0.00,,CLR,0.00,VWS V14.01,2014-03-09 08:44:00,
2014-03-09 04:45:00,40.4,39.6,30.01,SW,219,0.0,0.0,97,0.00,,CLR,0.00,VWS V14.01,2014-03-09 08:45:00,
2014-03-09 04:46:00,40.4,39.6,30.01,SW,219,0.0,0.0,97,0.00,,CLR,0.00,VWS V14.01,2014-03-09 08:46:00,
2014-03-09 04:47:00,40.4,39.6,30.01,SW,219,0.0,0.0,97,0.00,,CLR,0.00,VWS V14.01,2014-03-09 08:47:00,
2014-03-09 04:48:00,40.4,39.6,30.01,SW,219,0.0,0.0,97,0.00,,CLR,0.00,VWS V14.01,2014-03-09 08:48:00,
2014-03-09 04:49:00,40.4,39.6,30.01,SW,219,0.0,0.0,97,0.00,,CLR,0.00,VWS V14.01,2014-03-09 08:49:00,
2014-03-09 04:50:00,40.4,39.6,30.01,SW,219,0.0,0.0,97,0.00,,CLR,0.00,VWS V14.01,2014-03-09 08:50:00,
2014-03-09 04:51:00,40.4,39.6,30.01,SW,219,0.0,0.0,97,0.00,,CLR,0.00,VWS V14.01,2014-03-09 08:51:00,
2014-03-09 04:52:00,40.3,39.5,30.01,SW,219,0.0,0.0,97,0.00,,CLR,0.00,VWS V14.01,2014-03-09 08:52:00,
2014-03-09 04:53:00,40.4,39.6,30.01,SW,219,0.0,0.0,97,0.00,,CLR,0.00,VWS V14.01,2014-03-09 08:53:00,
2014-03-09 04:54:00,40.3,39.5,30.01,SW,219,0.0,0.0,97,0.00,,CLR,0.00,VWS V14.01,2014-03-09 08:54:00,
2014-03-09 04:55:00,40.3,39.5,30.01,SW,219,0.0,0.0,97,0.00,,CLR,0.00,VWS V14.01,2014-03-09 08:55:00,
2014-03-09 04:56:00,40.3,39.5,30.01,SW,219,0.0,0.0,97,0.00,,CLR,0.00,VWS V14.01,2014-03-09 08:56:00,
2014-03-09 04:57:00,40.2,39.2,30.01,SW,219,0.0,0.0,96,0.00,,CLR,0.00,VWS V14.01,2014-03-09 08:57:00,
2014-03-09 04:58:00,40.3,39.5,30.01,SW,219,0.0,0.0,97,0.00,,CLR,0.00,VWS V14.01,2014-03-09 08:58:00,
2014-03-09 04:59:00,40.2,39.2,30.01,SW,219,0.0,0.0,96,0.00,,CLR,0.00,VWS V14.01,2014-03-09 08:59:00,
2014-03-09 05:00:00,40.2,39.2,30.01,SW,219,0.0,0.0,96,0.00,,CLR,0.00,VWS V14.01,2014-03-09 09:00:00,
2014-03-09 05:01:00,40.2,39.2,30.01,SW,219,0.0,0.0,96,0.00,,CLR,0.00,VWS V14.01,2014-03-09 09:01:00,
2014-03-09 05:02:00,40.0,39.0,30.01,SW,219,0.0,0.0,96,0.00,,CLR,0.00,VWS V14.01,2014-03-09 09:02:00,
2014-03-09 05:03:00,40.1,39.0,30.01,SW,219,0.0,0.0,96,0.00,,CLR,0.00,VWS V14.01,2014-03-09 09:03:00,
2014-03-09 05:04:00,40.0,39.0,30.01,SW,219,0.0,0.0,96,0.00,,CLR,0.00,VWS V14.01,2014-03-09 09:04:00,
2014-03-09 05:05:00,40.0,39.0,30.01,SW,219,0.0,0.0,96,0.00,,CLR,0.00,VWS V14.01,2014-03-09 09:05:00,
2014-03-09 05:06:00,40.0,39.0,30.01,SW,219,0.0,0.0,96,0.00,,CLR,0.00,VWS V14.01,2014-03-09 09:06:00,
2014-03-09 05:07:00,39.8,38.8,30.01,SW,219,0.0,0.0,96,0.00,,CLR,0.00,VWS V14.01,2014-03-09 09:07:00,
2014-03-09 05:08:00,39.9,38.8,30.01,SW,219,0.0,0.0,96,0.00,,CLR,0.00,VWS V14.01,2014-03-09 09:08:00,
2014-03-09 05:09:00,39.8,38.8,30.01,SW,219,0.0,0.0,96,0.00,,CLR,0.00,VWS V14.01,2014-03-09 09:09:00,
2014-03-09 05:10:00,39.8,38.8,30.01,SW,219,0.0,0.0,96,0.00,,CLR,0.00,VWS V14.01,2014-03-09 09:10:00,
2014-03-09 05:11:00,39.8,38.8,30.01,SW,219,0.0,0.0,96,0.00,,CLR,0.00,VWS V14.01,2014-03-09 09:11:00,
2014-03-09 05:12:00,39.7,38.7,30.01,SW,219,0.0,0.0,96,0.00,,CLR,0.00,VWS V14.01,2014-03-09 09:12:00,
2014-03-09 05:13:00,39.7,38.7,30.01,SW,219,0.0,0.0,96,0.00,,CLR,0.00,VWS V14.01,2014-03-09 09:13:00,
2014-03-09 05:14:00,39.7,38.7,30.01,SW,219,0.0,0.0,96,0.00,,CLR,0.00,VWS V14.01,2014-03-09 09:14:00,
2014-03-09 05:15:00,39.7,38.7,30.01,SW,219,0.0,0.0,96,0.00,,CLR,0.00,VWS V14.01,2014-03-09 09:15:00,
2014-03-09 05:16:00,39.8,38.8,30.02,SW,219,0.0,0.0,96,0.00,,CLR,0.00,VWS V14.01,2014-03-09 09:16:00,
2014-03-09 05:17:00,39.8,38.8,30.02,SW,219,0.0,0.0,96,0.00,,CLR,0.00,VWS V14.01,2014-03-09 09:17:00,
2014-03-09 05:18:00,39.8,38.8,30.02,SW,219,0.0,0.0,96,0.00,,CLR,0.00,VWS V14.01,2014-03-09 09:18:00,
2014-03-09 05:19:00,39.8,38.8,30.02,SW,219,0.0,0.0,96,0.00,,CLR,0.00,VWS V14.01,2014-03-09 09:19:00,
2014-03-09 05:20:00,39.8,38.8,30.02,SW,219,0.0,0.0,96,0.00,,CLR,0.00,VWS V14.01,2014-03-09 09:20:00,
2014-03-09 05:21:00,39.8,38.8,30.02,SW,219,0.0,0.0,96,0.00,,CLR,0.00,VWS V14.01,2014-03-09 09:21:00,
2014-03-09 05:22:00,39.7,38.7,30.02,SW,219,0.0,0.0,96,0.00,,CLR,0.00,VWS V14.01,2014-03-09 09:22:00,
2014-03-09 05:23:00,39.7,38.7,30.02,SW,219,0.0,0.0,96,0.00,,CLR,0.00,VWS V14.01,2014-03-09 09:23:00,
2014-03-09 05:24:00,39.7,38.7,30.02,SW,219,0.0,0.0,96,0.00,,CLR,0.00,VWS V14.01,2014-03-09 09:24:00,
2014-03-09 05:25:00,39.6,38.6,30.02,SW,219,0.0,0.0,96,0.00,,CLR,0.00,VWS V14.01,2014-03-09 09:25:00,
2014-03-09 05:26:00,39.6,38.6,30.02,SW,219,0.0,0.0,96,0.00,,CLR,0.00,VWS V14.01,2014-03-09 09:26:00,
2014-03-09 05:27:00,39.3,38.3,30.02,SW,219,0.0,0.0,96,0.00,,CLR,0.00,VWS V14.01,2014-03-09 09:27:00,
2014-03-09 05:28:00,39.4,38.4,30.02,SW,219,0.0,0.0,96,0.00,,CLR,0.00,VWS V14.01,2014-03-09 09:28:00,
2014-03-09 05:29:00,39.3,38.3,30.02,SW,219,0.0,0.0,96,0.00,,CLR,0.00,VWS V14.01,2014-03-09 09:29:00,
2014-03-09 05:30:00,39.3,38.3,30.02,SW,219,0.0,0.0,96,0.00,,CLR,0.00,VWS V14.01,2014-03-09 09:30:00,
2014-03-09 05:31:00,39.2,38.2,30.02,SW,219,0.0,0.0,96,0.00,,CLR,0.00,VWS V14.01,2014-03-09 09:31:00,
2014-03-09 05:32:00,39.1,38.1,30.02,SW,219,0.0,0.0,96,0.00,,CLR,0.00,VWS V14.01,2014-03-09 09:32:00,
2014-03-09 05:33:00,39.2,38.2,30.02,SW,219,0.0,0.0,96,0.00,,CLR,0.00,VWS V14.01,2014-03-09 09:33:00,
2014-03-09 05:34:00,39.1,38.1,30.02,SW,219,0.0,0.0,96,0.00,,CLR,0.00,VWS V14.01,2014-03-09 09:34:00,
2014-03-09 05:35:00,39.1,38.1,30.02,SW,219,0.0,0.0,96,0.00,,CLR,0.00,VWS V14.01,2014-03-09 09:35:00,
2014-03-09 05:36:00,39.1,38.1,30.02,SW,219,0.0,0.0,96,0.00,,CLR,0.00,VWS V14.01,2014-03-09 09:36:00,
2014-03-09 05:37:00,39.1,38.1,30.03,SW,219,0.0,0.0,96,0.00,,CLR,0.00,VWS V14.01,2014-03-09 09:37:00,
2014-03-09 05:38:00,39.1,38.1,30.03,SW,219,0.0,0.0,96,0.00,,CLR,0.00,VWS V14.01,2014-03-09 09:38:00,
2014-03-09 05:39:00,39.1,38.1,30.03,SW,219,0.0,0.0,96,0.00,,CLR,0.00,VWS V14.01,2014-03-09 09:39:00,
2014-03-09 05:40:00,39.1,38.1,30.03,SW,219,0.0,0.0,96,0.00,,CLR,0.00,VWS V14.01,2014-03-09 09:40:00,
2014-03-09 05:41:00,39.1,38.1,30.02,SW,219,0.0,0.0,96,0.00,,CLR,0.00,VWS V14.01,2014-03-09 09:41:00,
2014-03-09 05:42:00,39.1,38.1,30.02,SW,219,0.0,0.0,96,0.00,,CLR,0.00,VWS V14.01,2014-03-09 09:42:00,
2014-03-09 05:43:00,39.1,38.1,30.03,SW,219,0.0,0.0,96,0.00,,CLR,0.00,VWS V14.01,2014-03-09 09:43:00,
2014-03-09 05:44:00,39.1,38.1,30.02,SW,219,0.0,0.0,96,0.00,,CLR,0.00,VWS V14.01,2014-03-09 09:44:00,
2014-03-09 05:45:00,39.1,38.1,30.02,SW,219,0.0,0.0,96,0.00,,CLR,0.00,VWS V14.01,2014-03-09 09:45:00,
2014-03-09 05:46:00,39.1,38.1,30.02,SW,219,0.0,0.0,96,0.00,,CLR,0.00,VWS V14.01,2014-03-09 09:46:00,
2014-03-09 05:47:00,39.0,38.0,30.02,SW,219,0.0,0.0,96,0.00,,CLR,0.00,VWS V14.01,2014-03-09 09:47:00,
2014-03-09 05:48:00,39.0,38.0,30.02,SW,219,0.0,0.0,96,0.00,,CLR,0.00,VWS V14.01,2014-03-09 09:48:00,
2014-03-09 05:49:00,39.0,38.0,30.02,SW,219,0.0,0.0,96,0.00,,CLR,0.00,VWS V14.01,2014-03-09 09:49:00,
2014-03-09 05:50:00,38.9,37.9,30.02,SW,219,0.0,0.0,96,0.00,,CLR,0.00,VWS V14.01,2014-03-09 09:50:00,
2014-03-09 05:51:00,38.9,37.9,30.02,SW,219,0.0,0.0,96,0.00,,CLR,0.00,VWS V14.01,2014-03-09 09:51:00,
2014-03-09 05:52:00,38.9,37.9,30.02,SW,219,0.0,0.0,96,0.00,,CLR,0.00,VWS V14.01,2014-03-09 09:52:00,
2014-03-09 05:53:00,38.9,37.9,30.02,SW,219,0.0,0.0,96,0.00,,CLR,0.00,VWS V14.01,2014-03-09 09:53:00,
2014-03-09 05:54:00,38.9,37.9,30.02,SW,219,0.0,0.0,96,0.00,,CLR,0.00,VWS V14.01,2014-03-09 09:54:00,
2014-03-09 05:55:00,38.8,37.8,30.02,SW,219,0.0,0.0,96,0.00,,CLR,0.00,VWS V14.01,2014-03-09 09:55:00,
2014-03-09 05:56:00,38.8,37.8,30.02,SW,219,0.0,0.0,96,0.00,,CLR,0.00,VWS V14.01,2014-03-09 09:56:00,
2014-03-09 05:57:00,38.8,37.8,30.02,SW,219,0.0,0.0,96,0.00,,CLR,0.00,VWS V14.01,2014-03-09 09:57:00,
2014-03-09 05:58:00,38.8,37.8,30.02,SW,219,0.0,0.0,96,0.00,,CLR,0.00,VWS V14.01,2014-03-09 09:58:00,
2014-03-09 05:59:00,38.8,37.8,30.02,SW,219,0.0,0.0,96,0.00,,CLR,0.00,VWS V14.01,2014-03-09 09:59:00,
2014-03-09 06:00:00,38.8,37.8,30.03,SW,219,0.0,0.0,96,0.00,,CLR,0.00,VWS V14.01,2014-03-09 10:00:00,
2014-03-09 06:01:00,38.7,37.7,30.03,SW,219,0.0,0.0,96,0.00,,CLR,0.00,VWS V14.01,2014-03-09 10:01:00,
2014-03-09 06:02:00,38.7,37.7,30.03,SW,219,0.0,0.0,96,0.00,,CLR,0.00,VWS V14.01,2014-03-09 10:02:00,
2014-03-09 06:03:00,38.7,37.7,30.03,SW,219,0.0,0.0,96,0.00,,CLR,0.00,VWS V14.01,2014-03-09 10:03:00,
2014-03-09 06:04:00,38.7,37.7,30.03,SW,219,0.0,0.0,96,0.00,,CLR,0.00,VWS V14.01,2014-03-09 10:04:00,
2014-03-09 06:05:00,38.7,37.7,30.03,SW,219,0.0,0.0,96,0.00,,CLR,0.00,VWS V14.01,2014-03-09 10:05:00,
2014-03-09 06:06:00,38.7,37.7,30.03,SW,219,0.0,0.0,96,0.00,,CLR,0.00,VWS V14.01,2014-03-09 10:06:00,
2014-03-09 06:07:00,38.6,37.6,30.03,SW,219,0.0,0.0,96,0.00,,CLR,0.00,VWS V14.01,2014-03-09 10:07:00,
2014-03-09 06:08:00,38.6,37.6,30.03,SW,219,0.0,0.0,96,0.00,,CLR,0.00,VWS V14.01,2014-03-09 10:08:00,
2014-03-09 06:09:00,38.6,37.6,30.03,SW,219,0.0,0.0,96,0.00,,CLR,0.00,VWS V14.01,2014-03-09 10:09:00,
2014-03-09 06:10:00,38.6,37.6,30.03,SW,219,0.0,0.0,96,0.00,,CLR,0.00,VWS V14.01,2014-03-09 10:10:00,
2014-03-09 06:11:00,38.6,37.6,30.03,SW,219,0.0,0.0,96,0.00,,CLR,0.00,VWS V14.01,2014-03-09 10:11:00,
2014-03-09 06:12:00,38.5,37.5,30.03,SW,219,0.0,0.0,96,0.00,,CLR,0.00,VWS V14.01,2014-03-09 10:12:00,
2014-03-09 06:13:00,38.6,37.6,30.03,SW,219,0.0,0.0,96,0.00,,CLR,0.00,VWS V14.01,2014-03-09 10:13:00,
2014-03-09 06:14:00,38.6,37.6,30.03,SW,219,0.0,0.0,96,0.00,,CLR,0.00,VWS V14.01,2014-03-09 10:14:00,
2014-03-09 06:15:00,38.5,37.5,30.03,SW,219,0.0,0.0,96,0.00,,CLR,0.00,VWS V14.01,2014-03-09 10:15:00,
2014-03-09 06:16:00,38.5,37.5,30.03,SW,219,0.0,0.0,96,0.00,,CLR,0.00,VWS V14.01,2014-03-09 10:16:00,
2014-03-09 06:17:00,38.5,37.5,30.03,SW,219,0.0,0.0,96,0.00,,CLR,0.00,VWS V14.01,2014-03-09 10:17:00,
2014-03-09 06:18:00,38.5,37.5,30.03,SW,219,0.0,0.0,96,0.00,,CLR,0.00,VWS V14.01,2014-03-09 10:18:00,
2014-03-09 06:19:00,38.5,37.5,30.03,SW,219,0.0,0.0,96,0.00,,CLR,0.00,VWS V14.01,2014-03-09 10:19:00,
2014-03-09 06:20:00,38.5,37.5,30.03,SW,219,0.0,0.0,96,0.00,,CLR,0.00,VWS V14.01,2014-03-09 10:20:00,
2014-03-09 06:21:00,38.5,37.5,30.03,SW,219,0.0,0.0,96,0.00,,CLR,0.00,VWS V14.01,2014-03-09 10:21:00,
2014-03-09 06:22:00,38.4,37.4,30.04,SW,219,0.0,0.0,96,0.00,,CLR,0.00,VWS V14.01,2014-03-09 10:22:00,
2014-03-09 06:23:00,38.4,37.4,30.03,SW,219,0.0,0.0,96,0.00,,CLR,0.00,VWS V14.01,2014-03-09 10:23:00,
2014-03-09 06:24:00,38.4,37.4,30.04,SW,219,0.0,0.0,96,0.00,,CLR,0.00,VWS V14.01,2014-03-09 10:24:00,
2014-03-09 06:25:00,38.4,37.4,30.04,SW,219,0.0,0.0,96,0.00,,CLR,0.00,VWS V14.01,2014-03-09 10:25:00,
2014-03-09 06:26:00,38.4,37.4,30.04,SW,219,0.0,0.0,96,0.00,,CLR,0.00,VWS V14.01,2014-03-09 10:26:00,
2014-03-09 06:27:00,38.3,37.3,30.04,SW,219,0.0,0.0,96,0.00,,CLR,0.00,VWS V14.01,2014-03-09 10:27:00,
2014-03-09 06:28:00,38.3,37.3,30.04,SW,219,0.0,0.0,96,0.00,,CLR,0.00,VWS V14.01,2014-03-09 10:28:00,
2014-03-09 06:29:00,38.3,37.3,30.04,SW,219,0.0,0.0,96,0.00,,CLR,0.00,VWS V14.01,2014-03-09 10:29:00,
2014-03-09 06:30:00,38.3,37.3,30.04,SW,219,0.0,0.0,96,0.00,,CLR,0.00,VWS V14.01,2014-03-09 10:30:00,
2014-03-09 06:31:00,38.3,37.3,30.04,SW,219,0.0,0.0,96,0.00,,CLR,0.00,VWS V14.01,2014-03-09 10:31:00,
2014-03-09 06:32:00,38.2,37.2,30.04,SW,219,0.0,0.0,96,0.00,,CLR,0.00,VWS V14.01,2014-03-09 10:32:00,
2014-03-09 06:33:00,38.2,37.2,30.04,SW,219,0.0,0.0,96,0.00,,CLR,0.00,VWS V14.01,2014-03-09 10:33:00,
2014-03-09 06:34:00,38.2,37.2,30.04,SW,219,0.0,0.0,96,0.00,,CLR,0.00,VWS V14.01,2014-03-09 10:34:00,
2014-03-09 06:35:00,38.2,37.2,30.04,SW,219,0.0,0.0,96,0.00,,CLR,0.00,VWS V14.01,2014-03-09 10:35:00,
2014-03-09 06:36:00,38.2,37.2,30.04,SW,219,0.0,0.0,96,0.00,,CLR,0.00,VWS V14.01,2014-03-09 10:36:00,
2014-03-09 06:37:00,38.2,37.4,30.04,SW,219,0.0,0.0,97,0.00,,CLR,0.00,VWS V14.01,2014-03-09 10:37:00,
2014-03-09 06:38:00,38.2,37.2,30.04,SW,219,0.0,0.0,96,0.00,,CLR,0.00,VWS V14.01,2014-03-09 10:38:00,
2014-03-09 06:39:00,38.2,37.4,30.04,SW,219,0.0,0.0,97,0.00,,CLR,0.00,VWS V14.01,2014-03-09 10:39:00,
2014-03-09 06:40:00,38.2,37.4,30.04,SW,219,0.0,0.0,97,0.00,,CLR,0.00,VWS V14.01,2014-03-09 10:40:00,
2014-03-09 06:41:00,38.2,37.4,30.05,SW,219,0.0,0.0,97,0.00,,CLR,0.00,VWS V14.01,2014-03-09 10:41:00,
2014-03-09 06:42:00,38.2,37.2,30.05,SW,219,0.0,0.0,96,0.00,,CLR,0.00,VWS V14.01,2014-03-09 10:42:00,
2014-03-09 06:43:00,38.2,37.2,30.04,SW,219,0.0,0.0,96,0.00,,CLR,0.00,VWS V14.01,2014-03-09 10:43:00,
2014-03-09 06:44:00,38.2,37.2,30.05,SW,219,0.0,0.0,96,0.00,,CLR,0.00,VWS V14.01,2014-03-09 10:44:00,
2014-03-09 06:45:00,38.2,37.4,30.05,SW,219,0.0,0.0,97,0.00,,CLR,0.00,VWS V14.01,2014-03-09 10:45:00,
2014-03-09 06:46:00,38.2,37.4,30.05,SW,219,0.0,0.0,97,0.00,,CLR,0.00,VWS V14.01,2014-03-09 10:46:00,
2014-03-09 06:47:00,38.2,37.4,30.05,SW,219,0.0,0.0,97,0.00,,CLR,0.00,VWS V14.01,2014-03-09 10:47:00,
2014-03-09 06:48:00,38.2,37.4,30.05,SW,219,0.0,0.0,97,0.00,,CLR,0.00,VWS V14.01,2014-03-09 10:48:00,
2014-03-09 06:49:00,38.3,37.5,30.05,SW,219,0.0,0.0,97,0.00,,CLR,0.00,VWS V14.01,2014-03-09 10:49:00,
2014-03-09 06:50:00,38.4,37.6,30.05,SW,219,0.0,0.0,97,0.00,,CLR,0.00,VWS V14.01,2014-03-09 10:50:00,
2014-03-09 06:51:00,38.4,37.6,30.05,SW,219,0.0,0.0,97,0.00,,CLR,0.00,VWS V14.01,2014-03-09 10:51:00,
2014-03-09 06:52:00,38.6,37.8,30.05,SW,219,0.0,0.0,97,0.00,,CLR,0.00,VWS V14.01,2014-03-09 10:52:00,
2014-03-09 06:53:00,38.6,37.8,30.05,SW,219,0.0,0.0,97,0.00,,CLR,0.00,VWS V14.01,2014-03-09 10:53:00,
2014-03-09 06:54:00,38.6,37.8,30.05,SW,219,0.0,0.0,97,0.00,,CLR,0.00,VWS V14.01,2014-03-09 10:54:00,
2014-03-09 06:55:00,38.7,37.9,30.05,SW,219,0.0,0.0,97,0.00,,CLR,0.00,VWS V14.01,2014-03-09 10:55:00,
2014-03-09 06:56:00,38.8,38.0,30.05,SW,219,0.0,0.0,97,0.00,,CLR,0.00,VWS V14.01,2014-03-09 10:56:00,
2014-03-09 06:57:00,38.9,38.1,30.05,SW,219,0.0,0.0,97,0.00,,CLR,0.00,VWS V14.01,2014-03-09 10:57:00,
2014-03-09 06:58:00,38.9,38.1,30.05,SW,219,0.0,0.0,97,0.00,,CLR,0.00,VWS V14.01,2014-03-09 10:58:00,
2014-03-09 06:59:00,39.0,38.2,30.05,SW,219,0.0,0.0,97,0.00,,CLR,0.00,VWS V14.01,2014-03-09 10:59:00,
2014-03-09 07:00:00,39.0,38.2,30.05,SW,219,0.0,0.0,97,0.00,,CLR,0.00,VWS V14.01,2014-03-09 11:00:00,
2014-03-09 07:01:00,39.1,38.3,30.05,SW,219,0.0,0.0,97,0.00,,CLR,0.00,VWS V14.01,2014-03-09 11:01:00,
2014-03-09 07:02:00,39.3,38.8,30.05,SW,219,0.0,0.0,98,0.00,,CLR,0.00,VWS V14.01,2014-03-09 11:02:00,
2014-03-09 07:03:00,39.3,38.8,30.05,SW,219,0.0,0.0,98,0.00,,CLR,0.00,VWS V14.01,2014-03-09 11:03:00,
2014-03-09 07:04:00,39.3,38.8,30.05,SW,219,0.0,0.0,98,0.00,,CLR,0.00,VWS V14.01,2014-03-09 11:04:00,
2014-03-09 07:05:00,39.4,38.9,30.05,SW,219,0.0,0.0,98,0.00,,CLR,0.00,VWS V14.01,2014-03-09 11:05:00,
2014-03-09 07:06:00,39.5,39.0,30.05,SW,219,0.0,0.0,98,0.00,,CLR,0.00,VWS V14.01,2014-03-09 11:06:00,
2014-03-09 07:07:00,39.7,39.2,30.05,SW,219,0.0,0.0,98,0.00,,CLR,0.00,VWS V14.01,2014-03-09 11:07:00,
2014-03-09 07:08:00,39.7,39.2,30.05,SW,219,0.0,0.0,98,0.00,,CLR,0.00,VWS V14.01,2014-03-09 11:08:00,
2014-03-09 07:09:00,39.7,39.2,30.05,SW,219,0.0,0.0,98,0.00,,CLR,0.00,VWS V14.01,2014-03-09 11:09:00,
2014-03-09 07:10:00,39.8,39.3,30.05,SW,219,0.0,0.0,98,0.00,,CLR,0.00,VWS V14.01,2014-03-09 11:10:00,
2014-03-09 07:11:00,39.8,39.3,30.05,SW,219,0.0,0.0,98,0.00,,CLR,0.00,VWS V14.01,2014-03-09 11:11:00,
2014-03-09 07:12:00,40.0,39.5,30.05,SW,219,0.0,0.0,98,0.00,,CLR,0.00,VWS V14.01,2014-03-09 11:12:00,
2014-03-09 07:13:00,40.0,39.5,30.05,SW,219,0.0,0.0,98,0.00,,CLR,0.00,VWS V14.01,2014-03-09 11:13:00,
2014-03-09 07:14:00,40.0,39.5,30.05,SW,219,0.0,0.0,98,0.00,,CLR,0.00,VWS V14.01,2014-03-09 11:14:00,
2014-03-09 07:15:00,40.0,39.5,30.05,SW,219,0.0,0.0,98,0.00,,CLR,0.00,VWS V14.01,2014-03-09 11:15:00,
2014-03-09 07:16:00,40.0,39.5,30.05,SW,219,0.0,0.0,98,0.00,,CLR,0.00,VWS V14.01,2014-03-09 11:16:00,
2014-03-09 07:17:00,40.0,39.5,30.05,SW,219,0.0,0.0,98,0.00,,CLR,0.00,VWS V14.01,2014-03-09 11:17:00,
2014-03-09 07:18:00,39.9,39.4,30.05,SW,219,0.0,0.0,98,0.00,,CLR,0.00,VWS V14.01,2014-03-09 11:18:00,
2014-03-09 07:19:00,40.0,39.5,30.05,SW,219,0.0,0.0,98,0.00,,CLR,0.00,VWS V14.01,2014-03-09 11:19:00,
2014-03-09 07:20:00,40.0,39.5,30.05,SW,219,0.0,0.0,98,0.00,,CLR,0.00,VWS V14.01,2014-03-09 11:20:00,
2014-03-09 07:21:00,40.0,39.5,30.05,SW,219,0.0,0.0,98,0.00,,CLR,0.00,VWS V14.01,2014-03-09 11:21:00,
2014-03-09 07:22:00,40.0,39.5,30.05,SW,219,0.0,0.0,98,0.00,,CLR,0.00,VWS V14.01,2014-03-09 11:22:00,
2014-03-09 07:23:00,40.0,39.5,30.05,SW,219,0.0,0.0,98,0.00,,CLR,0.00,VWS V14.01,2014-03-09 11:23:00,
2014-03-09 07:24:00,40.0,39.5,30.05,SW,219,0.0,0.0,98,0.00,,CLR,0.00,VWS V14.01,2014-03-09 11:24:00,
2014-03-09 07:25:00,40.0,39.5,30.05,SW,219,0.0,0.0,98,0.00,,CLR,0.00,VWS V14.01,2014-03-09 11:25:00,
2014-03-09 07:26:00,40.0,39.5,30.06,SW,219,0.0,0.0,98,0.00,,CLR,0.00,VWS V14.01,2014-03-09 11:26:00,
2014-03-09 07:27:00,40.0,39.5,30.06,SW,219,0.0,0.0,98,0.00,,CLR,0.00,VWS V14.01,2014-03-09 11:27:00,
2014-03-09 07:28:00,40.0,39.5,30.06,SW,219,0.0,0.0,98,0.00,,CLR,0.00,VWS V14.01,2014-03-09 11:28:00,
2014-03-09 07:29:00,40.0,39.5,30.06,SW,219,0.0,0.0,98,0.00,,CLR,0.00,VWS V14.01,2014-03-09 11:29:00,
2014-03-09 07:30:00,40.0,39.5,30.05,SW,219,0.0,0.0,98,0.00,,CLR,0.00,VWS V14.01,2014-03-09 11:30:00,
2014-03-09 07:31:00,40.0,39.5,30.05,SW,219,0.0,0.0,98,0.00,,CLR,0.00,VWS V14.01,2014-03-09 11:31:00,
2014-03-09 07:32:00,39.9,39.4,30.06,SW,219,0.0,0.0,98,0.00,,CLR,0.00,VWS V14.01,2014-03-09 11:32:00,
2014-03-09 07:33:00,39.9,39.4,30.05,SW,219,0.0,0.0,98,0.00,,CLR,0.00,VWS V14.01,2014-03-09 11:33:00,
2014-03-09 07:34:00,39.9,39.4,30.06,SW,219,0.0,0.0,98,0.00,,CLR,0.00,VWS V14.01,2014-03-09 11:34:00,
2014-03-09 07:35:00,39.9,39.4,30.06,SW,219,0.0,0.0,98,0.00,,CLR,0.00,VWS V14.01,2014-03-09 11:35:00,
2014-03-09 07:36:00,39.8,39.3,30.06,SW,219,0.0,0.0,98,0.00,,CLR,0.00,VWS V14.01,2014-03-09 11:36:00,
2014-03-09 07:37:00,39.8,39.3,30.06,SW,219,0.0,0.0,98,0.00,,CLR,0.00,VWS V14.01,2014-03-09 11:37:00,
2014-03-09 07:38:00,39.8,39.3,30.06,SW,219,0.0,0.0,98,0.00,,CLR,0.00,VWS V14.01,2014-03-09 11:38:00,
2014-03-09 07:39:00,39.8,39.3,30.06,SW,219,0.0,0.0,98,0.00,,CLR,0.00,VWS V14.01,2014-03-09 11:39:00,
2014-03-09 07:40:00,39.8,39.3,30.06,SW,219,0.0,0.0,98,0.00,,CLR,0.00,VWS V14.01,2014-03-09 11:40:00,
2014-03-09 07:41:00,39.7,38.9,30.06,SW,219,0.0,0.0,97,0.00,,CLR,0.00,VWS V14.01,2014-03-09 11:41:00,
2014-03-09 07:42:00,39.6,38.8,30.06,SW,219,0.0,0.0,97,0.00,,CLR,0.00,VWS V14.01,2014-03-09 11:42:00,
2014-03-09 07:43:00,39.7,38.9,30.06,SW,219,0.0,0.0,97,0.00,,CLR,0.00,VWS V14.01,2014-03-09 11:43:00,
2014-03-09 07:44:00,39.6,38.8,30.07,SW,219,0.0,0.0,97,0.00,,CLR,0.00,VWS V14.01,2014-03-09 11:44:00,
2014-03-09 07:45:00,39.6,38.8,30.07,SW,219,0.0,0.0,97,0.00,,CLR,0.00,VWS V14.01,2014-03-09 11:45:00,
2014-03-09 07:46:00,39.5,38.7,30.07,SW,219,0.0,0.0,97,0.00,,CLR,0.00,VWS V14.01,2014-03-09 11:46:00,
2014-03-09 07:47:00,39.5,38.7,30.07,SW,219,0.0,0.0,97,0.00,,CLR,0.00,VWS V14.01,2014-03-09 11:47:00,
2014-03-09 07:48:00,39.5,38.7,30.07,SW,219,0.0,0.0,97,0.00,,CLR,0.00,VWS V14.01,2014-03-09 11:48:00,
2014-03-09 07:49:00,39.5,38.7,30.07,SW,219,0.0,0.0,97,0.00,,CLR,0.00,VWS V14.01,2014-03-09 11:49:00,
2014-03-09 07:50:00,39.4,38.6,30.07,SW,219,0.0,0.0,97,0.00,,CLR,0.00,VWS V14.01,2014-03-09 11:50:00,
2014-03-09 07:51:00,39.4,38.6,30.07,SW,219,0.0,0.0,97,0.00,,CLR,0.00,VWS V14.01,2014-03-09 11:51:00,
2014-03-09 07:52:00,39.4,38.6,30.07,SW,219,0.0,1.0,97,0.00,,CLR,0.00,VWS V14.01,2014-03-09 11:52:00,
2014-03-09 07:53:00,39.4,38.6,30.07,SW,219,0.0,1.0,97,0.00,,CLR,0.00,VWS V14.01,2014-03-09 11:53:00,
2014-03-09 07:54:00,39.4,38.6,30.07,SW,223,2.0,2.0,97,0.00,,CLR,0.00,VWS V14.01,2014-03-09 11:54:00,
2014-03-09 07:55:00,39.4,38.6,30.07,SW,224,0.0,2.0,97,0.00,,CLR,0.00,VWS V14.01,2014-03-09 11:55:00,
2014-03-09 07:56:00,39.4,38.6,30.07,WSW,257,1.0,1.0,97,0.00,,CLR,0.00,VWS V14.01,2014-03-09 11:56:00,
2014-03-09 07:57:00,39.4,38.6,30.07,West,275,0.0,0.0,97,0.00,,CLR,0.00,VWS V14.01,2014-03-09 11:57:00,
2014-03-09 07:58:00,39.4,38.6,30.07,West,275,0.0,0.0,97,0.00,,CLR,0.00,VWS V14.01,2014-03-09 11:58:00,
2014-03-09 07:59:00,39.4,38.6,30.07,West,275,0.0,0.0,97,0.00,,,0.00,VWS V14.01,2014-03-09 11:59:00,
2014-03-09 08:00:00,39.4,38.6,30.08,West,275,0.0,0.0,97,0.00,,,0.00,VWS V14.01,2014-03-09 12:00:00,
2014-03-09 08:01:00,39.4,38.6,30.08,West,275,0.0,0.0,97,0.00,,,0.00,VWS V14.01,2014-03-09 12:01:00,
2014-03-09 08:02:00,39.5,38.7,30.07,West,275,0.0,0.0,97,0.00,,CLR,0.00,VWS V14.01,2014-03-09 12:02:00,
2014-03-09 08:03:00,39.5,38.7,30.08,West,275,0.0,0.0,97,0.00,,,0.00,VWS V14.01,2014-03-09 12:03:00,
2014-03-09 08:04:00,39.5,38.7,30.07,West,275,0.0,0.0,97,0.00,,,0.00,VWS V14.01,2014-03-09 12:04:00,
2014-03-09 08:05:00,39.5,38.7,30.07,West,275,0.0,0.0,97,0.00,,,0.00,VWS V14.01,2014-03-09 12:05:00,
2014-03-09 08:06:00,39.6,38.8,30.07,West,275,0.0,0.0,97,0.00,,,0.00,VWS V14.01,2014-03-09 12:06:00,
2014-03-09 08:07:00,39.7,38.9,30.07,West,275,0.0,0.0,97,0.00,,CLR,0.00,VWS V14.01,2014-03-09 12:07:00,
2014-03-09 08:08:00,39.6,38.8,30.07,West,275,0.0,0.0,97,0.00,,,0.00,VWS V14.01,2014-03-09 12:08:00,
2014-03-09 08:09:00,39.7,38.9,30.07,West,275,0.0,0.0,97,0.00,,,0.00,VWS V14.01,2014-03-09 12:09:00,
2014-03-09 08:10:00,39.7,38.9,30.07,West,275,0.0,0.0,97,0.00,,,0.00,VWS V14.01,2014-03-09 12:10:00,
2014-03-09 08:11:00,39.8,39.0,30.08,West,275,0.0,0.0,97,0.00,,,0.00,VWS V14.01,2014-03-09 12:11:00,
2014-03-09 08:12:00,39.9,39.4,30.08,West,275,0.0,0.0,98,0.00,,CLR,0.00,VWS V14.01,2014-03-09 12:12:00,
2014-03-09 08:13:00,39.9,39.4,30.08,West,275,0.0,0.0,98,0.00,,,0.00,VWS V14.01,2014-03-09 12:13:00,
2014-03-09 08:14:00,39.9,39.4,30.08,West,275,0.0,0.0,98,0.00,,,0.00,VWS V14.01,2014-03-09 12:14:00,
2014-03-09 08:15:00,39.9,39.4,30.08,West,275,0.0,0.0,98,0.00,,,0.00,VWS V14.01,2014-03-09 12:15:00,
2014-03-09 08:16:00,40.0,39.5,30.08,West,275,0.0,0.0,98,0.00,,,0.00,VWS V14.01,2014-03-09 12:16:00,
2014-03-09 08:17:00,40.1,39.6,30.08,West,275,0.0,0.0,98,0.00,,CLR,0.00,VWS V14.01,2014-03-09 12:17:00,
2014-03-09 08:18:00,40.1,39.6,30.08,West,275,0.0,0.0,98,0.00,,CLR,0.00,VWS V14.01,2014-03-09 12:18:00,
2014-03-09 08:19:00,40.2,39.7,30.08,West,275,0.0,0.0,98,0.00,,CLR,0.00,VWS V14.01,2014-03-09 12:19:00,
2014-03-09 08:20:00,40.2,39.7,30.08,West,275,0.0,0.0,98,0.00,,CLR,0.00,VWS V14.01,2014-03-09 12:20:00,
2014-03-09 08:21:00,40.3,39.8,30.08,West,275,0.0,0.0,98,0.00,,CLR,0.00,VWS V14.01,2014-03-09 12:21:00,
2014-03-09 08:22:00,40.4,39.9,30.08,North,0,0.0,0.0,98,0.00,,CLR,0.00,VWS V14.01,2014-03-09 12:22:00,
2014-03-09 08:23:00,40.4,39.9,30.08,West,270,0.0,1.0,98,0.00,,CLR,0.00,VWS V14.01,2014-03-09 12:23:00,
2014-03-09 08:24:00,40.5,40.0,30.08,West,270,0.0,0.0,98,0.00,,CLR,0.00,VWS V14.01,2014-03-09 12:24:00,
2014-03-09 08:25:00,40.6,40.1,30.08,West,270,0.0,0.0,98,0.00,,CLR,0.00,VWS V14.01,2014-03-09 12:25:00,
2014-03-09 08:26:00,40.6,40.1,30.08,West,270,0.0,0.0,98,0.00,,,0.00,VWS V14.01,2014-03-09 12:26:00,
2014-03-09 08:27:00,40.7,40.2,30.08,West,275,0.0,0.0,98,0.00,,CLR,0.00,VWS V14.01,2014-03-09 12:27:00,
2014-03-09 08:28:00,40.7,40.2,30.08,West,275,0.0,0.0,98,0.00,,CLR,0.00,VWS V14.01,2014-03-09 12:28:00,
2014-03-09 08:29:00,40.8,40.3,30.08,West,275,0.0,0.0,98,0.00,,CLR,0.00,VWS V14.01,2014-03-09 12:29:00,
2014-03-09 08:30:00,40.9,40.4,30.08,West,275,0.0,0.0,98,0.00,,CLR,0.00,VWS V14.01,2014-03-09 12:30:00,
2014-03-09 08:31:00,41.1,40.6,30.08,West,275,0.0,0.0,98,0.00,,CLR,0.00,VWS V14.01,2014-03-09 12:31:00,
2014-03-09 08:32:00,41.0,40.5,30.08,West,275,0.0,0.0,98,0.00,,CLR,0.00,VWS V14.01,2014-03-09 12:32:00,
2014-03-09 08:33:00,41.1,40.6,30.08,West,275,0.0,0.0,98,0.00,,CLR,0.00,VWS V14.01,2014-03-09 12:33:00,
2014-03-09 08:34:00,41.1,40.6,30.09,West,275,0.0,0.0,98,0.00,,CLR,0.00,VWS V14.01,2014-03-09 12:34:00,
2014-03-09 08:35:00,41.2,40.7,30.08,West,275,0.0,0.0,98,0.00,,CLR,0.00,VWS V14.01,2014-03-09 12:35:00,
2014-03-09 08:36:00,41.3,40.8,30.09,West,275,0.0,0.0,98,0.00,,CLR,0.00,VWS V14.01,2014-03-09 12:36:00,
2014-03-09 08:37:00,41.3,40.8,30.09,West,275,0.0,0.0,98,0.00,,CLR,0.00,VWS V14.01,2014-03-09 12:37:00,
2014-03-09 08:38:00,41.3,40.8,30.09,West,275,0.0,0.0,98,0.00,,CLR,0.00,VWS V14.01,2014-03-09 12:38:00,
2014-03-09 08:39:00,41.4,40.9,30.09,West,275,0.0,0.0,98,0.00,,CLR,0.00,VWS V14.01,2014-03-09 12:39:00,
2014-03-09 08:40:00,41.5,41.0,30.09,West,275,0.0,0.0,98,0.00,,CLR,0.00,VWS V14.01,2014-03-09 12:40:00,
2014-03-09 08:41:00,41.5,41.0,30.08,West,275,0.0,0.0,98,0.00,,CLR,0.00,VWS V14.01,2014-03-09 12:41:00,
2014-03-09 08:42:00,41.5,41.0,30.09,West,275,0.0,0.0,98,0.00,,CLR,0.00,VWS V14.01,2014-03-09 12:42:00,
2014-03-09 08:43:00,41.5,41.0,30.08,West,275,0.0,0.0,98,0.00,,CLR,0.00,VWS V14.01,2014-03-09 12:43:00,
2014-03-09 08:44:00,41.6,41.1,30.08,West,275,0.0,0.0,98,0.00,,CLR,0.00,VWS V14.01,2014-03-09 12:44:00,
2014-03-09 08:45:00,41.6,41.1,30.08,West,275,0.0,0.0,98,0.00,,CLR,0.00,VWS V14.01,2014-03-09 12:45:00,
2014-03-09 08:46:00,41.7,41.2,30.09,West,275,0.0,0.0,98,0.00,,SCT120,0.00,VWS V14.01,2014-03-09 12:46:00,
2014-03-09 08:47:00,41.7,41.2,30.09,West,275,0.0,0.0,98,0.00,,CLR,0.00,VWS V14.01,2014-03-09 12:47:00,
2014-03-09 08:48:00,41.7,41.2,30.09,West,275,0.0,0.0,98,0.00,,CLR,0.00,VWS V14.01,2014-03-09 12:48:00,
2014-03-09 08:49:00,41.7,41.2,30.09,West,275,0.0,0.0,98,0.00,,CLR,0.00,VWS V14.01,2014-03-09 12:49:00,
2014-03-09 08:50:00,41.8,41.3,30.09,West,275,0.0,0.0,98,0.00,,CLR,0.00,VWS V14.01,2014-03-09 12:50:00,
2014-03-09 08:51:00,41.9,41.4,30.09,West,275,0.0,0.0,98,0.00,,SCT120,0.00,VWS V14.01,2014-03-09 12:51:00,
2014-03-09 08:52:00,41.9,41.4,30.09,West,275,0.0,0.0,98,0.00,,CLR,0.00,VWS V14.01,2014-03-09 12:52:00,
2014-03-09 08:53:00,41.9,41.4,30.09,West,275,0.0,0.0,98,0.00,,CLR,0.00,VWS V14.01,2014-03-09 12:53:00,
2014-03-09 08:54:00,42.0,41.5,30.09,West,275,0.0,0.0,98,0.00,,CLR,0.00,VWS V14.01,2014-03-09 12:54:00,
2014-03-09 08:55:00,42.0,41.5,30.09,West,275,0.0,0.0,98,0.00,,CLR,0.00,VWS V14.01,2014-03-09 12:55:00,
2014-03-09 08:56:00,42.2,41.7,30.09,West,275,0.0,0.0,98,0.00,,SCT120,0.00,VWS V14.01,2014-03-09 12:56:00,
2014-03-09 08:57:00,42.1,41.6,30.09,West,275,0.0,0.0,98,0.00,,CLR,0.00,VWS V14.01,2014-03-09 12:57:00,
2014-03-09 08:58:00,42.2,41.7,30.09,West,275,0.0,0.0,98,0.00,,CLR,0.00,VWS V14.01,2014-03-09 12:58:00,
2014-03-09 08:59:00,42.2,41.7,30.09,West,275,0.0,0.0,98,0.00,,CLR,0.00,VWS V14.01,2014-03-09 12:59:00,
2014-03-09 09:00:00,42.3,41.8,30.09,West,275,0.0,0.0,98,0.00,,CLR,0.00,VWS V14.01,2014-03-09 13:00:00,
2014-03-09 09:01:00,42.3,41.8,30.09,West,275,0.0,0.0,98,0.00,,SCT120,0.00,VWS V14.01,2014-03-09 13:01:00,
2014-03-09 09:02:00,42.3,41.8,30.09,West,275,0.0,0.0,98,0.00,,CLR,0.00,VWS V14.01,2014-03-09 13:02:00,
2014-03-09 09:03:00,42.3,41.8,30.09,West,275,0.0,0.0,98,0.00,,CLR,0.00,VWS V14.01,2014-03-09 13:03:00,
2014-03-09 09:04:00,42.4,41.9,30.09,West,275,0.0,0.0,98,0.00,,CLR,0.00,VWS V14.01,2014-03-09 13:04:00,
2014-03-09 09:05:00,42.4,41.9,30.09,West,275,0.0,0.0,98,0.00,,CLR,0.00,VWS V14.01,2014-03-09 13:05:00,
2014-03-09 09:06:00,42.5,42.0,30.09,West,275,0.0,0.0,98,0.00,,BKN120,0.00,VWS V14.01,2014-03-09 13:06:00,
2014-03-09 09:07:00,42.4,41.9,30.09,West,275,0.0,0.0,98,0.00,,CLR,0.00,VWS V14.01,2014-03-09 13:07:00,
2014-03-09 09:08:00,42.5,42.0,30.09,West,275,0.0,0.0,98,0.00,,CLR,0.00,VWS V14.01,2014-03-09 13:08:00,
2014-03-09 09:09:00,42.5,42.0,30.09,West,275,0.0,0.0,98,0.00,,CLR,0.00,VWS V14.01,2014-03-09 13:09:00,
2014-03-09 09:10:00,42.5,42.0,30.09,West,275,0.0,0.0,98,0.00,,CLR,0.00,VWS V14.01,2014-03-09 13:10:00,
2014-03-09 09:11:00,42.6,42.1,30.10,West,275,0.0,0.0,98,0.00,,BKN120,0.00,VWS V14.01,2014-03-09 13:11:00,
2014-03-09 09:12:00,42.6,42.1,30.10,West,275,0.0,0.0,98,0.00,,CLR,0.00,VWS V14.01,2014-03-09 13:12:00,
2014-03-09 09:13:00,42.6,42.1,30.10,West,275,0.0,0.0,98,0.00,,CLR,0.00,VWS V14.01,2014-03-09 13:13:00,
2014-03-09 09:14:00,42.7,42.2,30.10,West,275,0.0,0.0,98,0.00,,CLR,0.00,VWS V14.01,2014-03-09 13:14:00,
2014-03-09 09:15:00,42.8,42.3,30.10,West,275,0.0,0.0,98,0.00,,CLR,0.00,VWS V14.01,2014-03-09 13:15:00,
2014-03-09 09:16:00,42.9,42.4,30.10,West,275,0.0,0.0,98,0.00,,BKN120,0.00,VWS V14.01,2014-03-09 13:16:00,
2014-03-09 09:17:00,42.9,42.4,30.10,West,275,0.0,0.0,98,0.00,,CLR,0.00,VWS V14.01,2014-03-09 13:17:00,
2014-03-09 09:18:00,42.9,42.4,30.10,West,275,0.0,0.0,98,0.00,,CLR,0.00,VWS V14.01,2014-03-09 13:18:00,
2014-03-09 09:19:00,42.9,42.4,30.10,West,275,0.0,0.0,98,0.00,,CLR,0.00,VWS V14.01,2014-03-09 13:19:00,
2014-03-09 09:20:00,42.9,42.4,30.10,West,275,0.0,0.0,98,0.00,,CLR,0.00,VWS V14.01,2014-03-09 13:20:00,
2014-03-09 09:21:00,43.0,42.5,30.10,West,275,0.0,0.0,98,0.00,,BKN120,0.00,VWS V14.01,2014-03-09 13:21:00,
2014-03-09 09:22:00,43.0,42.5,30.10,West,275,0.0,0.0,98,0.00,,CLR,0.00,VWS V14.01,2014-03-09 13:22:00,
2014-03-09 09:23:00,43.0,42.5,30.10,West,275,0.0,0.0,98,0.00,,CLR,0.00,VWS V14.01,2014-03-09 13:23:00,
2014-03-09 09:24:00,43.0,42.5,30.10,West,275,0.0,0.0,98,0.00,,CLR,0.00,VWS V14.01,2014-03-09 13:24:00,
2014-03-09 09:25:00,43.3,42.8,30.10,West,275,0.0,0.0,98,0.00,,SCT120,0.00,VWS V14.01,2014-03-09 13:25:00,
2014-03-09 09:26:00,43.1,42.6,30.10,West,275,0.0,0.0,98,0.00,,CLR,0.00,VWS V14.01,2014-03-09 13:26:00,
2014-03-09 09:27:00,43.2,42.7,30.10,West,275,0.0,0.0,98,0.00,,CLR,0.00,VWS V14.01,2014-03-09 13:27:00,
2014-03-09 09:28:00,43.3,42.8,30.10,West,275,0.0,0.0,98,0.00,,CLR,0.00,VWS V14.01,2014-03-09 13:28:00,
2014-03-09 09:29:00,43.4,42.9,30.11,West,275,0.0,0.0,98,0.00,,CLR,0.00,VWS V14.01,2014-03-09 13:29:00,
2014-03-09 09:30:00,43.8,43.3,30.11,West,275,0.0,0.0,98,0.00,,SCT120,0.00,VWS V14.01,2014-03-09 13:30:00,
2014-03-09 09:31:00,43.7,43.2,30.11,West,275,0.0,0.0,98,0.00,,CLR,0.00,VWS V14.01,2014-03-09 13:31:00,
2014-03-09 09:32:00,43.8,43.3,30.11,West,275,0.0,0.0,98,0.00,,CLR,0.00,VWS V14.01,2014-03-09 13:32:00,
2014-03-09 09:33:00,43.9,43.4,30.11,West,275,0.0,0.0,98,0.00,,CLR,0.00,VWS V14.01,2014-03-09 13:33:00,
2014-03-09 09:34:00,44.0,43.5,30.11,West,275,0.0,0.0,98,0.00,,CLR,0.00,VWS V14.01,2014-03-09 13:34:00,
2014-03-09 09:35:00,44.4,43.9,30.11,West,275,0.0,0.0,98,0.00,,SCT120,0.00,VWS V14.01,2014-03-09 13:35:00,
2014-03-09 09:36:00,44.2,43.7,30.11,West,275,0.0,0.0,98,0.00,,CLR,0.00,VWS V14.01,2014-03-09 13:36:00,
2014-03-09 09:37:00,44.3,43.8,30.11,West,275,0.0,0.0,98,0.00,,CLR,0.00,VWS V14.01,2014-03-09 13:37:00,
2014-03-09 09:38:00,44.5,44.0,30.11,West,275,0.0,0.0,98,0.00,,CLR,0.00,VWS V14.01,2014-03-09 13:38:00,
2014-03-09 09:39:00,44.6,44.1,30.10,West,275,0.0,0.0,98,0.00,,CLR,0.00,VWS V14.01,2014-03-09 13:39:00,
2014-03-09 09:40:00,45.1,44.6,30.10,West,275,0.0,0.0,98,0.00,,SCT120,0.00,VWS V14.01,2014-03-09 13:40:00,
2014-03-09 09:41:00,44.9,44.4,30.10,West,275,0.0,0.0,98,0.00,,CLR,0.00,VWS V14.01,2014-03-09 13:41:00,
2014-03-09 09:42:00,45.0,44.5,30.10,West,275,0.0,0.0,98,0.00,,CLR,0.00,VWS V14.01,2014-03-09 13:42:00,
2014-03-09 09:43:00,45.1,44.6,30.10,West,275,0.0,0.0,98,0.00,,CLR,0.00,VWS V14.01,2014-03-09 13:43:00,
2014-03-09 09:44:00,45.2,44.7,30.10,West,275,0.0,0.0,98,0.00,,CLR,0.00,VWS V14.01,2014-03-09 13:44:00,
2014-03-09 09:45:00,45.6,45.1,30.10,West,275,0.0,0.0,98,0.00,,CLR,0.00,VWS V14.01,2014-03-09 13:45:00,
2014-03-09 09:46:00,45.4,44.9,30.10,West,275,0.0,0.0,98,0.00,,CLR,0.00,VWS V14.01,2014-03-09 13:46:00,
2014-03-09 09:47:00,45.5,45.0,30.10,West,275,0.0,0.0,98,0.00,,CLR,0.00,VWS V14.01,2014-03-09 13:47:00,
2014-03-09 09:48:00,45.6,45.1,30.10,West,275,0.0,0.0,98,0.00,,CLR,0.00,VWS V14.01,2014-03-09 13:48:00,
2014-03-09 09:49:00,45.8,45.3,30.11,West,275,0.0,0.0,98,0.00,,CLR,0.00,VWS V14.01,2014-03-09 13:49:00,
2014-03-09 09:50:00,46.1,45.8,30.10,West,275,0.0,0.0,99,0.00,,CLR,0.00,VWS V14.01,2014-03-09 13:50:00,
2014-03-09 09:51:00,45.9,45.4,30.11,West,275,0.0,0.0,98,0.00,,CLR,0.00,VWS V14.01,2014-03-09 13:51:00,
2014-03-09 09:52:00,46.1,45.8,30.11,West,275,0.0,0.0,99,0.00,,CLR,0.00,VWS V14.01,2014-03-09 13:52:00,
2014-03-09 09:53:00,46.1,45.8,30.10,West,275,0.0,0.0,99,0.00,,CLR,0.00,VWS V14.01,2014-03-09 13:53:00,
2014-03-09 09:54:00,46.3,46.0,30.10,West,275,0.0,0.0,99,0.00,,CLR,0.00,VWS V14.01,2014-03-09 13:54:00,
2014-03-09 09:55:00,46.4,45.9,30.10,West,275,0.0,0.0,98,0.00,,CLR,0.00,VWS V14.01,2014-03-09 13:55:00,
2014-03-09 09:56:00,46.7,46.4,30.10,West,275,0.0,0.0,99,0.00,,CLR,0.00,VWS V14.01,2014-03-09 13:56:00,
2014-03-09 09:57:00,46.6,46.1,30.10,West,275,0.0,0.0,98,0.00,,CLR,0.00,VWS V14.01,2014-03-09 13:57:00,
2014-03-09 09:58:00,46.7,46.4,30.10,West,275,0.0,0.0,99,0.00,,CLR,0.00,VWS V14.01,2014-03-09 13:58:00,
2014-03-09 09:59:00,46.8,46.5,30.10,West,275,0.0,0.0,99,0.00,,CLR,0.00,VWS V14.01,2014-03-09 13:59:00,
2014-03-09 10:00:00,46.9,46.6,30.10,West,275,0.0,0.0,99,0.00,,CLR,0.00,VWS V14.01,2014-03-09 14:00:00,
2014-03-09 10:01:00,47.1,46.6,30.10,West,275,0.0,0.0,98,0.00,,CLR,0.00,VWS V14.01,2014-03-09 14:01:00,
2014-03-09 10:02:00,47.0,46.5,30.10,West,275,0.0,0.0,98,0.00,,CLR,0.00,VWS V14.01,2014-03-09 14:02:00,
2014-03-09 10:03:00,47.1,46.6,30.10,West,275,0.0,0.0,98,0.00,,CLR,0.00,VWS V14.01,2014-03-09 14:03:00,
2014-03-09 10:04:00,47.2,46.9,30.10,West,275,0.0,0.0,99,0.00,,CLR,0.00,VWS V14.01,2014-03-09 14:04:00,
2014-03-09 10:05:00,47.4,47.1,30.10,West,275,0.0,0.0,99,0.00,,CLR,0.00,VWS V14.01,2014-03-09 14:05:00,
2014-03-09 10:06:00,47.3,47.0,30.10,West,275,0.0,0.0,99,0.00,,CLR,0.00,VWS V14.01,2014-03-09 14:06:00,
2014-03-09 10:07:00,47.3,47.0,30.10,West,275,0.0,0.0,99,0.00,,CLR,0.00,VWS V14.01,2014-03-09 14:07:00,
2014-03-09 10:08:00,47.4,47.1,30.10,West,275,0.0,1.0,99,0.00,,CLR,0.00,VWS V14.01,2014-03-09 14:08:00,
2014-03-09 10:09:00,47.5,47.0,30.10,West,275,0.0,1.0,98,0.00,,CLR,0.00,VWS V14.01,2014-03-09 14:09:00,
2014-03-09 10:10:00,47.7,47.2,30.10,West,275,0.0,0.0,98,0.00,,CLR,0.00,VWS V14.01,2014-03-09 14:10:00,
2014-03-09 10:11:00,47.6,47.1,30.10,West,275,0.0,1.0,98,0.00,,CLR,0.00,VWS V14.01,2014-03-09 14:11:00,
2014-03-09 10:12:00,47.6,47.1,30.10,West,275,0.0,0.0,98,0.00,,CLR,0.00,VWS V14.01,2014-03-09 14:12:00,
2014-03-09 10:13:00,47.7,47.2,30.10,West,275,0.0,0.0,98,0.00,,CLR,0.00,VWS V14.01,2014-03-09 14:13:00,
2014-03-09 10:14:00,47.8,47.5,30.10,West,275,0.0,0.0,99,0.00,,CLR,0.00,VWS V14.01,2014-03-09 14:14:00,
2014-03-09 10:15:00,48.2,47.7,30.09,West,275,0.0,0.0,98,0.00,,CLR,0.00,VWS V14.01,2014-03-09 14:15:00,
2014-03-09 10:16:00,48.0,47.5,30.10,West,275,0.0,0.0,98,0.00,,CLR,0.00,VWS V14.01,2014-03-09 14:16:00,
2014-03-09 10:17:00,48.1,47.6,30.10,West,275,0.0,0.0,98,0.00,,CLR,0.00,VWS V14.01,2014-03-09 14:17:00,
2014-03-09 10:18:00,48.2,47.7,30.09,West,275,0.0,0.0,98,0.00,,CLR,0.00,VWS V14.01,2014-03-09 14:18:00,
2014-03-09 10:19:00,48.3,47.8,30.09,West,275,0.0,0.0,98,0.00,,CLR,0.00,VWS V14.01,2014-03-09 14:19:00,
2014-03-09 10:20:00,48.6,47.5,30.09,West,275,0.0,0.0,96,0.00,,CLR,0.00,VWS V14.01,2014-03-09 14:20:00,
2014-03-09 10:21:00,48.5,47.7,30.09,West,275,0.0,1.0,97,0.00,,CLR,0.00,VWS V14.01,2014-03-09 14:21:00,
2014-03-09 10:22:00,48.5,47.4,30.09,West,275,0.0,0.0,96,0.00,,CLR,0.00,VWS V14.01,2014-03-09 14:22:00,
2014-03-09 10:23:00,48.6,47.5,30.09,West,275,0.0,0.0,96,0.00,,CLR,0.00,VWS V14.01,2014-03-09 14:23:00,
2014-03-09 10:24:00,48.7,47.3,30.09,West,275,0.0,0.0,95,0.00,,CLR,0.00,VWS V14.01,2014-03-09 14:24:00,
2014-03-09 10:25:00,49.0,47.1,30.10,West,275,0.0,0.0,93,0.00,,CLR,0.00,VWS V14.01,2014-03-09 14:25:00,
2014-03-09 10:26:00,48.8,47.2,30.09,West,275,0.0,0.0,94,0.00,,CLR,0.00,VWS V14.01,2014-03-09 14:26:00,
2014-03-09 10:27:00,49.0,47.1,30.10,West,275,0.0,0.0,93,0.00,,CLR,0.00,VWS V14.01,2014-03-09 14:27:00,
2014-03-09 10:28:00,49.0,47.1,30.10,West,275,0.0,0.0,93,0.00,,CLR,0.00,VWS V14.01,2014-03-09 14:28:00,
2014-03-09 10:29:00,49.2,47.0,30.10,West,275,0.0,0.0,92,0.00,,CLR,0.00,VWS V14.01,2014-03-09 14:29:00,
2014-03-09 10:30:00,49.5,46.7,30.10,West,275,0.0,0.0,90,0.00,,CLR,0.00,VWS V14.01,2014-03-09 14:30:00,
2014-03-09 10:31:00,49.4,47.2,30.09,West,275,0.0,0.0,92,0.00,,CLR,0.00,VWS V14.01,2014-03-09 14:31:00,
2014-03-09 10:32:00,49.4,46.9,30.09,West,275,0.0,0.0,91,0.00,,CLR,0.00,VWS V14.01,2014-03-09 14:32:00,
2014-03-09 10:33:00,49.6,46.8,30.10,West,275,0.0,0.0,90,0.00,,CLR,0.00,VWS V14.01,2014-03-09 14:33:00,
2014-03-09 10:34:00,49.7,46.9,30.10,West,275,0.0,0.0,90,0.00,,CLR,0.00,VWS V14.01,2014-03-09 14:34:00,
2014-03-09 10:35:00,50.5,47.7,30.10,West,275,0.0,0.0,90,0.00,,CLR,0.00,VWS V14.01,2014-03-09 14:35:00,
2014-03-09 10:36:00,50.1,47.6,30.10,West,275,0.0,0.0,91,0.00,,CLR,0.00,VWS V14.01,2014-03-09 14:36:00,
2014-03-09 10:37:00,50.4,47.9,30.10,West,275,0.0,0.0,91,0.00,,CLR,0.00,VWS V14.01,2014-03-09 14:37:00,
2014-03-09 10:38:00,50.6,47.8,30.10,West,275,0.0,0.0,90,0.00,,CLR,0.00,VWS V14.01,2014-03-09 14:38:00,
2014-03-09 10:39:00,50.8,47.7,30.10,West,275,0.0,0.0,89,0.00,,CLR,0.00,VWS V14.01,2014-03-09 14:39:00,
2014-03-09 10:40:00,51.1,48.0,30.10,West,275,0.0,0.0,89,0.00,,CLR,0.00,VWS V14.01,2014-03-09 14:40:00,
2014-03-09 10:41:00,51.8,48.7,30.10,West,275,0.0,0.0,89,0.00,,CLR,0.00,VWS V14.01,2014-03-09 14:41:00,
2014-03-09 10:42:00,51.7,48.6,30.11,West,275,0.0,0.0,89,0.00,,CLR,0.00,VWS V14.01,2014-03-09 14:42:00,
2014-03-09 10:43:00,52.0,48.9,30.10,West,275,0.0,0.0,89,0.00,,CLR,0.00,VWS V14.01,2014-03-09 14:43:00,
2014-03-09 10:44:00,52.3,49.2,30.10,West,275,0.0,0.0,89,0.00,,CLR,0.00,VWS V14.01,2014-03-09 14:44:00,
2014-03-09 10:45:00,52.5,48.4,30.11,West,275,0.0,0.0,86,0.00,,CLR,0.00,VWS V14.01,2014-03-09 14:45:00,
2014-03-09 10:46:00,53.5,48.2,30.10,West,274,0.0,1.0,82,0.00,,CLR,0.00,VWS V14.01,2014-03-09 14:46:00,
2014-03-09 10:47:00,53.2,48.8,30.11,West,275,0.0,1.0,85,0.00,,CLR,0.00,VWS V14.01,2014-03-09 14:47:00,
2014-03-09 10:48:00,53.6,48.2,30.10,WNW,284,1.0,2.0,82,0.00,,CLR,0.00,VWS V14.01,2014-03-09 14:48:00,
2014-03-09 10:49:00,54.0,47.6,30.11,WNW,284,1.0,1.0,79,0.00,,CLR,0.00,VWS V14.01,2014-03-09 14:49:00,
2014-03-09 10:50:00,54.6,48.2,30.11,NE,35,1.0,2.0,79,0.00,,CLR,0.00,VWS V14.01,2014-03-09 14:50:00,
2014-03-09 10:51:00,55.7,47.5,30.11,ENE,67,0.0,0.0,74,0.00,,CLR,0.00,VWS V14.01,2014-03-09 14:51:00,
2014-03-09 10:52:00,55.4,47.3,30.11,ENE,67,0.0,1.0,74,0.00,,CLR,0.00,VWS V14.01,2014-03-09 14:52:00,
2014-03-09 10:53:00,55.8,47.7,30.11,ENE,67,1.0,1.0,74,0.00,,CLR,0.00,VWS V14.01,2014-03-09 14:53:00,
2014-03-09 10:54:00,56.2,48.4,30.10,ENE,67,0.0,1.0,75,0.00,,CLR,0.00,VWS V14.01,2014-03-09 14:54:00,
2014-03-09 10:55:00,56.6,48.4,30.11,ENE,67,0.0,0.0,74,0.00,,CLR,0.00,VWS V14.01,2014-03-09 14:55:00,
2014-03-09 10:56:00,57.3,47.6,30.11,North,5,1.0,1.0,70,0.00,,CLR,0.00,VWS V14.01,2014-03-09 14:56:00,
2014-03-09 10:57:00,57.1,47.4,30.11,NNE,19,1.0,1.0,70,0.00,,CLR,0.00,VWS V14.01,2014-03-09 14:57:00,
2014-03-09 10:58:00,57.4,47.3,30.11,NNW,329,2.0,2.0,69,0.00,,CLR,0.00,VWS V14.01,2014-03-09 14:58:00,
2014-03-09 10:59:00,57.6,45.5,30.11,NW,311,0.0,5.0,64,0.00,,CLR,0.00,VWS V14.01,2014-03-09 14:59:00,
2014-03-09 11:00:00,57.9,45.4,30.11,North,350,0.0,4.0,63,0.00,,CLR,0.00,VWS V14.01,2014-03-09 15:00:00,
2014-03-09 11:01:00,58.3,46.2,30.11,WNW,299,0.0,1.0,64,0.00,,CLR,0.00,VWS V14.01,2014-03-09 15:01:00,
2014-03-09 11:02:00,58.2,45.3,30.11,WNW,297,0.0,1.0,62,0.00,,CLR,0.00,VWS V14.01,2014-03-09 15:02:00,
2014-03-09 11:03:00,58.4,45.9,30.11,WNW,292,0.0,1.0,63,0.00,,CLR,0.00,VWS V14.01,2014-03-09 15:03:00,
2014-03-09 11:04:00,58.4,45.5,30.11,NW,311,0.0,2.0,62,0.00,,CLR,0.00,VWS V14.01,2014-03-09 15:04:00,
2014-03-09 11:05:00,58.5,45.1,30.11,NW,312,0.0,1.0,61,0.00,,CLR,0.00,VWS V14.01,2014-03-09 15:05:00,
2014-03-09 11:06:00,58.7,44.9,30.11,NW,306,1.0,2.0,60,0.00,,CLR,0.00,VWS V14.01,2014-03-09 15:06:00,
2014-03-09 11:07:00,58.7,45.7,30.11,WNW,302,2.0,2.0,62,0.00,,CLR,0.00,VWS V14.01,2014-03-09 15:07:00,
2014-03-09 11:08:00,58.7,44.9,30.11,North,360,1.0,2.0,60,0.00,,CLR,0.00,VWS V14.01,2014-03-09 15:08:00,
2014-03-09 11:09:00,58.8,44.5,30.11,NNW,347,2.0,2.0,59,0.00,,CLR,0.00,VWS V14.01,2014-03-09 15:09:00,
2014-03-09 11:10:00,58.9,44.6,30.11,NNE,23,1.0,2.0,59,0.00,,CLR,0.00,VWS V14.01,2014-03-09 15:10:00,
2014-03-09 11:11:00,58.9,44.2,30.11,NW,309,1.0,2.0,58,0.00,,CLR,0.00,VWS V14.01,2014-03-09 15:11:00,
2014-03-09 11:12:00,58.9,43.7,30.11,NW,309,2.0,2.0,57,0.00,,CLR,0.00,VWS V14.01,2014-03-09 15:12:00,
2014-03-09 11:13:00,58.9,44.2,30.11,NNW,345,2.0,4.0,58,0.00,,CLR,0.00,VWS V14.01,2014-03-09 15:13:00,
2014-03-09 11:14:00,59.0,43.8,30.10,North,355,4.0,4.0,57,0.00,,CLR,0.00,VWS V14.01,2014-03-09 15:14:00,
2014-03-09 11:15:00,59.0,43.8,30.10,NW,312,2.0,4.0,57,0.00,,CLR,0.00,VWS V14.01,2014-03-09 15:15:00,
2014-03-09 11:16:00,58.9,43.7,30.11,NNW,332,0.0,1.0,57,0.00,,CLR,0.00,VWS V14.01,2014-03-09 15:16:00,
2014-03-09 11:17:00,58.9,43.7,30.11,NNW,332,1.0,1.0,57,0.00,,CLR,0.00,VWS V14.01,2014-03-09 15:17:00,
2014-03-09 11:18:00,58.9,43.7,30.11,NNW,332,0.0,1.0,57,0.00,,CLR,0.00,VWS V14.01,2014-03-09 15:18:00,
2014-03-09 11:19:00,59.0,43.8,30.11,NNW,334,2.0,5.0,57,0.00,,CLR,0.00,VWS V14.01,2014-03-09 15:19:00,
2014-03-09 11:20:00,59.0,43.8,30.11,SSW,202,2.0,4.0,57,0.00,,CLR,0.00,VWS V14.01,2014-03-09 15:20:00,
2014-03-09 11:21:00,59.2,44.0,30.11,North,360,1.0,1.0,57,0.00,,CLR,0.00,VWS V14.01,2014-03-09 15:21:00,
2014-03-09 11:22:00,59.1,43.4,30.11,North,360,1.0,5.0,56,0.00,,CLR,0.00,VWS V14.01,2014-03-09 15:22:00,
2014-03-09 11:23:00,59.2,44.0,30.11,West,269,3.0,3.0,57,0.00,,CLR,0.00,VWS V14.01,2014-03-09 15:23:00,
2014-03-09 11:24:00,59.3,44.5,30.11,West,269,0.0,3.0,58,0.00,,CLR,0.00,VWS V14.01,2014-03-09 15:24:00,
2014-03-09 11:25:00,59.4,45.1,30.11,NNW,348,2.0,2.0,59,0.00,,CLR,0.00,VWS V14.01,2014-03-09 15:25:00,
2014-03-09 11:26:00,59.8,43.6,30.11,NNE,15,2.0,2.0,55,0.00,,CLR,0.00,VWS V14.01,2014-03-09 15:26:00,
2014-03-09 11:27:00,59.6,43.4,30.11,NNE,19,0.0,2.0,55,0.00,,CLR,0.00,VWS V14.01,2014-03-09 15:27:00,
2014-03-09 11:28:00,59.8,44.1,30.11,NNE,13,1.0,2.0,56,0.00,,CLR,0.00,VWS V14.01,2014-03-09 15:28:00,
2014-03-09 11:29:00,59.9,44.2,30.11,NNE,26,2.0,3.0,56,0.00,,CLR,0.00,VWS V14.01,2014-03-09 15:29:00,
2014-03-09 11:30:00,60.0,43.8,30.11,WNW,303,0.0,6.0,55,0.00,,CLR,0.00,VWS V14.01,2014-03-09 15:30:00,
2014-03-09 11:31:00,60.3,45.0,30.11,WNW,292,3.0,5.0,57,0.00,,CLR,0.00,VWS V14.01,2014-03-09 15:31:00,
2014-03-09 11:32:00,60.3,45.0,30.10,West,259,0.0,1.0,57,0.00,,CLR,0.00,VWS V14.01,2014-03-09 15:32:00,
2014-03-09 11:33:00,60.4,44.2,30.11,West,275,2.0,5.0,55,0.00,,CLR,0.00,VWS V14.01,2014-03-09 15:33:00,
2014-03-09 11:34:00,60.5,44.3,30.10,West,279,0.0,2.0,55,0.00,,CLR,0.00,VWS V14.01,2014-03-09 15:34:00,
2014-03-09 11:35:00,60.5,44.3,30.10,West,279,2.0,3.0,55,0.00,,CLR,0.00,VWS V14.01,2014-03-09 15:35:00,
2014-03-09 11:36:00,60.8,44.5,30.10,West,272,0.0,2.0,55,0.00,,CLR,0.00,VWS V14.01,2014-03-09 15:36:00,
2014-03-09 11:37:00,60.8,45.0,30.10,West,278,1.0,4.0,56,0.00,,CLR,0.00,VWS V14.01,2014-03-09 15:37:00,
2014-03-09 11:38:00,60.9,44.6,30.10,West,272,0.0,2.0,55,0.00,,CLR,0.00,VWS V14.01,2014-03-09 15:38:00,
2014-03-09 11:39:00,60.9,44.2,30.10,West,260,1.0,3.0,54,0.00,,CLR,0.00,VWS V14.01,2014-03-09 15:39:00,
2014-03-09 11:40:00,61.1,44.8,30.10,NW,306,2.0,2.0,55,0.00,,CLR,0.00,VWS V14.01,2014-03-09 15:40:00,
2014-03-09 11:41:00,61.2,44.0,30.10,NW,311,0.0,0.0,53,0.00,,CLR,0.00,VWS V14.01,2014-03-09 15:41:00,
2014-03-09 11:42:00,61.2,44.4,30.10,NW,311,0.0,2.0,54,0.00,,CLR,0.00,VWS V14.01,2014-03-09 15:42:00,
2014-03-09 11:43:00,61.3,44.0,30.10,SSE,149,2.0,2.0,53,0.00,,CLR,0.00,VWS V14.01,2014-03-09 15:43:00,
2014-03-09 11:44:00,61.4,45.1,30.10,South,175,0.0,3.0,55,0.00,,CLR,0.00,VWS V14.01,2014-03-09 15:44:00,
2014-03-09 11:45:00,61.5,44.7,30.10,ESE,116,1.0,2.0,54,0.00,,CLR,0.00,VWS V14.01,2014-03-09 15:45:00,
2014-03-09 11:46:00,61.9,43.6,30.10,ENE,74,0.0,2.0,51,0.00,,CLR,0.00,VWS V14.01,2014-03-09 15:46:00,
2014-03-09 11:47:00,61.8,44.5,30.10,ENE,74,2.0,2.0,53,0.00,,CLR,0.00,VWS V14.01,2014-03-09 15:47:00,
2014-03-09 11:48:00,62.0,43.7,30.10,ENE,74,0.0,2.0,51,0.00,,CLR,0.00,VWS V14.01,2014-03-09 15:48:00,
2014-03-09 11:49:00,62.1,44.8,30.10,WSW,254,1.0,1.0,53,0.00,,CLR,0.00,VWS V14.01,2014-03-09 15:49:00,
2014-03-09 11:50:00,62.2,44.4,30.10,ENE,63,0.0,2.0,52,0.00,,CLR,0.00,VWS V14.01,2014-03-09 15:50:00,
2014-03-09 11:51:00,62.6,44.2,30.10,East,98,1.0,1.0,51,0.00,,CLR,0.00,VWS V14.01,2014-03-09 15:51:00,
2014-03-09 11:52:00,62.5,44.2,30.10,East,98,0.0,2.0,51,0.00,,CLR,0.00,VWS V14.01,2014-03-09 15:52:00,
2014-03-09 11:53:00,62.6,44.2,30.10,East,98,1.0,2.0,51,0.00,,CLR,0.00,VWS V14.01,2014-03-09 15:53:00,
2014-03-09 11:54:00,62.7,43.8,30.10,East,98,0.0,2.0,50,0.00,,CLR,0.00,VWS V14.01,2014-03-09 15:54:00,
2014-03-09 11:55:00,62.9,44.5,30.10,ESE,111,0.0,1.0,51,0.00,,CLR,0.00,VWS V14.01,2014-03-09 15:55:00,
2014-03-09 11:56:00,63.1,45.2,30.10,NNE,15,0.0,0.0,52,0.00,,CLR,0.00,VWS V14.01,2014-03-09 15:56:00,
2014-03-09 11:57:00,63.0,45.1,30.10,NNE,15,0.0,3.0,52,0.00,,CLR,0.00,VWS V14.01,2014-03-09 15:57:00,
2014-03-09 11:58:00,63.2,45.3,30.10,NNE,15,1.0,1.0,52,0.00,,CLR,0.00,VWS V14.01,2014-03-09 15:58:00,
2014-03-09 11:59:00,63.3,45.9,30.10,SE,134,2.0,2.0,53,0.00,,CLR,0.00,VWS V14.01,2014-03-09 15:59:00,
2014-03-09 12:00:00,63.5,44.0,30.10,North,350,0.0,5.0,49,0.00,,CLR,0.00,VWS V14.01,2014-03-09 16:00:00,
2014-03-09 12:01:00,63.7,44.7,30.10,NNW,333,1.0,1.0,50,0.00,,CLR,0.00,VWS V14.01,2014-03-09 16:01:00,
2014-03-09 12:02:00,63.7,44.7,30.10,NNW,333,0.0,3.0,50,0.00,,CLR,0.00,VWS V14.01,2014-03-09 16:02:00,
2014-03-09 12:03:00,63.7,44.2,30.10,NNW,348,2.0,3.0,49,0.00,,CLR,0.00,VWS V14.01,2014-03-09 16:03:00,
2014-03-09 12:04:00,63.8,44.3,30.10,NNW,347,2.0,2.0,49,0.00,,CLR,0.00,VWS V14.01,2014-03-09 16:04:00,
2014-03-09 12:05:00,63.9,44.4,30.10,NNW,347,1.0,3.0,49,0.00,,CLR,0.00,VWS V14.01,2014-03-09 16:05:00,
2014-03-09 12:06:00,64.0,43.9,30.10,NNW,347,0.0,0.0,48,0.00,,CLR,0.00,VWS V14.01,2014-03-09 16:06:00,
2014-03-09 12:07:00,64.0,43.9,30.10,NNW,347,0.0,1.0,48,0.00,,CLR,0.00,VWS V14.01,2014-03-09 16:07:00,
2014-03-09 12:08:00,64.1,44.6,30.10,NNW,347,0.0,1.0,49,0.00,,CLR,0.00,VWS V14.01,2014-03-09 16:08:00,
2014-03-09 12:09:00,64.1,44.0,30.10,SW,229,0.0,2.0,48,0.00,,CLR,0.00,VWS V14.01,2014-03-09 16:09:00,
2014-03-09 12:10:00,64.2,44.7,30.10,SSE,161,1.0,2.0,49,0.00,,CLR,0.00,VWS V14.01,2014-03-09 16:10:00,
2014-03-09 12:11:00,64.4,43.8,30.10,NW,325,0.0,2.0,47,0.00,,CLR,0.00,VWS V14.01,2014-03-09 16:11:00,
2014-03-09 12:12:00,64.4,44.8,30.10,NNW,328,2.0,5.0,49,0.00,,CLR,0.00,VWS V14.01,2014-03-09 16:12:00,
2014-03-09 12:13:00,64.5,43.3,30.10,NNW,345,1.0,2.0,46,0.00,,CLR,0.00,VWS V14.01,2014-03-09 16:13:00,
2014-03-09 12:14:00,64.5,43.3,30.10,NNW,344,3.0,3.0,46,0.00,,CLR,0.00,VWS V14.01,2014-03-09 16:14:00,
2014-03-09 12:15:00,64.5,43.3,30.10,SW,232,2.0,4.0,46,0.00,,CLR,0.00,VWS V14.01,2014-03-09 16:15:00,
2014-03-09 12:16:00,64.6,43.9,30.10,NW,310,2.0,2.0,47,0.00,,CLR,0.00,VWS V14.01,2014-03-09 16:16:00,
2014-03-09 12:17:00,64.6,43.4,30.10,NW,310,0.0,1.0,46,0.00,,CLR,0.00,VWS V14.01,2014-03-09 16:17:00,
2014-03-09 12:18:00,64.6,43.9,30.10,NW,311,1.0,3.0,47,0.00,,CLR,0.00,VWS V14.01,2014-03-09 16:18:00,
2014-03-09 12:19:00,64.7,44.0,30.10,NNE,25,2.0,3.0,47,0.00,,CLR,0.00,VWS V14.01,2014-03-09 16:19:00,
2014-03-09 12:20:00,64.7,42.9,30.10,NNW,344,2.0,3.0,45,0.00,,CLR,0.00,VWS V14.01,2014-03-09 16:20:00,
2014-03-09 12:21:00,64.8,43.0,30.10,North,5,1.0,5.0,45,0.00,,CLR,0.00,VWS V14.01,2014-03-09 16:21:00,
2014-03-09 12:22:00,64.8,43.0,30.10,North,5,3.0,4.0,45,0.00,,CLR,0.00,VWS V14.01,2014-03-09 16:22:00,
2014-03-09 12:23:00,64.7,42.9,30.10,North,355,3.0,5.0,45,0.00,,CLR,0.00,VWS V14.01,2014-03-09 16:23:00,
2014-03-09 12:24:00,64.7,42.9,30.10,NNW,342,0.0,4.0,45,0.00,,CLR,0.00,VWS V14.01,2014-03-09 16:24:00,
2014-03-09 12:25:00,64.7,43.5,30.10,NW,312,2.0,2.0,46,0.00,,CLR,0.00,VWS V14.01,2014-03-09 16:25:00,
2014-03-09 12:26:00,64.6,43.4,30.10,West,268,1.0,5.0,46,0.00,,CLR,0.00,VWS V14.01,2014-03-09 16:26:00,
2014-03-09 12:27:00,64.6,42.8,30.10,West,280,0.0,1.0,45,0.00,,CLR,0.00,VWS V14.01,2014-03-09 16:27:00,
2014-03-09 12:28:00,64.6,43.4,30.10,West,266,1.0,5.0,46,0.00,,CLR,0.00,VWS V14.01,2014-03-09 16:28:00,
2014-03-09 12:29:00,64.6,43.4,30.10,SW,221,0.0,3.0,46,0.00,,CLR,0.00,VWS V14.01,2014-03-09 16:29:00,
2014-03-09 12:30:00,64.6,42.8,30.10,SW,221,0.0,0.0,45,0.00,,CLR,0.00,VWS V14.01,2014-03-09 16:30:00,
2014-03-09 12:31:00,64.6,43.9,30.10,WNW,296,1.0,1.0,47,0.00,,CLR,0.00,VWS V14.01,2014-03-09 16:31:00,
2014-03-09 12:32:00,64.6,43.9,30.10,WSW,242,1.0,1.0,47,0.00,,CLR,0.00,VWS V14.01,2014-03-09 16:32:00,
2014-03-09 12:33:00,64.7,44.0,30.10,NE,53,3.0,4.0,47,0.00,,CLR,0.00,VWS V14.01,2014-03-09 16:33:00,
2014-03-09 12:34:00,64.7,44.0,30.10,NNW,331,1.0,3.0,47,0.00,,CLR,0.00,VWS V14.01,2014-03-09 16:34:00,
2014-03-09 12:35:00,64.7,42.9,30.10,West,279,7.0,7.0,45,0.00,,CLR,0.00,VWS V14.01,2014-03-09 16:35:00,
2014-03-09 12:36:00,64.7,42.9,30.10,NW,307,0.0,2.0,45,0.00,,CLR,0.00,VWS V14.01,2014-03-09 16:36:00,
2014-03-09 12:37:00,64.7,42.9,30.10,NNW,327,1.0,3.0,45,0.00,,CLR,0.00,VWS V14.01,2014-03-09 16:37:00,
2014-03-09 12:38:00,64.7,43.5,30.10,WNW,294,1.0,2.0,46,0.00,,CLR,0.00,VWS V14.01,2014-03-09 16:38:00,
2014-03-09 12:39:00,64.8,43.6,30.10,South,171,2.0,2.0,46,0.00,,CLR,0.00,VWS V14.01,2014-03-09 16:39:00,
2014-03-09 12:40:00,64.9,43.1,30.10,WSW,238,1.0,3.0,45,0.00,,CLR,0.00,VWS V14.01,2014-03-09 16:40:00,
2014-03-09 12:41:00,65.0,43.2,30.10,WNW,293,1.0,5.0,45,0.00,,CLR,0.00,VWS V14.01,2014-03-09 16:41:00,
2014-03-09 12:42:00,65.0,43.2,30.10,WSW,246,4.0,4.0,45,0.00,,CLR,0.00,VWS V14.01,2014-03-09 16:42:00,
2014-03-09 12:43:00,65.1,43.8,30.10,WNW,298,0.0,5.0,46,0.00,,CLR,0.00,VWS V14.01,2014-03-09 16:43:00,
2014-03-09 12:44:00,65.2,43.3,30.10,WNW,303,2.0,6.0,45,0.00,,CLR,0.00,VWS V14.01,2014-03-09 16:44:00,
2014-03-09 12:45:00,65.1,42.1,30.10,West,278,2.0,9.0,43,0.00,,CLR,0.00,VWS V14.01,2014-03-09 16:45:00,
2014-03-09 12:46:00,65.0,42.6,30.09,WNW,283,3.0,4.0,44,0.00,,CLR,0.00,VWS V14.01,2014-03-09 16:46:00,
2014-03-09 12:47:00,65.0,42.6,30.09,WNW,298,4.0,4.0,44,0.00,,CLR,0.00,VWS V14.01,2014-03-09 16:47:00,
2014-03-09 12:48:00,65.0,42.6,30.09,WNW,301,3.0,4.0,44,0.00,,CLR,0.00,VWS V14.01,2014-03-09 16:48:00,
2014-03-09 12:49:00,65.0,42.0,30.09,West,269,5.0,7.0,43,0.00,,CLR,0.00,VWS V14.01,2014-03-09 16:49:00,
2014-03-09 12:50:00,64.9,41.9,30.09,West,275,0.0,5.0,43,0.00,,CLR,0.00,VWS V14.01,2014-03-09 16:50:00,
2014-03-09 12:51:00,64.7,41.7,30.09,WNW,289,1.0,4.0,43,0.00,,CLR,0.00,VWS V14.01,2014-03-09 16:51:00,
2014-03-09 12:52:00,64.8,41.8,30.09,West,259,2.0,6.0,43,0.00,,CLR,0.00,VWS V14.01,2014-03-09 16:52:00,
2014-03-09 12:53:00,64.7,41.7,30.09,West,273,3.0,4.0,43,0.00,,CLR,0.00,VWS V14.01,2014-03-09 16:53:00,
2014-03-09 12:54:00,64.6,42.2,30.09,WNW,295,0.0,5.0,44,0.00,,CLR,0.00,VWS V14.01,2014-03-09 16:54:00,
2014-03-09 12:55:00,64.6,42.2,30.09,WNW,290,2.0,4.0,44,0.00,,CLR,0.00,VWS V14.01,2014-03-09 16:55:00,
2014-03-09 12:56:00,64.7,41.7,30.09,NW,314,1.0,2.0,43,0.00,,CLR,0.00,VWS V14.01,2014-03-09 16:56:00,
2014-03-09 12:57:00,64.7,42.9,30.09,West,261,2.0,3.0,45,0.00,,CLR,0.00,VWS V14.01,2014-03-09 16:57:00,
2014-03-09 12:58:00,64.7,41.7,30.09,West,275,0.0,3.0,43,0.00,,CLR,0.00,VWS V14.01,2014-03-09 16:58:00,
2014-03-09 12:59:00,64.8,42.4,30.09,West,265,1.0,5.0,44,0.00,,CLR,0.00,VWS V14.01,2014-03-09 16:59:00,
2014-03-09 13:00:00,64.8,41.8,30.09,WNW,284,0.0,2.0,43,0.00,,CLR,0.00,VWS V14.01,2014-03-09 17:00:00,
2014-03-09 13:01:00,65.0,42.6,30.09,West,275,0.0,1.0,44,0.00,,CLR,0.00,VWS V14.01,2014-03-09 17:01:00,
2014-03-09 13:02:00,64.9,42.5,30.09,West,275,0.0,2.0,44,0.00,,CLR,0.00,VWS V14.01,2014-03-09 17:02:00,
2014-03-09 13:03:00,65.0,42.6,30.09,West,275,0.0,1.0,44,0.00,,CLR,0.00,VWS V14.01,2014-03-09 17:03:00,
2014-03-09 13:04:00,65.1,43.3,30.09,West,275,0.0,1.0,45,0.00,,CLR,0.00,VWS V14.01,2014-03-09 17:04:00,
2014-03-09 13:05:00,65.2,42.8,30.09,West,275,0.0,1.0,44,0.00,,CLR,0.00,VWS V14.01,2014-03-09 17:05:00,
2014-03-09 13:06:00,65.5,41.8,30.09,West,275,3.0,3.0,42,0.00,,CLR,0.00,VWS V14.01,2014-03-09 17:06:00,
2014-03-09 13:07:00,65.4,43.5,30.09,NW,315,2.0,2.0,45,0.00,,CLR,0.00,VWS V14.01,2014-03-09 17:07:00,
2014-03-09 13:08:00,65.5,41.8,30.09,West,274,0.0,3.0,42,0.00,,CLR,0.00,VWS V14.01,2014-03-09 17:08:00,
2014-03-09 13:09:00,65.5,43.0,30.09,West,277,1.0,2.0,44,0.00,,CLR,0.00,VWS V14.01,2014-03-09 17:09:00,
2014-03-09 13:10:00,65.4,42.9,30.09,WNW,290,0.0,2.0,44,0.00,,CLR,0.00,VWS V14.01,2014-03-09 17:10:00,
2014-03-09 13:11:00,65.4,43.5,30.09,WNW,289,2.0,3.0,45,0.00,,CLR,0.00,VWS V14.01,2014-03-09 17:11:00,
2014-03-09 13:12:00,65.4,43.5,30.09,WSW,240,2.0,3.0,45,0.00,,CLR,0.00,VWS V14.01,2014-03-09 17:12:00,
2014-03-09 13:13:00,65.4,43.5,30.09,SW,232,1.0,3.0,45,0.00,,CLR,0.00,VWS V14.01,2014-03-09 17:13:00,
2014-03-09 13:14:00,65.4,42.9,30.09,SW,221,4.0,4.0,44,0.00,,CLR,0.00,VWS V14.01,2014-03-09 17:14:00,
2014-03-09 13:15:00,65.3,41.6,30.09,West,271,1.0,4.0,42,0.00,,CLR,0.00,VWS V14.01,2014-03-09 17:15:00,
2014-03-09 13:16:00,65.2,43.3,30.09,West,277,0.0,1.0,45,0.00,,CLR,0.00,VWS V14.01,2014-03-09 17:16:00,
2014-03-09 13:17:00,65.2,42.8,30.09,WNW,288,0.0,3.0,44,0.00,,CLR,0.00,VWS V14.01,2014-03-09 17:17:00,
2014-03-09 13:18:00,65.2,42.8,30.09,West,280,2.0,2.0,44,0.00,,CLR,0.00,VWS V14.01,2014-03-09 17:18:00,
2014-03-09 13:19:00,65.2,43.3,30.09,SW,225,3.0,3.0,45,0.00,,CLR,0.00,VWS V14.01,2014-03-09 17:19:00,
2014-03-09 13:20:00,65.2,43.9,30.09,SW,222,0.0,3.0,46,0.00,,CLR,0.00,VWS V14.01,2014-03-09 17:20:00,
2014-03-09 13:21:00,65.4,43.5,30.09,SW,215,0.0,3.0,45,0.00,,CLR,0.00,VWS V14.01,2014-03-09 17:21:00,
2014-03-09 13:22:00,65.3,43.4,30.09,West,277,2.0,3.0,45,0.00,,CLR,0.00,VWS V14.01,2014-03-09 17:22:00,
2014-03-09 13:23:00,65.4,43.5,30.09,SW,219,0.0,3.0,45,0.00,,CLR,0.00,VWS V14.01,2014-03-09 17:23:00,
2014-03-09 13:24:00,65.5,43.0,30.08,West,279,0.0,2.0,44,0.00,,CLR,0.00,VWS V14.01,2014-03-09 17:24:00,
2014-03-09 13:25:00,65.6,43.1,30.08,NW,308,3.0,4.0,44,0.00,,CLR,0.00,VWS V14.01,2014-03-09 17:25:00,
2014-03-09 13:26:00,65.8,42.7,30.08,WNW,296,1.0,2.0,43,0.00,,CLR,0.00,VWS V14.01,2014-03-09 17:26:00,
2014-03-09 13:27:00,65.7,43.2,30.09,SW,224,1.0,3.0,44,0.00,,CLR,0.00,VWS V14.01,2014-03-09 17:27:00,
2014-03-09 13:28:00,65.8,42.7,30.08,NW,311,3.0,3.0,43,0.00,,CLR,0.00,VWS V14.01,2014-03-09 17:28:00,
2014-03-09 13:29:00,65.9,44.0,30.09,WNW,294,1.0,3.0,45,0.00,,CLR,0.00,VWS V14.01,2014-03-09 17:29:00,
2014-03-09 13:30:00,66.1,43.0,30.08,WSW,257,3.0,5.0,43,0.00,,CLR,0.00,VWS V14.01,2014-03-09 17:30:00,
2014-03-09 13:31:00,66.2,42.5,30.08,WNW,284,1.0,4.0,42,0.00,,CLR,0.00,VWS V14.01,2014-03-09 17:31:00,
2014-03-09 13:32:00,66.2,43.1,30.08,SW,233,2.0,4.0,43,0.00,,CLR,0.00,VWS V14.01,2014-03-09 17:32:00,
2014-03-09 13:33:00,66.2,42.5,30.08,WNW,284,1.0,4.0,42,0.00,,CLR,0.00,VWS V14.01,2014-03-09 17:33:00,
2014-03-09 13:34:00,66.2,43.1,30.08,SW,217,1.0,3.0,43,0.00,,CLR,0.00,VWS V14.01,2014-03-09 17:34:00,
2014-03-09 13:35:00,66.2,43.1,30.08,WNW,290,2.0,2.0,43,0.00,,CLR,0.00,VWS V14.01,2014-03-09 17:35:00,
2014-03-09 13:36:00,66.0,42.9,30.08,WNW,297,0.0,1.0,43,0.00,,CLR,0.00,VWS V14.01,2014-03-09 17:36:00,
2014-03-09 13:37:00,66.1,42.4,30.08,WNW,297,1.0,4.0,42,0.00,,CLR,0.00,VWS V14.01,2014-03-09 17:37:00,
2014-03-09 13:38:00,66.0,42.9,30.08,WNW,297,1.0,1.0,43,0.00,,CLR,0.00,VWS V14.01,2014-03-09 17:38:00,
2014-03-09 13:39:00,66.0,43.5,30.08,WNW,284,2.0,3.0,44,0.00,,CLR,0.00,VWS V14.01,2014-03-09 17:39:00,
2014-03-09 13:40:00,66.1,43.6,30.09,West,273,0.0,2.0,44,0.00,,CLR,0.00,VWS V14.01,2014-03-09 17:40:00,
2014-03-09 13:41:00,66.1,41.7,30.08,WNW,288,0.0,1.0,41,0.00,,CLR,0.00,VWS V14.01,2014-03-09 17:41:00,
2014-03-09 13:42:00,66.1,41.7,30.09,WNW,288,1.0,3.0,41,0.00,,CLR,0.00,VWS V14.01,2014-03-09 17:42:00,
2014-03-09 13:43:00,66.1,41.7,30.08,WNW,288,0.0,1.0,41,0.00,,CLR,0.00,VWS V14.01,2014-03-09 17:43:00,
2014-03-09 13:44:00,66.0,41.7,30.08,WNW,300,2.0,3.0,41,0.00,,CLR,0.00,VWS V14.01,2014-03-09 17:44:00,
2014-03-09 13:45:00,65.9,41.6,30.08,West,279,1.0,4.0,41,0.00,,CLR,0.00,VWS V14.01,2014-03-09 17:45:00,
2014-03-09 13:46:00,65.6,41.9,30.08,WSW,238,0.0,1.0,42,0.00,,CLR,0.00,VWS V14.01,2014-03-09 17:46:00,
2014-03-09 13:47:00,65.6,41.9,30.08,SW,236,0.0,2.0,42,0.00,,CLR,0.00,VWS V14.01,2014-03-09 17:47:00,
2014-03-09 13:48:00,65.6,41.9,30.08,SW,232,0.0,1.0,42,0.00,,CLR,0.00,VWS V14.01,2014-03-09 17:48:00,
2014-03-09 13:49:00,65.6,41.3,30.08,SSW,203,0.0,2.0,41,0.00,,CLR,0.00,VWS V14.01,2014-03-09 17:49:00,
2014-03-09 13:50:00,65.6,42.5,30.08,WSW,252,1.0,1.0,43,0.00,,CLR,0.00,VWS V14.01,2014-03-09 17:50:00,
2014-03-09 13:51:00,65.7,42.0,30.08,SW,229,1.0,1.0,42,0.00,,CLR,0.00,VWS V14.01,2014-03-09 17:51:00,
2014-03-09 13:52:00,65.6,42.5,30.08,SW,229,1.0,2.0,43,0.00,,CLR,0.00,VWS V14.01,2014-03-09 17:52:00,
2014-03-09 13:53:00,65.7,41.4,30.08,SW,229,0.0,1.0,41,0.00,,CLR,0.00,VWS V14.01,2014-03-09 17:53:00,
2014-03-09 13:54:00,65.8,41.5,30.08,SW,223,0.0,1.0,41,0.00,,CLR,0.00,VWS V14.01,2014-03-09 17:54:00,
2014-03-09 13:55:00,65.8,42.1,30.08,WNW,294,2.0,4.0,42,0.00,,CLR,0.00,VWS V14.01,2014-03-09 17:55:00,
2014-03-09 13:56:00,66.0,42.3,30.08,SSW,194,1.0,4.0,42,0.00,,CLR,0.00,VWS V14.01,2014-03-09 17:56:00,
2014-03-09 13:57:00,65.9,42.2,30.08,South,188,4.0,4.0,42,0.00,,CLR,0.00,VWS V14.01,2014-03-09 17:57:00,
2014-03-09 13:58:00,66.1,42.4,30.08,SSW,194,0.0,4.0,42,0.00,,CLR,0.00,VWS V14.01,2014-03-09 17:58:00,
2014-03-09 13:59:00,66.1,43.0,30.08,West,275,0.0,2.0,43,0.00,,CLR,0.00,VWS V14.01,2014-03-09 17:59:00,
2014-03-09 14:00:00,66.2,43.7,30.08,West,277,2.0,2.0,44,0.00,,CLR,0.00,VWS V14.01,2014-03-09 18:00:00,
2014-03-09 14:01:00,66.3,43.2,30.08,West,272,0.0,2.0,43,0.00,,CLR,0.00,VWS V14.01,2014-03-09 18:01:00,
2014-03-09 14:02:00,66.3,43.2,30.08,West,261,0.0,3.0,43,0.00,,CLR,0.00,VWS V14.01,2014-03-09 18:02:00,
2014-03-09 14:03:00,66.3,43.2,30.08,West,272,0.0,2.0,43,0.00,,CLR,0.00,VWS V14.01,2014-03-09 18:03:00,
2014-03-09 14:04:00,66.4,43.2,30.07,WSW,238,0.0,2.0,43,0.00,,CLR,0.00,VWS V14.01,2014-03-09 18:04:00,
2014-03-09 14:05:00,66.4,43.8,30.07,WSW,254,0.0,3.0,44,0.00,,CLR,0.00,VWS V14.01,2014-03-09 18:05:00,
2014-03-09 14:06:00,66.5,43.3,30.07,SW,235,1.0,1.0,43,0.00,,CLR,0.00,VWS V14.01,2014-03-09 18:06:00,
2014-03-09 14:07:00,66.4,43.2,30.07,WSW,237,0.0,1.0,43,0.00,,CLR,0.00,VWS V14.01,2014-03-09 18:07:00,
2014-03-09 14:08:00,66.5,43.3,30.07,SW,227,0.0,1.0,43,0.00,,CLR,0.00,VWS V14.01,2014-03-09 18:08:00,
2014-03-09 14:09:00,66.5,42.7,30.07,SSW,196,1.0,2.0,42,0.00,,CLR,0.00,VWS V14.01,2014-03-09 18:09:00,
2014-03-09 14:10:00,66.5,42.1,30.07,SSW,196,1.0,2.0,41,0.00,,CLR,0.00,VWS V14.01,2014-03-09 18:10:00,
2014-03-09 14:11:00,66.6,43.4,30.07,West,281,1.0,3.0,43,0.00,,CLR,0.00,VWS V14.01,2014-03-09 18:11:00,
2014-03-09 14:12:00,66.5,43.9,30.07,West,259,2.0,2.0,44,0.00,,CLR,0.00,VWS V14.01,2014-03-09 18:12:00,
2014-03-09 14:13:00,66.6,43.4,30.07,West,266,1.0,3.0,43,0.00,,CLR,0.00,VWS V14.01,2014-03-09 18:13:00,
2014-03-09 14:14:00,66.7,43.5,30.07,West,266,0.0,1.0,43,0.00,,CLR,0.00,VWS V14.01,2014-03-09 18:14:00,
2014-03-09 14:15:00,66.6,42.8,30.07,West,266,0.0,1.0,42,0.00,,CLR,0.00,VWS V14.01,2014-03-09 18:15:00,
2014-03-09 14:16:00,66.5,42.7,30.07,SSW,205,0.0,1.0,42,0.00,,CLR,0.00,VWS V14.01,2014-03-09 18:16:00,
2014-03-09 14:17:00,66.6,42.8,30.07,SSW,205,0.0,1.0,42,0.00,,CLR,0.00,VWS V14.01,2014-03-09 18:17:00,
2014-03-09 14:18:00,66.5,43.3,30.07,WSW,255,1.0,1.0,43,0.00,,CLR,0.00,VWS V14.01,2014-03-09 18:18:00,
2014-03-09 14:19:00,66.5,42.1,30.07,WNW,287,1.0,3.0,41,0.00,,CLR,0.00,VWS V14.01,2014-03-09 18:19:00,
2014-03-09 14:20:00,66.6,42.2,30.07,WNW,287,0.0,1.0,41,0.00,,CLR,0.00,VWS V14.01,2014-03-09 18:20:00,
2014-03-09 14:21:00,66.7,42.3,30.07,West,274,3.0,6.0,41,0.00,,CLR,0.00,VWS V14.01,2014-03-09 18:21:00,
2014-03-09 14:22:00,66.7,42.3,30.07,West,259,2.0,5.0,41,0.00,,CLR,0.00,VWS V14.01,2014-03-09 18:22:00,
2014-03-09 14:23:00,66.7,41.6,30.07,WNW,288,2.0,6.0,40,0.00,,CLR,0.00,VWS V14.01,2014-03-09 18:23:00,
2014-03-09 14:24:00,66.7,41.6,30.07,West,281,0.0,4.0,40,0.00,,CLR,0.00,VWS V14.01,2014-03-09 18:24:00,
2014-03-09 14:25:00,66.7,41.6,30.07,West,281,0.0,1.0,40,0.00,,CLR,0.00,VWS V14.01,2014-03-09 18:25:00,
2014-03-09 14:26:00,66.8,41.1,30.07,West,273,0.0,1.0,39,0.00,,CLR,0.00,VWS V14.01,2014-03-09 18:26:00,
2014-03-09 14:27:00,66.8,41.1,30.07,West,281,0.0,1.0,39,0.00,,CLR,0.00,VWS V14.01,2014-03-09 18:27:00,
2014-03-09 14:28:00,66.8,41.7,30.07,West,273,0.0,1.0,40,0.00,,CLR,0.00,VWS V14.01,2014-03-09 18:28:00,
2014-03-09 14:29:00,66.9,42.5,30.07,West,276,0.0,2.0,41,0.00,,CLR,0.00,VWS V14.01,2014-03-09 18:29:00,
2014-03-09 14:30:00,67.0,42.5,30.07,West,263,0.0,3.0,41,0.00,,CLR,0.00,VWS V14.01,2014-03-09 18:30:00,
2014-03-09 14:31:00,67.3,41.5,30.06,West,270,1.0,2.0,39,0.00,,CLR,0.00,VWS V14.01,2014-03-09 18:31:00,
2014-03-09 14:32:00,67.2,42.1,30.06,WSW,239,1.0,3.0,40,0.00,,CLR,0.00,VWS V14.01,2014-03-09 18:32:00,
2014-03-09 14:33:00,67.3,41.5,30.06,West,270,0.0,2.0,39,0.00,,CLR,0.00,VWS V14.01,2014-03-09 18:33:00,
2014-03-09 14:34:00,67.3,42.2,30.06,West,281,2.0,4.0,40,0.00,,CLR,0.00,VWS V14.01,2014-03-09 18:34:00,
2014-03-09 14:35:00,67.4,42.3,30.06,WSW,249,1.0,2.0,40,0.00,,CLR,0.00,VWS V14.01,2014-03-09 18:35:00,
2014-03-09 14:36:00,67.3,42.2,30.06,SSW,204,2.0,3.0,40,0.00,,CLR,0.00,VWS V14.01,2014-03-09 18:36:00,
2014-03-09 14:37:00,67.3,41.5,30.06,SSW,213,2.0,3.0,39,0.00,,CLR,0.00,VWS V14.01,2014-03-09 18:37:00,
2014-03-09 14:38:00,67.3,42.2,30.06,SW,231,3.0,4.0,40,0.00,,CLR,0.00,VWS V14.01,2014-03-09 18:38:00,
2014-03-09 14:39:00,67.2,41.4,30.06,SW,232,0.0,3.0,39,0.00,,CLR,0.00,VWS V14.01,2014-03-09 18:39:00,
2014-03-09 14:40:00,67.2,41.4,30.06,SW,232,1.0,1.0,39,0.00,,CLR,0.00,VWS V14.01,2014-03-09 18:40:00,
2014-03-09 14:41:00,67.3,41.5,30.06,SW,232,0.0,0.0,39,0.00,,CLR,0.00,VWS V14.01,2014-03-09 18:41:00,
2014-03-09 14:42:00,67.2,42.1,30.06,SW,232,0.0,0.0,40,0.00,,CLR,0.00,VWS V14.01,2014-03-09 18:42:00,
2014-03-09 14:43:00,67.3,41.5,30.06,ENE,66,3.0,4.0,39,0.00,,CLR,0.00,VWS V14.01,2014-03-09 18:43:00,
2014-03-09 14:44:00,67.4,42.9,30.06,SW,233,0.0,3.0,41,0.00,,CLR,0.00,VWS V14.01,2014-03-09 18:44:00,
2014-03-09 14:45:00,67.4,40.9,30.06,NNW,331,0.0,1.0,38,0.00,,CLR,0.00,VWS V14.01,2014-03-09 18:45:00,
2014-03-09 14:46:00,67.8,43.9,30.06,West,264,0.0,3.0,42,0.00,,CLR,0.00,VWS V14.01,2014-03-09 18:46:00,
2014-03-09 14:47:00,67.7,41.9,30.05,NNW,333,0.0,1.0,39,0.00,,CLR,0.00,VWS V14.01,2014-03-09 18:47:00,
2014-03-09 14:48:00,67.8,43.9,30.06,SW,215,2.0,3.0,42,0.00,,CLR,0.00,VWS V14.01,2014-03-09 18:48:00,
2014-03-09 14:49:00,68.0,42.2,30.06,SW,221,0.0,2.0,39,0.00,,CLR,0.00,VWS V14.01,2014-03-09 18:49:00,
2014-03-09 14:50:00,68.0,41.5,30.06,ENE,64,2.0,3.0,38,0.00,,CLR,0.00,VWS V14.01,2014-03-09 18:50:00,
2014-03-09 14:51:00,68.1,42.2,30.06,SSW,197,4.0,4.0,39,0.00,,CLR,0.00,VWS V14.01,2014-03-09 18:51:00,
2014-03-09 14:52:00,68.1,42.2,30.06,West,259,1.0,2.0,39,0.00,,CLR,0.00,VWS V14.01,2014-03-09 18:52:00,
2014-03-09 14:53:00,68.2,43.0,30.06,South,179,2.0,4.0,40,0.00,,CLR,0.00,VWS V14.01,2014-03-09 18:53:00,
2014-03-09 14:54:00,68.1,41.6,30.06,South,184,1.0,4.0,38,0.00,,CLR,0.00,VWS V14.01,2014-03-09 18:54:00,
2014-03-09 14:55:00,68.1,42.2,30.06,SSW,211,3.0,5.0,39,0.00,,CLR,0.00,VWS V14.01,2014-03-09 18:55:00,
2014-03-09 14:56:00,67.9,41.4,30.06,West,277,0.0,1.0,38,0.00,,CLR,0.00,VWS V14.01,2014-03-09 18:56:00,
2014-03-09 14:57:00,67.9,41.4,30.06,West,277,0.0,1.0,38,0.00,,CLR,0.00,VWS V14.01,2014-03-09 18:57:00,
2014-03-09 14:58:00,67.9,42.7,30.06,West,277,0.0,1.0,40,0.00,,CLR,0.00,VWS V14.01,2014-03-09 18:58:00,
2014-03-09 14:59:00,67.9,42.1,30.05,West,277,1.0,1.0,39,0.00,,CLR,0.00,VWS V14.01,2014-03-09 18:59:00,
2014-03-09 15:00:00,67.9,41.4,30.05,SSW,207,2.0,2.0,38,0.00,,CLR,0.00,VWS V14.01,2014-03-09 19:00:00,
2014-03-09 15:01:00,67.9,42.7,30.05,SSW,207,1.0,3.0,40,0.00,,CLR,0.00,VWS V14.01,2014-03-09 19:01:00,
2014-03-09 15:02:00,67.9,42.1,30.05,SSW,207,1.0,1.0,39,0.00,,CLR,0.00,VWS V14.01,2014-03-09 19:02:00,
2014-03-09 15:03:00,67.9,42.1,30.05,SSW,202,1.0,3.0,39,0.00,,CLR,0.00,VWS V14.01,2014-03-09 19:03:00,
2014-03-09 15:04:00,67.9,41.4,30.05,SSW,202,1.0,2.0,38,0.00,,CLR,0.00,VWS V14.01,2014-03-09 19:04:00,
2014-03-09 15:05:00,67.8,41.3,30.05,SSW,202,2.0,2.0,38,0.00,,CLR,0.00,VWS V14.01,2014-03-09 19:05:00,
2014-03-09 15:06:00,67.7,41.9,30.05,SSW,202,0.0,1.0,39,0.00,,CLR,0.00,VWS V14.01,2014-03-09 19:06:00,
2014-03-09 15:07:00,67.8,41.3,30.05,SSW,202,0.0,2.0,38,0.00,,CLR,0.00,VWS V14.01,2014-03-09 19:07:00,
2014-03-09 15:08:00,67.7,41.9,30.05,SSW,202,0.0,1.0,39,0.00,,CLR,0.00,VWS V14.01,2014-03-09 19:08:00,
2014-03-09 15:09:00,67.8,41.3,30.05,SSW,203,1.0,2.0,38,0.00,,CLR,0.00,VWS V14.01,2014-03-09 19:09:00,
2014-03-09 15:10:00,67.8,42.0,30.05,SSW,203,0.0,1.0,39,0.00,,CLR,0.00,VWS V14.01,2014-03-09 19:10:00,
2014-03-09 15:11:00,67.9,41.4,30.05,SSW,203,0.0,0.0,38,0.00,,CLR,0.00,VWS V14.01,2014-03-09 19:11:00,
2014-03-09 15:12:00,67.9,41.4,30.05,SSW,203,0.0,0.0,38,0.00,,CLR,0.00,VWS V14.01,2014-03-09 19:12:00,
2014-03-09 15:13:00,67.9,41.4,30.05,SSW,203,1.0,1.0,38,0.00,,CLR,0.00,VWS V14.01,2014-03-09 19:13:00,
2014-03-09 15:14:00,68.1,41.6,30.05,SSW,203,0.0,1.0,38,0.00,,CLR,0.00,VWS V14.01,2014-03-09 19:14:00,
2014-03-09 15:15:00,68.1,41.6,30.05,SSW,203,0.0,0.0,38,0.00,,CLR,0.00,VWS V14.01,2014-03-09 19:15:00,
2014-03-09 15:16:00,68.2,42.3,30.05,SSW,203,0.0,1.0,39,0.00,,CLR,0.00,VWS V14.01,2014-03-09 19:16:00,
2014-03-09 15:17:00,68.2,41.7,30.05,SSW,203,1.0,2.0,38,0.00,,CLR,0.00,VWS V14.01,2014-03-09 19:17:00,
2014-03-09 15:18:00,68.2,42.3,30.05,SSW,203,0.0,1.0,39,0.00,,CLR,0.00,VWS V14.01,2014-03-09 19:18:00,
2014-03-09 15:19:00,68.2,41.7,30.05,SSE,163,2.0,2.0,38,0.00,,CLR,0.00,VWS V14.01,2014-03-09 19:19:00,
2014-03-09 15:20:00,68.2,40.2,30.05,East,80,0.0,2.0,36,0.00,,CLR,0.00,VWS V14.01,2014-03-09 19:20:00,
2014-03-09 15:21:00,68.3,41.0,30.05,East,88,0.0,0.0,37,0.00,,CLR,0.00,VWS V14.01,2014-03-09 19:21:00,
2014-03-09 15:22:00,68.3,40.3,30.05,East,88,0.0,1.0,36,0.00,,CLR,0.00,VWS V14.01,2014-03-09 19:22:00,
2014-03-09 15:23:00,68.4,41.1,30.05,East,88,0.0,0.0,37,0.00,,CLR,0.00,VWS V14.01,2014-03-09 19:23:00,
2014-03-09 15:24:00,68.4,40.4,30.05,East,88,0.0,0.0,36,0.00,,CLR,0.00,VWS V14.01,2014-03-09 19:24:00,
2014-03-09 15:25:00,68.5,41.2,30.05,East,88,0.0,0.0,37,0.00,,CLR,0.00,VWS V14.01,2014-03-09 19:25:00,
2014-03-09 15:26:00,68.6,41.3,30.05,ESE,109,1.0,2.0,37,0.00,,CLR,0.00,VWS V14.01,2014-03-09 19:26:00,
2014-03-09 15:27:00,68.6,41.3,30.05,ESE,106,1.0,3.0,37,0.00,,CLR,0.00,VWS V14.01,2014-03-09 19:27:00,
2014-03-09 15:28:00,68.7,41.4,30.05,ESE,115,1.0,2.0,37,0.00,,CLR,0.00,VWS V14.01,2014-03-09 19:28:00,
2014-03-09 15:29:00,68.7,42.1,30.05,SSW,208,4.0,4.0,38,0.00,,CLR,0.00,VWS V14.01,2014-03-09 19:29:00,
2014-03-09 15:30:00,68.5,41.9,30.05,South,180,2.0,4.0,38,0.00,,CLR,0.00,VWS V14.01,2014-03-09 19:30:00,
2014-03-09 15:31:00,68.0,40.8,30.04,SSW,196,3.0,3.0,37,0.00,,CLR,0.00,VWS V14.01,2014-03-09 19:31:00,
2014-03-09 15:32:00,68.1,40.9,30.05,SSW,196,2.0,3.0,37,0.00,,CLR,0.00,VWS V14.01,2014-03-09 19:32:00,
2014-03-09 15:33:00,67.9,41.4,30.04,SSW,196,2.0,3.0,38,0.00,,CLR,0.00,VWS V14.01,2014-03-09 19:33:00,
2014-03-09 15:34:00,67.6,41.1,30.04,SSW,213,0.0,4.0,38,0.00,,CLR,0.00,VWS V14.01,2014-03-09 19:34:00,
2014-03-09 15:35:00,67.5,41.0,30.04,WSW,253,1.0,4.0,38,0.00,,CLR,0.00,VWS V14.01,2014-03-09 19:35:00,
2014-03-09 15:36:00,67.4,40.9,30.04,West,281,0.0,1.0,38,0.00,,CLR,0.00,VWS V14.01,2014-03-09 19:36:00,
2014-03-09 15:37:00,67.4,41.6,30.04,West,281,1.0,2.0,39,0.00,,CLR,0.00,VWS V14.01,2014-03-09 19:37:00,
2014-03-09 15:38:00,67.4,40.2,30.04,West,281,1.0,1.0,37,0.00,,CLR,0.00,VWS V14.01,2014-03-09 19:38:00,
2014-03-09 15:39:00,67.4,40.9,30.04,WNW,282,0.0,2.0,38,0.00,,CLR,0.00,VWS V14.01,2014-03-09 19:39:00,
2014-03-09 15:40:00,67.4,41.6,30.04,WNW,282,0.0,1.0,39,0.00,,CLR,0.00,VWS V14.01,2014-03-09 19:40:00,
2014-03-09 15:41:00,67.5,40.3,30.04,ESE,108,0.0,2.0,37,0.00,,CLR,0.00,VWS V14.01,2014-03-09 19:41:00,
2014-03-09 15:42:00,67.5,41.0,30.04,ESE,108,0.0,4.0,38,0.00,,CLR,0.00,VWS V14.01,2014-03-09 19:42:00,
2014-03-09 15:43:00,67.5,40.3,30.04,ESE,108,0.0,2.0,37,0.00,,CLR,0.00,VWS V14.01,2014-03-09 19:43:00,
2014-03-09 15:44:00,67.6,41.1,30.04,ESE,108,1.0,1.0,38,0.00,,CLR,0.00,VWS V14.01,2014-03-09 19:44:00,
2014-03-09 15:45:00,67.7,41.2,30.04,ESE,108,0.0,2.0,38,0.00,,CLR,0.00,VWS V14.01,2014-03-09 19:45:00,
2014-03-09 15:46:00,67.9,40.7,30.04,SSE,153,1.0,1.0,37,0.00,,CLR,0.00,VWS V14.01,2014-03-09 19:46:00,
2014-03-09 15:47:00,67.9,40.7,30.04,SSE,159,0.0,2.0,37,0.00,,CLR,0.00,VWS V14.01,2014-03-09 19:47:00,
2014-03-09 15:48:00,68.0,40.8,30.04,East,80,3.0,3.0,37,0.00,,CLR,0.00,VWS V14.01,2014-03-09 19:48:00,
2014-03-09 15:49:00,68.2,40.2,30.04,ESE,113,1.0,2.0,36,0.00,,CLR,0.00,VWS V14.01,2014-03-09 19:49:00,
2014-03-09 15:50:00,68.2,41.0,30.04,ENE,63,0.0,4.0,37,0.00,,CLR,0.00,VWS V14.01,2014-03-09 19:50:00,
2014-03-09 15:51:00,68.2,40.2,30.04,ESE,113,0.0,2.0,36,0.00,,CLR,0.00,VWS V14.01,2014-03-09 19:51:00,
2014-03-09 15:52:00,68.2,40.2,30.04,ESE,110,0.0,2.0,36,0.00,,CLR,0.00,VWS V14.01,2014-03-09 19:52:00,
2014-03-09 15:53:00,68.2,41.0,30.04,ESE,120,1.0,3.0,37,0.00,,CLR,0.00,VWS V14.01,2014-03-09 19:53:00,
2014-03-09 15:54:00,68.2,41.0,30.04,SE,127,1.0,3.0,37,0.00,,CLR,0.00,VWS V14.01,2014-03-09 19:54:00,
2014-03-09 15:55:00,68.1,40.9,30.04,East,96,1.0,1.0,37,0.00,,CLR,0.00,VWS V14.01,2014-03-09 19:55:00,
2014-03-09 15:56:00,68.2,41.0,30.04,SE,127,1.0,3.0,37,0.00,,CLR,0.00,VWS V14.01,2014-03-09 19:56:00,
2014-03-09 15:57:00,68.1,41.6,30.03,SE,127,0.0,1.0,38,0.00,,CLR,0.00,VWS V14.01,2014-03-09 19:57:00,
2014-03-09 15:58:00,68.2,41.7,30.03,SE,130,0.0,1.0,38,0.00,,CLR,0.00,VWS V14.01,2014-03-09 19:58:00,
2014-03-09 15:59:00,68.2,41.7,30.03,SSE,161,1.0,2.0,38,0.00,,CLR,0.00,VWS V14.01,2014-03-09 19:59:00,
2014-03-09 16:00:00,68.2,41.7,30.03,SSE,161,0.0,2.0,38,0.00,,CLR,0.00,VWS V14.01,2014-03-09 20:00:00,
2014-03-09 16:01:00,68.2,41.7,30.03,SSE,161,0.0,2.0,38,0.00,,CLR,0.00,VWS V14.01,2014-03-09 20:01:00,
2014-03-09 16:02:00,68.2,41.7,30.03,SSE,161,0.0,1.0,38,0.00,,CLR,0.00,VWS V14.01,2014-03-09 20:02:00,
2014-03-09 16:03:00,68.2,41.7,30.04,SSE,161,0.0,1.0,38,0.00,,CLR,0.00,VWS V14.01,2014-03-09 20:03:00,
2014-03-09 16:04:00,68.3,41.7,30.04,SSE,161,1.0,1.0,38,0.00,,CLR,0.00,VWS V14.01,2014-03-09 20:04:00,
2014-03-09 16:05:00,68.3,41.7,30.04,SSE,161,0.0,1.0,38,0.00,,CLR,0.00,VWS V14.01,2014-03-09 20:05:00,
2014-03-09 16:06:00,68.3,41.7,30.04,SSE,161,0.0,1.0,38,0.00,,CLR,0.00,VWS V14.01,2014-03-09 20:06:00,
2014-03-09 16:07:00,68.3,41.7,30.04,SSE,161,0.0,1.0,38,0.00,,CLR,0.00,VWS V14.01,2014-03-09 20:07:00,
2014-03-09 16:08:00,68.3,41.7,30.04,SSE,161,0.0,1.0,38,0.00,,CLR,0.00,VWS V14.01,2014-03-09 20:08:00,
2014-03-09 16:09:00,68.5,41.2,30.03,SSE,161,0.0,1.0,37,0.00,,CLR,0.00,VWS V14.01,2014-03-09 20:09:00,
2014-03-09 16:10:00,68.5,41.9,30.04,SSE,161,1.0,1.0,38,0.00,,CLR,0.00,VWS V14.01,2014-03-09 20:10:00,
2014-03-09 16:11:00,68.5,41.2,30.03,SSE,161,0.0,1.0,37,0.00,,CLR,0.00,VWS V14.01,2014-03-09 20:11:00,
2014-03-09 16:12:00,68.6,42.7,30.03,SSE,161,0.0,1.0,39,0.00,,CLR,0.00,VWS V14.01,2014-03-09 20:12:00,
2014-03-09 16:13:00,68.7,40.7,30.03,SSE,161,0.0,0.0,36,0.00,,CLR,0.00,VWS V14.01,2014-03-09 20:13:00,
2014-03-09 16:14:00,69.0,41.0,30.04,South,186,0.0,3.0,36,0.00,,CLR,0.00,VWS V14.01,2014-03-09 20:14:00,
2014-03-09 16:15:00,68.9,41.6,30.04,SSW,207,3.0,3.0,37,0.00,,CLR,0.00,VWS V14.01,2014-03-09 20:15:00,
2014-03-09 16:16:00,69.0,41.0,30.04,South,186,1.0,3.0,36,0.00,,CLR,0.00,VWS V14.01,2014-03-09 20:16:00,
2014-03-09 16:17:00,69.0,40.2,30.03,WSW,247,2.0,3.0,35,0.00,,CLR,0.00,VWS V14.01,2014-03-09 20:17:00,
2014-03-09 16:18:00,69.0,41.0,30.03,WNW,289,1.0,7.0,36,0.00,,CLR,0.00,VWS V14.01,2014-03-09 20:18:00,
2014-03-09 16:19:00,69.0,41.0,30.03,West,281,0.0,1.0,36,0.00,,CLR,0.00,VWS V14.01,2014-03-09 20:19:00,
2014-03-09 16:20:00,69.0,41.0,30.03,West,281,0.0,4.0,36,0.00,,CLR,0.00,VWS V14.01,2014-03-09 20:20:00,
2014-03-09 16:21:00,69.0,41.0,30.03,West,281,0.0,1.0,36,0.00,,CLR,0.00,VWS V14.01,2014-03-09 20:21:00,
2014-03-09 16:22:00,69.1,41.0,30.03,West,281,0.0,1.0,36,0.00,,CLR,0.00,VWS V14.01,2014-03-09 20:22:00,
2014-03-09 16:23:00,69.1,40.3,30.03,West,268,0.0,3.0,35,0.00,,CLR,0.00,VWS V14.01,2014-03-09 20:23:00,
2014-03-09 16:24:00,69.2,39.7,30.03,WNW,294,0.0,1.0,34,0.00,,CLR,0.00,VWS V14.01,2014-03-09 20:24:00,
2014-03-09 16:25:00,69.2,40.4,30.03,WNW,294,0.0,2.0,35,0.00,,CLR,0.00,VWS V14.01,2014-03-09 20:25:00,
2014-03-09 16:26:00,69.2,39.7,30.03,WNW,294,0.0,1.0,34,0.00,,CLR,0.00,VWS V14.01,2014-03-09 20:26:00,
2014-03-09 16:27:00,69.3,40.5,30.03,WNW,292,0.0,1.0,35,0.00,,CLR,0.00,VWS V14.01,2014-03-09 20:27:00,
2014-03-09 16:28:00,69.4,40.6,30.03,WNW,292,1.0,1.0,35,0.00,,CLR,0.00,VWS V14.01,2014-03-09 20:28:00,
2014-03-09 16:29:00,69.6,40.8,30.03,West,281,1.0,2.0,35,0.00,,CLR,0.00,VWS V14.01,2014-03-09 20:29:00,
2014-03-09 16:30:00,69.5,40.7,30.03,WNW,292,0.0,0.0,35,0.00,,CLR,0.00,VWS V14.01,2014-03-09 20:30:00,
2014-03-09 16:31:00,69.6,40.8,30.03,West,281,1.0,2.0,35,0.00,,CLR,0.00,VWS V14.01,2014-03-09 20:31:00,
2014-03-09 16:32:00,69.7,40.8,30.03,WSW,238,1.0,2.0,35,0.00,,CLR,0.00,VWS V14.01,2014-03-09 20:32:00,
2014-03-09 16:33:00,69.7,40.8,30.03,WSW,254,0.0,1.0,35,0.00,,CLR,0.00,VWS V14.01,2014-03-09 20:33:00,
2014-03-09 16:34:00,69.7,39.3,30.03,WNW,288,0.0,1.0,33,0.00,,CLR,0.00,VWS V14.01,2014-03-09 20:34:00,
2014-03-09 16:35:00,69.7,40.1,30.03,WNW,288,0.0,4.0,34,0.00,,CLR,0.00,VWS V14.01,2014-03-09 20:35:00,
2014-03-09 16:36:00,69.7,39.3,30.03,WNW,288,0.0,1.0,33,0.00,,CLR,0.00,VWS V14.01,2014-03-09 20:36:00,
2014-03-09 16:37:00,69.7,40.8,30.03,WNW,288,1.0,1.0,35,0.00,,CLR,0.00,VWS V14.01,2014-03-09 20:37:00,
2014-03-09 16:38:00,69.8,40.2,30.03,WNW,288,0.0,1.0,34,0.00,,CLR,0.00,VWS V14.01,2014-03-09 20:38:00,
2014-03-09 16:39:00,69.9,41.8,30.03,West,275,1.0,3.0,36,0.00,,CLR,0.00,VWS V14.01,2014-03-09 20:39:00,
2014-03-09 16:40:00,69.8,40.9,30.03,West,273,0.0,2.0,35,0.00,,CLR,0.00,VWS V14.01,2014-03-09 20:40:00,
2014-03-09 16:41:00,69.9,41.8,30.03,West,275,1.0,3.0,36,0.00,,CLR,0.00,VWS V14.01,2014-03-09 20:41:00,
2014-03-09 16:42:00,69.9,41.0,30.03,West,275,0.0,1.0,35,0.00,,CLR,0.00,VWS V14.01,2014-03-09 20:42:00,
2014-03-09 16:43:00,69.9,41.8,30.03,West,275,0.0,1.0,36,0.00,,CLR,0.00,VWS V14.01,2014-03-09 20:43:00,
2014-03-09 16:44:00,70.0,41.8,30.03,West,275,0.0,0.0,36,0.00,,CLR,0.00,VWS V14.01,2014-03-09 20:44:00,
2014-03-09 16:45:00,70.0,41.1,30.03,West,275,0.0,0.0,35,0.00,,CLR,0.00,VWS V14.01,2014-03-09 20:45:00,
2014-03-09 16:46:00,70.0,41.8,30.03,West,275,0.0,0.0,36,0.00,,CLR,0.00,VWS V14.01,2014-03-09 20:46:00,
2014-03-09 16:47:00,70.1,41.2,30.03,West,275,0.0,0.0,35,0.00,,CLR,0.00,VWS V14.01,2014-03-09 20:47:00,
2014-03-09 16:48:00,70.1,40.5,30.03,WSW,254,0.0,2.0,34,0.00,,CLR,0.00,VWS V14.01,2014-03-09 20:48:00,
2014-03-09 16:49:00,70.4,42.2,30.03,WSW,255,1.0,1.0,36,0.00,,CLR,0.00,VWS V14.01,2014-03-09 20:49:00,
2014-03-09 16:50:00,70.3,42.1,30.03,West,259,1.0,1.0,36,0.00,,CLR,0.00,VWS V14.01,2014-03-09 20:50:00,
2014-03-09 16:51:00,70.4,42.2,30.03,WSW,255,0.0,1.0,36,0.00,,CLR,0.00,VWS V14.01,2014-03-09 20:51:00,
2014-03-09 16:52:00,70.4,40.7,30.03,West,277,1.0,3.0,34,0.00,,CLR,0.00,VWS V14.01,2014-03-09 20:52:00,
2014-03-09 16:53:00,70.5,39.2,30.03,WNW,289,1.0,2.0,32,0.00,,CLR,0.00,VWS V14.01,2014-03-09 20:53:00,
2014-03-09 16:54:00,70.3,39.1,30.03,North,9,0.0,1.0,32,0.00,,CLR,0.00,VWS V14.01,2014-03-09 20:54:00,
2014-03-09 16:55:00,70.4,38.3,30.03,North,9,1.0,2.0,31,0.00,,CLR,0.00,VWS V14.01,2014-03-09 20:55:00,
2014-03-09 16:56:00,70.3,39.1,30.03,North,9,0.0,1.0,32,0.00,,CLR,0.00,VWS V14.01,2014-03-09 20:56:00,
2014-03-09 16:57:00,70.3,39.9,30.03,North,9,0.0,0.0,33,0.00,,CLR,0.00,VWS V14.01,2014-03-09 20:57:00,
2014-03-09 16:58:00,70.3,39.9,30.03,North,355,0.0,1.0,33,0.00,,CLR,0.00,VWS V14.01,2014-03-09 20:58:00,
2014-03-09 16:59:00,70.4,39.2,30.03,WSW,254,0.0,2.0,32,0.00,,CLR,0.00,VWS V14.01,2014-03-09 20:59:00,
2014-03-09 17:00:00,70.4,40.0,30.03,WNW,290,0.0,1.0,33,0.00,,CLR,0.00,VWS V14.01,2014-03-09 21:00:00,
2014-03-09 17:01:00,70.4,39.2,30.03,WSW,254,0.0,2.0,32,0.00,,CLR,0.00,VWS V14.01,2014-03-09 21:01:00,
2014-03-09 17:02:00,70.4,40.7,30.03,WNW,284,1.0,1.0,34,0.00,,CLR,0.00,VWS V14.01,2014-03-09 21:02:00,
2014-03-09 17:04:00,70.3,39.9,30.03,WNW,293,1.0,1.0,33,0.00,,CLR,0.00,VWS V14.01,2014-03-09 21:04:00,
2014-03-09 17:05:00,70.4,40.0,30.03,WSW,254,0.0,4.0,33,0.00,,CLR,0.00,VWS V14.01,2014-03-09 21:05:00,
2014-03-09 17:06:00,70.3,40.6,30.03,WSW,252,1.0,1.0,34,0.00,,CLR,0.00,VWS V14.01,2014-03-09 21:06:00,
2014-03-09 17:07:00,70.3,39.9,30.03,WSW,238,0.0,4.0,33,0.00,,CLR,0.00,VWS V14.01,2014-03-09 21:07:00,
2014-03-09 17:08:00,70.3,39.9,30.03,WSW,238,0.0,1.0,33,0.00,,CLR,0.00,VWS V14.01,2014-03-09 21:08:00,
2014-03-09 17:09:00,70.2,39.0,30.03,SW,234,1.0,1.0,32,0.00,,CLR,0.00,VWS V14.01,2014-03-09 21:09:00,
2014-03-09 17:10:00,70.3,39.9,30.03,SW,234,0.0,0.0,33,0.00,,CLR,0.00,VWS V14.01,2014-03-09 21:10:00,
2014-03-09 17:11:00,70.3,39.1,30.03,SW,234,0.0,1.0,32,0.00,,CLR,0.00,VWS V14.01,2014-03-09 21:11:00,
2014-03-09 17:12:00,70.3,39.9,30.03,SW,234,0.0,1.0,33,0.00,,CLR,0.00,VWS V14.01,2014-03-09 21:12:00,
2014-03-09 17:13:00,70.3,39.9,30.03,SW,234,0.0,1.0,33,0.00,,CLR,0.00,VWS V14.01,2014-03-09 21:13:00,
2014-03-09 17:14:00,70.4,40.0,30.03,SW,234,0.0,1.0,33,0.00,,CLR,0.00,VWS V14.01,2014-03-09 21:14:00,
2014-03-09 17:15:00,70.4,40.7,30.03,SW,234,1.0,1.0,34,0.00,,CLR,0.00,VWS V14.01,2014-03-09 21:15:00,
2014-03-09 17:16:00,70.4,40.0,30.03,SW,234,0.0,1.0,33,0.00,,CLR,0.00,VWS V14.01,2014-03-09 21:16:00,
2014-03-09 17:17:00,70.5,40.8,30.03,SW,234,0.0,0.0,34,0.00,,CLR,0.00,VWS V14.01,2014-03-09 21:17:00,
2014-03-09 17:18:00,70.6,40.9,30.03,West,281,2.0,4.0,34,0.00,,CLR,0.00,VWS V14.01,2014-03-09 21:18:00,
2014-03-09 17:19:00,70.4,40.0,30.03,West,276,1.0,2.0,33,0.00,,CLR,0.00,VWS V14.01,2014-03-09 21:19:00,
2014-03-09 17:20:00,70.4,40.0,30.03,West,276,2.0,4.0,33,0.00,,CLR,0.00,VWS V14.01,2014-03-09 21:20:00,
2014-03-09 17:21:00,70.4,40.0,30.03,West,276,1.0,2.0,33,0.00,,CLR,0.00,VWS V14.01,2014-03-09 21:21:00,
2014-03-09 17:22:00,70.3,39.1,30.03,West,275,1.0,1.0,32,0.00,,CLR,0.00,VWS V14.01,2014-03-09 21:22:00,
2014-03-09 17:23:00,70.2,39.8,30.03,West,272,0.0,1.0,33,0.00,,CLR,0.00,VWS V14.01,2014-03-09 21:23:00,
2014-03-09 17:24:00,70.1,38.9,30.03,WNW,300,0.0,5.0,32,0.00,,CLR,0.00,VWS V14.01,2014-03-09 21:24:00,
2014-03-09 17:25:00,70.2,39.8,30.03,West,272,0.0,2.0,33,0.00,,CLR,0.00,VWS V14.01,2014-03-09 21:25:00,
2014-03-09 17:26:00,70.1,38.9,30.03,WNW,298,0.0,5.0,32,0.00,,CLR,0.00,VWS V14.01,2014-03-09 21:26:00,
2014-03-09 17:27:00,70.1,38.9,30.02,West,267,0.0,1.0,32,0.00,,CLR,0.00,VWS V14.01,2014-03-09 21:27:00,
2014-03-09 17:28:00,70.1,38.9,30.02,NW,304,1.0,3.0,32,0.00,,CLR,0.00,VWS V14.01,2014-03-09 21:28:00,
2014-03-09 17:29:00,70.2,39.0,30.03,NNW,328,0.0,2.0,32,0.00,,CLR,0.00,VWS V14.01,2014-03-09 21:29:00,
2014-03-09 17:30:00,70.1,38.9,30.03,NNW,344,1.0,1.0,32,0.00,,CLR,0.00,VWS V14.01,2014-03-09 21:30:00,
2014-03-09 17:31:00,70.2,39.0,30.03,NNW,328,2.0,2.0,32,0.00,,CLR,0.00,VWS V14.01,2014-03-09 21:31:00,
2014-03-09 17:32:00,70.2,39.0,30.02,NNW,328,0.0,2.0,32,0.00,,CLR,0.00,VWS V14.01,2014-03-09 21:32:00,
2014-03-09 17:33:00,70.2,39.0,30.02,NNW,328,0.0,2.0,32,0.00,,CLR,0.00,VWS V14.01,2014-03-09 21:33:00,
2014-03-09 17:34:00,70.2,39.0,30.02,North,9,0.0,0.0,32,0.00,,CLR,0.00,VWS V14.01,2014-03-09 21:34:00,
2014-03-09 17:35:00,70.3,39.1,30.03,North,9,0.0,1.0,32,0.00,,CLR,0.00,VWS V14.01,2014-03-09 21:35:00,
2014-03-09 17:36:00,70.2,39.0,30.02,North,9,0.0,0.0,32,0.00,,CLR,0.00,VWS V14.01,2014-03-09 21:36:00,
2014-03-09 17:37:00,70.2,39.0,30.02,North,9,0.0,0.0,32,0.00,,CLR,0.00,VWS V14.01,2014-03-09 21:37:00,
2014-03-09 17:38:00,70.2,39.0,30.02,North,9,0.0,1.0,32,0.00,,CLR,0.00,VWS V14.01,2014-03-09 21:38:00,
2014-03-09 17:39:00,70.1,40.5,30.02,North,9,0.0,1.0,34,0.00,,CLR,0.00,VWS V14.01,2014-03-09 21:39:00,
2014-03-09 17:40:00,70.1,39.7,30.02,North,9,0.0,1.0,33,0.00,,CLR,0.00,VWS V14.01,2014-03-09 21:40:00,
2014-03-09 17:41:00,70.1,39.7,30.02,North,9,0.0,1.0,33,0.00,,CLR,0.00,VWS V14.01,2014-03-09 21:41:00,
2014-03-09 17:42:00,70.1,40.5,30.02,North,9,0.0,1.0,34,0.00,,CLR,0.00,VWS V14.01,2014-03-09 21:42:00,
2014-03-09 17:43:00,70.1,40.5,30.02,North,9,0.0,0.0,34,0.00,,CLR,0.00,VWS V14.01,2014-03-09 21:43:00,
2014-03-09 17:44:00,70.2,39.8,30.02,North,9,0.0,0.0,33,0.00,,CLR,0.00,VWS V14.01,2014-03-09 21:44:00,
2014-03-09 17:45:00,70.2,39.0,30.02,North,9,0.0,0.0,32,0.00,,CLR,0.00,VWS V14.01,2014-03-09 21:45:00,
2014-03-09 17:46:00,70.2,39.8,30.02,North,9,0.0,0.0,33,0.00,,CLR,0.00,VWS V14.01,2014-03-09 21:46:00,
2014-03-09 17:47:00,70.3,39.9,30.02,North,9,0.0,1.0,33,0.00,,CLR,0.00,VWS V14.01,2014-03-09 21:47:00,
2014-03-09 17:48:00,70.3,39.9,30.02,North,5,0.0,0.0,33,0.00,,CLR,0.00,VWS V14.01,2014-03-09 21:48:00,
2014-03-09 17:49:00,70.4,40.0,30.02,North,5,1.0,1.0,33,0.00,,CLR,0.00,VWS V14.01,2014-03-09 21:49:00,
2014-03-09 17:50:00,70.4,40.0,30.02,North,5,0.0,1.0,33,0.00,,CLR,0.00,VWS V14.01,2014-03-09 21:50:00,
2014-03-09 17:51:00,70.4,40.0,30.02,North,5,0.0,1.0,33,0.00,,CLR,0.00,VWS V14.01,2014-03-09 21:51:00,
2014-03-09 17:52:00,70.4,40.0,30.02,North,5,0.0,0.0,33,0.00,,CLR,0.00,VWS V14.01,2014-03-09 21:52:00,
2014-03-09 17:53:00,70.4,39.2,30.02,North,5,0.0,1.0,32,0.00,,CLR,0.00,VWS V14.01,2014-03-09 21:53:00,
2014-03-09 17:54:00,70.6,39.3,30.02,North,360,0.0,1.0,32,0.00,,CLR,0.00,VWS V14.01,2014-03-09 21:54:00,
2014-03-09 17:55:00,70.5,39.2,30.02,North,5,0.0,1.0,32,0.00,,CLR,0.00,VWS V14.01,2014-03-09 21:55:00,
2014-03-09 17:56:00,70.6,39.3,30.02,North,360,0.0,1.0,32,0.00,,CLR,0.00,VWS V14.01,2014-03-09 21:56:00,
2014-03-09 17:57:00,70.6,40.1,30.02,North,360,0.0,1.0,33,0.00,,CLR,0.00,VWS V14.01,2014-03-09 21:57:00,
2014-03-09 17:58:00,70.6,40.1,30.02,North,360,0.0,0.0,33,0.00,,CLR,0.00,VWS V14.01,2014-03-09 21:58:00,
2014-03-09 17:59:00,70.6,40.1,30.02,North,360,0.0,0.0,33,0.00,,CLR,0.00,VWS V14.01,2014-03-09 21:59:00,
2014-03-09 18:00:00,70.6,40.1,30.02,North,360,0.0,0.0,33,0.00,,CLR,0.00,VWS V14.01,2014-03-09 22:00:00,
2014-03-09 18:01:00,70.6,40.1,30.02,North,360,0.0,0.0,33,0.00,,CLR,0.00,VWS V14.01,2014-03-09 22:01:00,
2014-03-09 18:02:00,70.6,39.3,30.02,West,268,1.0,3.0,32,0.00,,CLR,0.00,VWS V14.01,2014-03-09 22:02:00,
2014-03-09 18:03:00,70.6,39.3,30.02,West,268,0.0,1.0,32,0.00,,CLR,0.00,VWS V14.01,2014-03-09 22:03:00,
2014-03-09 18:04:00,70.6,40.1,30.02,West,277,0.0,1.0,33,0.00,,CLR,0.00,VWS V14.01,2014-03-09 22:04:00,
2014-03-09 18:05:00,70.6,40.1,30.02,West,277,1.0,1.0,33,0.00,,CLR,0.00,VWS V14.01,2014-03-09 22:05:00,
2014-03-09 18:06:00,70.6,40.1,30.02,West,277,0.0,1.0,33,0.00,,CLR,0.00,VWS V14.01,2014-03-09 22:06:00,
2014-03-09 18:07:00,70.6,40.9,30.02,West,277,0.0,0.0,34,0.00,,CLR,0.00,VWS V14.01,2014-03-09 22:07:00,
2014-03-09 18:08:00,70.6,41.7,30.02,West,277,0.0,1.0,35,0.00,,CLR,0.00,VWS V14.01,2014-03-09 22:08:00,
2014-03-09 18:09:00,70.4,40.0,30.02,West,277,0.0,0.0,33,0.00,,CLR,0.00,VWS V14.01,2014-03-09 22:09:00,
2014-03-09 18:10:00,70.5,40.0,30.02,West,277,0.0,0.0,33,0.00,,CLR,0.00,VWS V14.01,2014-03-09 22:10:00,
2014-03-09 18:11:00,70.4,40.0,30.02,West,277,0.0,0.0,33,0.00,,CLR,0.00,VWS V14.01,2014-03-09 22:11:00,
2014-03-09 18:12:00,70.3,40.6,30.02,West,277,1.0,1.0,34,0.00,,CLR,0.00,VWS V14.01,2014-03-09 22:12:00,
2014-03-09 18:13:00,70.2,40.5,30.02,West,277,0.0,1.0,34,0.00,,CLR,0.00,VWS V14.01,2014-03-09 22:13:00,
2014-03-09 18:14:00,69.8,40.9,30.02,West,277,0.0,0.0,35,0.00,,CLR,0.00,VWS V14.01,2014-03-09 22:14:00,
2014-03-09 18:15:00,69.9,41.8,30.02,West,277,0.0,0.0,36,0.00,,CLR,0.00,VWS V14.01,2014-03-09 22:15:00,
2014-03-09 18:16:00,69.7,40.1,30.02,West,277,0.0,0.0,34,0.00,,CLR,0.00,VWS V14.01,2014-03-09 22:16:00,
2014-03-09 18:17:00,69.5,40.7,30.02,West,277,0.0,0.0,35,0.00,,CLR,0.00,VWS V14.01,2014-03-09 22:17:00,
2014-03-09 18:18:00,69.4,39.8,30.02,West,277,0.0,0.0,34,0.00,,CLR,0.00,VWS V14.01,2014-03-09 22:18:00,
2014-03-09 18:19:00,69.1,40.3,30.02,West,277,0.0,0.0,35,0.00,,CLR,0.00,VWS V14.01,2014-03-09 22:19:00,
2014-03-09 18:20:00,69.2,40.4,30.02,West,277,0.0,1.0,35,0.00,,CLR,0.00,VWS V14.01,2014-03-09 22:20:00,
2014-03-09 18:21:00,69.1,40.3,30.02,West,277,0.0,0.0,35,0.00,,CLR,0.00,VWS V14.01,2014-03-09 22:21:00,
2014-03-09 18:22:00,69.0,39.5,30.02,West,277,0.0,1.0,34,0.00,,CLR,0.00,VWS V14.01,2014-03-09 22:22:00,
2014-03-09 18:23:00,68.9,40.2,30.02,West,277,1.0,1.0,35,0.00,,CLR,0.00,VWS V14.01,2014-03-09 22:23:00,
2014-03-09 18:24:00,68.6,39.9,30.02,West,281,0.0,0.0,35,0.00,,CLR,0.00,VWS V14.01,2014-03-09 22:24:00,
2014-03-09 18:25:00,68.7,39.2,30.02,West,281,0.0,1.0,34,0.00,,CLR,0.00,VWS V14.01,2014-03-09 22:25:00,
2014-03-09 18:26:00,68.6,39.9,30.02,West,281,0.0,0.0,35,0.00,,CLR,0.00,VWS V14.01,2014-03-09 22:26:00,
2014-03-09 18:27:00,68.5,39.8,30.02,West,281,0.0,0.0,35,0.00,,CLR,0.00,VWS V14.01,2014-03-09 22:27:00,
2014-03-09 18:28:00,68.4,40.4,30.02,West,281,0.0,0.0,36,0.00,,CLR,0.00,VWS V14.01,2014-03-09 22:28:00,
2014-03-09 18:29:00,68.1,39.4,30.02,SW,224,0.0,2.0,35,0.00,,CLR,0.00,VWS V14.01,2014-03-09 22:29:00,
2014-03-09 18:30:00,68.2,40.2,30.02,SW,221,2.0,4.0,36,0.00,,CLR,0.00,VWS V14.01,2014-03-09 22:30:00,
2014-03-09 18:31:00,68.1,39.4,30.02,SW,224,0.0,2.0,35,0.00,,CLR,0.00,VWS V14.01,2014-03-09 22:31:00,
2014-03-09 18:32:00,68.0,39.3,30.01,SW,224,0.0,1.0,35,0.00,,CLR,0.00,VWS V14.01,2014-03-09 22:32:00,
2014-03-09 18:33:00,67.9,40.7,30.01,SW,224,0.0,0.0,37,0.00,,CLR,0.00,VWS V14.01,2014-03-09 22:33:00,
2014-03-09 18:34:00,67.7,39.8,30.01,SW,224,0.0,0.0,36,0.00,,CLR,0.00,VWS V14.01,2014-03-09 22:34:00,
2014-03-09 18:35:00,67.7,39.8,30.01,SW,224,0.0,0.0,36,0.00,,CLR,0.00,VWS V14.01,2014-03-09 22:35:00,
2014-03-09 18:36:00,67.6,39.7,30.01,SW,224,0.0,1.0,36,0.00,,CLR,0.00,VWS V14.01,2014-03-09 22:36:00,
2014-03-09 18:37:00,67.6,39.0,30.01,SW,224,1.0,1.0,35,0.00,,CLR,0.00,VWS V14.01,2014-03-09 22:37:00,
2014-03-09 18:38:00,67.5,38.9,30.01,SW,224,0.0,2.0,35,0.00,,CLR,0.00,VWS V14.01,2014-03-09 22:38:00,
2014-03-09 18:39:00,67.3,40.2,30.01,SW,227,0.0,2.0,37,0.00,,CLR,0.00,VWS V14.01,2014-03-09 22:39:00,
2014-03-09 18:40:00,67.3,40.2,30.01,SW,224,0.0,0.0,37,0.00,,CLR,0.00,VWS V14.01,2014-03-09 22:40:00,
2014-03-09 18:41:00,67.2,38.7,30.01,SW,227,0.0,2.0,35,0.00,,CLR,0.00,VWS V14.01,2014-03-09 22:41:00,
2014-03-09 18:42:00,67.2,39.4,30.02,SW,227,0.0,0.0,36,0.00,,CLR,0.00,VWS V14.01,2014-03-09 22:42:00,
2014-03-09 18:43:00,67.1,39.3,30.02,SW,227,0.0,1.0,36,0.00,,CLR,0.00,VWS V14.01,2014-03-09 22:43:00,
2014-03-09 18:44:00,66.9,39.1,30.02,SW,227,0.0,0.0,36,0.00,,CLR,0.00,VWS V14.01,2014-03-09 22:44:00,
2014-03-09 18:45:00,66.9,39.1,30.02,SW,227,0.0,1.0,36,0.00,,CLR,0.00,VWS V14.01,2014-03-09 22:45:00,
2014-03-09 18:46:00,66.9,39.8,30.02,SW,227,0.0,0.0,37,0.00,,CLR,0.00,VWS V14.01,2014-03-09 22:46:00,
2014-03-09 18:47:00,66.8,39.0,30.02,SW,227,0.0,1.0,36,0.00,,CLR,0.00,VWS V14.01,2014-03-09 22:47:00,
2014-03-09 18:48:00,66.7,38.9,30.02,SW,227,0.0,0.0,36,0.00,,CLR,0.00,VWS V14.01,2014-03-09 22:48:00,
2014-03-09 18:49:00,66.6,39.5,30.02,SW,227,0.0,0.0,37,0.00,,CLR,0.00,VWS V14.01,2014-03-09 22:49:00,
2014-03-09 18:50:00,66.6,39.5,30.02,SW,227,0.0,0.0,37,0.00,,CLR,0.00,VWS V14.01,2014-03-09 22:50:00,
2014-03-09 18:51:00,66.6,39.5,30.02,SW,227,0.0,0.0,37,0.00,,CLR,0.00,VWS V14.01,2014-03-09 22:51:00,
2014-03-09 18:52:00,66.5,39.5,30.02,SW,227,0.0,0.0,37,0.00,,CLR,0.00,VWS V14.01,2014-03-09 22:52:00,
2014-03-09 18:53:00,66.5,39.5,30.02,SW,227,0.0,0.0,37,0.00,,CLR,0.00,VWS V14.01,2014-03-09 22:53:00,
2014-03-09 18:54:00,66.3,40.6,30.02,SW,227,0.0,0.0,39,0.00,,CLR,0.00,VWS V14.01,2014-03-09 22:54:00,
2014-03-09 18:55:00,66.4,40.0,30.02,SW,227,0.0,0.0,38,0.00,,CLR,0.00,VWS V14.01,2014-03-09 22:55:00,
2014-03-09 18:56:00,66.3,40.6,30.02,SW,227,0.0,0.0,39,0.00,,CLR,0.00,VWS V14.01,2014-03-09 22:56:00,
2014-03-09 18:57:00,66.3,40.6,30.02,SW,227,0.0,0.0,39,0.00,,CLR,0.00,VWS V14.01,2014-03-09 22:57:00,
2014-03-09 18:58:00,66.2,39.9,30.02,SW,227,0.0,0.0,38,0.00,,CLR,0.00,VWS V14.01,2014-03-09 22:58:00,
2014-03-09 18:59:00,66.1,40.5,30.02,SW,227,0.0,0.0,39,0.00,,CLR,0.00,VWS V14.01,2014-03-09 22:59:00,
2014-03-09 19:00:00,66.1,39.1,30.02,SW,227,0.0,0.0,37,0.00,,CLR,0.00,VWS V14.01,2014-03-09 23:00:00,
2014-03-09 19:01:00,66.0,40.4,30.02,SW,227,0.0,0.0,39,0.00,,CLR,0.00,VWS V14.01,2014-03-09 23:01:00,
2014-03-09 19:02:00,66.0,39.0,30.02,SW,227,0.0,0.0,37,0.00,,CLR,0.00,VWS V14.01,2014-03-09 23:02:00,
2014-03-09 19:03:00,65.9,39.6,30.02,SW,227,0.0,0.0,38,0.00,,CLR,0.00,VWS V14.01,2014-03-09 23:03:00,
2014-03-09 19:04:00,65.7,40.1,30.02,SW,227,0.0,0.0,39,0.00,,CLR,0.00,VWS V14.01,2014-03-09 23:04:00,
2014-03-09 19:05:00,65.8,38.8,30.02,SW,227,0.0,0.0,37,0.00,,CLR,0.00,VWS V14.01,2014-03-09 23:05:00,
2014-03-09 19:06:00,65.7,40.1,30.02,SW,227,0.0,0.0,39,0.00,,CLR,0.00,VWS V14.01,2014-03-09 23:06:00,
2014-03-09 19:07:00,65.6,40.0,30.02,SW,227,0.0,0.0,39,0.00,,CLR,0.00,VWS V14.01,2014-03-09 23:07:00,
2014-03-09 19:08:00,65.6,40.0,30.02,SW,227,0.0,0.0,39,0.00,,CLR,0.00,VWS V14.01,2014-03-09 23:08:00,
2014-03-09 19:09:00,65.4,39.8,30.02,SW,227,0.0,0.0,39,0.00,,CLR,0.00,VWS V14.01,2014-03-09 23:09:00,
2014-03-09 19:10:00,65.4,39.8,30.02,SW,227,0.0,0.0,39,0.00,,CLR,0.00,VWS V14.01,2014-03-09 23:10:00,
2014-03-09 19:11:00,65.4,39.8,30.02,SW,227,0.0,0.0,39,0.00,,CLR,0.00,VWS V14.01,2014-03-09 23:11:00,
2014-03-09 19:12:00,65.3,39.7,30.02,SW,227,0.0,0.0,39,0.00,,CLR,0.00,VWS V14.01,2014-03-09 23:12:00,
2014-03-09 19:13:00,65.2,39.6,30.02,SW,227,0.0,0.0,39,0.00,,CLR,0.00,VWS V14.01,2014-03-09 23:13:00,
2014-03-09 19:14:00,65.0,40.1,30.02,SW,227,0.0,0.0,40,0.00,,CLR,0.00,VWS V14.01,2014-03-09 23:14:00,
2014-03-09 19:15:00,65.0,40.1,30.02,SW,227,0.0,0.0,40,0.00,,CLR,0.00,VWS V14.01,2014-03-09 23:15:00,
2014-03-09 19:16:00,64.9,39.4,30.02,SW,227,0.0,0.0,39,0.00,,CLR,0.00,VWS V14.01,2014-03-09 23:16:00,
2014-03-09 19:17:00,64.9,40.0,30.02,SW,227,0.0,0.0,40,0.00,,CLR,0.00,VWS V14.01,2014-03-09 23:17:00,
2014-03-09 19:18:00,64.8,39.3,30.02,SW,227,0.0,0.0,39,0.00,,CLR,0.00,VWS V14.01,2014-03-09 23:18:00,
2014-03-09 19:19:00,64.5,39.7,30.02,SW,227,0.0,0.0,40,0.00,,CLR,0.00,VWS V14.01,2014-03-09 23:19:00,
2014-03-09 19:20:00,64.6,39.1,30.02,SW,227,0.0,0.0,39,0.00,,CLR,0.00,VWS V14.01,2014-03-09 23:20:00,
2014-03-09 19:21:00,64.5,40.3,30.02,SW,227,0.0,0.0,41,0.00,,CLR,0.00,VWS V14.01,2014-03-09 23:21:00,
2014-03-09 19:22:00,64.4,39.6,30.02,SW,227,0.0,0.0,40,0.00,,CLR,0.00,VWS V14.01,2014-03-09 23:22:00,
2014-03-09 19:23:00,64.3,39.5,30.02,SW,227,0.0,0.0,40,0.00,,CLR,0.00,VWS V14.01,2014-03-09 23:23:00,
2014-03-09 19:24:00,64.1,39.3,30.02,SW,227,0.0,0.0,40,0.00,,CLR,0.00,VWS V14.01,2014-03-09 23:24:00,
2014-03-09 19:25:00,64.2,40.0,30.02,SW,227,0.0,0.0,41,0.00,,CLR,0.00,VWS V14.01,2014-03-09 23:25:00,
2014-03-09 19:26:00,64.1,39.3,30.02,SW,227,0.0,0.0,40,0.00,,CLR,0.00,VWS V14.01,2014-03-09 23:26:00,
2014-03-09 19:27:00,64.0,39.8,30.02,SW,227,0.0,0.0,41,0.00,,CLR,0.00,VWS V14.01,2014-03-09 23:27:00,
2014-03-09 19:28:00,63.9,39.8,30.02,SW,227,0.0,0.0,41,0.00,,CLR,0.00,VWS V14.01,2014-03-09 23:28:00,
2014-03-09 19:29:00,63.6,39.5,30.02,SW,227,0.0,0.0,41,0.00,,CLR,0.00,VWS V14.01,2014-03-09 23:29:00,
2014-03-09 19:30:00,63.7,39.6,30.02,SW,227,0.0,0.0,41,0.00,,CLR,0.00,VWS V14.01,2014-03-09 23:30:00,
2014-03-09 19:31:00,63.6,39.5,30.02,SW,227,0.0,0.0,41,0.00,,CLR,0.00,VWS V14.01,2014-03-09 23:31:00,
2014-03-09 19:32:00,63.5,39.4,30.02,SW,227,0.0,0.0,41,0.00,,CLR,0.00,VWS V14.01,2014-03-09 23:32:00,
2014-03-09 19:33:00,63.4,39.9,30.02,SW,227,0.0,0.0,42,0.00,,CLR,0.00,VWS V14.01,2014-03-09 23:33:00,
2014-03-09 19:34:00,63.0,39.6,30.02,SW,227,0.0,0.0,42,0.00,,CLR,0.00,VWS V14.01,2014-03-09 23:34:00,
2014-03-09 19:35:00,63.1,39.7,30.02,SW,227,0.0,0.0,42,0.00,,CLR,0.00,VWS V14.01,2014-03-09 23:35:00,
2014-03-09 19:36:00,63.0,39.6,30.02,SW,227,0.0,0.0,42,0.00,,CLR,0.00,VWS V14.01,2014-03-09 23:36:00,
2014-03-09 19:37:00,62.9,39.5,30.01,SW,227,0.0,0.0,42,0.00,,CLR,0.00,VWS V14.01,2014-03-09 23:37:00,
2014-03-09 19:38:00,62.8,39.4,30.01,SW,227,0.0,0.0,42,0.00,,CLR,0.00,VWS V14.01,2014-03-09 23:38:00,
2014-03-09 19:39:00,62.5,40.3,30.02,SW,227,0.0,0.0,44,0.00,,CLR,0.00,VWS V14.01,2014-03-09 23:39:00,
2014-03-09 19:40:00,62.5,39.7,30.02,SW,227,0.0,0.0,43,0.00,,CLR,0.00,VWS V14.01,2014-03-09 23:40:00,
2014-03-09 19:41:00,62.4,40.2,30.02,SW,227,0.0,0.0,44,0.00,,CLR,0.00,VWS V14.01,2014-03-09 23:41:00,
2014-03-09 19:42:00,62.3,40.1,30.02,SW,227,0.0,0.0,44,0.00,,CLR,0.00,VWS V14.01,2014-03-09 23:42:00,
2014-03-09 19:43:00,62.2,40.0,30.01,SW,227,0.0,0.0,44,0.00,,CLR,0.00,VWS V14.01,2014-03-09 23:43:00,
2014-03-09 19:44:00,61.9,40.3,30.02,SW,227,0.0,0.0,45,0.00,,CLR,0.00,VWS V14.01,2014-03-09 23:44:00,
2014-03-09 19:45:00,62.0,40.4,30.01,SW,227,0.0,0.0,45,0.00,,CLR,0.00,VWS V14.01,2014-03-09 23:45:00,
2014-03-09 19:46:00,61.8,40.3,30.02,SW,227,0.0,0.0,45,0.00,,CLR,0.00,VWS V14.01,2014-03-09 23:46:00,
2014-03-09 19:47:00,61.7,40.2,30.01,SW,227,0.0,0.0,45,0.00,,CLR,0.00,VWS V14.01,2014-03-09 23:47:00,
2014-03-09 19:48:00,61.6,40.1,30.02,SW,227,0.0,0.0,45,0.00,,CLR,0.00,VWS V14.01,2014-03-09 23:48:00,
2014-03-09 19:49:00,61.3,40.4,30.02,SW,227,0.0,0.0,46,0.00,,CLR,0.00,VWS V14.01,2014-03-09 23:49:00,
2014-03-09 19:50:00,61.3,40.4,30.02,SW,227,0.0,0.0,46,0.00,,CLR,0.00,VWS V14.01,2014-03-09 23:50:00,
2014-03-09 19:51:00,61.2,39.7,30.02,SW,227,0.0,0.0,45,0.00,,CLR,0.00,VWS V14.01,2014-03-09 23:51:00,
2014-03-09 19:52:00,61.1,40.2,30.02,SW,227,0.0,0.0,46,0.00,,CLR,0.00,VWS V14.01,2014-03-09 23:52:00,
2014-03-09 19:53:00,61.0,40.1,30.01,SW,227,0.0,0.0,46,0.00,,CLR,0.00,VWS V14.01,2014-03-09 23:53:00,
2014-03-09 19:54:00,60.8,40.5,30.01,SW,227,0.0,0.0,47,0.00,,CLR,0.00,VWS V14.01,2014-03-09 23:54:00,
2014-03-09 19:55:00,60.8,40.5,30.01,SW,227,0.0,0.0,47,0.00,,CLR,0.00,VWS V14.01,2014-03-09 23:55:00,
2014-03-09 19:56:00,60.7,40.4,30.01,SW,227,0.0,0.0,47,0.00,,CLR,0.00,VWS V14.01,2014-03-09 23:56:00,
2014-03-09 19:57:00,60.6,40.8,30.01,SW,227,0.0,0.0,48,0.00,,CLR,0.00,VWS V14.01,2014-03-09 23:57:00,
2014-03-09 19:58:00,60.5,40.7,30.01,SW,227,0.0,0.0,48,0.00,,CLR,0.00,VWS V14.01,2014-03-09 23:58:00,
2014-03-09 19:59:00,60.1,40.9,30.02,SW,227,0.0,0.0,49,0.00,,CLR,0.00,VWS V14.01,2014-03-09 23:59:00,
2014-03-09 20:00:00,60.2,40.5,30.02,SW,227,0.0,0.0,48,0.00,,CLR,0.00,VWS V14.01,2014-03-10 00:00:00,
2014-03-09 20:01:00,60.0,40.8,30.02,SW,227,0.0,0.0,49,0.00,,CLR,0.00,VWS V14.01,2014-03-10 00:01:00,
2014-03-09 20:02:00,59.9,41.2,30.02,SW,227,0.0,0.0,50,0.00,,CLR,0.00,VWS V14.01,2014-03-10 00:02:00,
2014-03-09 20:03:00,59.8,41.1,30.02,SW,227,0.0,0.0,50,0.00,,CLR,0.00,VWS V14.01,2014-03-10 00:03:00,
2014-03-09 20:04:00,59.5,41.4,30.02,SW,227,0.0,0.0,51,0.00,,CLR,0.00,VWS V14.01,2014-03-10 00:04:00,
2014-03-09 20:05:00,59.5,41.4,30.02,SW,227,0.0,0.0,51,0.00,,CLR,0.00,VWS V14.01,2014-03-10 00:05:00,
2014-03-09 20:06:00,59.5,41.4,30.02,SW,227,0.0,0.0,51,0.00,,CLR,0.00,VWS V14.01,2014-03-10 00:06:00,
2014-03-09 20:07:00,59.4,41.3,30.02,SW,227,0.0,0.0,51,0.00,,CLR,0.00,VWS V14.01,2014-03-10 00:07:00,
2014-03-09 20:08:00,59.3,41.2,30.02,SW,227,0.0,0.0,51,0.00,,CLR,0.00,VWS V14.01,2014-03-10 00:08:00,
2014-03-09 20:09:00,59.1,41.5,30.02,SW,227,0.0,0.0,52,0.00,,CLR,0.00,VWS V14.01,2014-03-10 00:09:00,
2014-03-09 20:10:00,59.1,41.5,30.02,SW,227,0.0,0.0,52,0.00,,CLR,0.00,VWS V14.01,2014-03-10 00:10:00,
2014-03-09 20:11:00,59.0,41.4,30.02,SW,227,0.0,0.0,52,0.00,,CLR,0.00,VWS V14.01,2014-03-10 00:11:00,
2014-03-09 20:12:00,59.0,41.4,30.02,SW,227,0.0,0.0,52,0.00,,CLR,0.00,VWS V14.01,2014-03-10 00:12:00,
2014-03-09 20:13:00,58.9,41.8,30.02,SW,227,0.0,0.0,53,0.00,,CLR,0.00,VWS V14.01,2014-03-10 00:13:00,
2014-03-09 20:14:00,58.6,41.0,30.02,SW,227,0.0,0.0,52,0.00,,CLR,0.00,VWS V14.01,2014-03-10 00:14:00,
2014-03-09 20:15:00,58.7,41.1,30.02,SW,227,0.0,0.0,52,0.00,,CLR,0.00,VWS V14.01,2014-03-10 00:15:00,
2014-03-09 20:16:00,58.6,41.0,30.02,SW,227,0.0,0.0,52,0.00,,CLR,0.00,VWS V14.01,2014-03-10 00:16:00,
2014-03-09 20:17:00,58.5,41.5,30.02,SW,227,0.0,0.0,53,0.00,,CLR,0.00,VWS V14.01,2014-03-10 00:17:00,
2014-03-09 20:18:00,58.5,41.5,30.02,SW,227,0.0,0.0,53,0.00,,CLR,0.00,VWS V14.01,2014-03-10 00:18:00,
2014-03-09 20:19:00,58.2,41.2,30.02,SW,227,0.0,0.0,53,0.00,,CLR,0.00,VWS V14.01,2014-03-10 00:19:00,
2014-03-09 20:20:00,58.3,41.3,30.02,SW,227,0.0,0.0,53,0.00,,CLR,0.00,VWS V14.01,2014-03-10 00:20:00,
2014-03-09 20:21:00,58.2,41.2,30.02,SW,227,0.0,0.0,53,0.00,,CLR,0.00,VWS V14.01,2014-03-10 00:21:00,
2014-03-09 20:22:00,58.1,41.6,30.02,SW,227,0.0,0.0,54,0.00,,CLR,0.00,VWS V14.01,2014-03-10 00:22:00,
2014-03-09 20:23:00,58.0,41.5,30.02,SW,227,0.0,0.0,54,0.00,,CLR,0.00,VWS V14.01,2014-03-10 00:23:00,
2014-03-09 20:24:00,57.5,41.5,30.02,SW,227,0.0,0.0,55,0.00,,CLR,0.00,VWS V14.01,2014-03-10 00:24:00,
2014-03-09 20:25:00,57.5,41.5,30.02,SW,227,0.0,0.0,55,0.00,,CLR,0.00,VWS V14.01,2014-03-10 00:25:00,
2014-03-09 20:26:00,57.4,41.4,30.02,SW,227,0.0,0.0,55,0.00,,CLR,0.00,VWS V14.01,2014-03-10 00:26:00,
2014-03-09 20:27:00,57.2,41.7,30.02,SW,227,0.0,0.0,56,0.00,,CLR,0.00,VWS V14.01,2014-03-10 00:27:00,
2014-03-09 20:28:00,57.1,41.6,30.02,SW,227,0.0,0.0,56,0.00,,CLR,0.00,VWS V14.01,2014-03-10 00:28:00,
2014-03-09 20:29:00,56.8,41.3,30.02,SW,227,0.0,0.0,56,0.00,,CLR,0.00,VWS V14.01,2014-03-10 00:29:00,
2014-03-09 20:30:00,56.8,41.3,30.02,SW,227,0.0,0.0,56,0.00,,CLR,0.00,VWS V14.01,2014-03-10 00:30:00,
2014-03-09 20:31:00,56.7,41.7,30.02,SW,227,0.0,0.0,57,0.00,,CLR,0.00,VWS V14.01,2014-03-10 00:31:00,
2014-03-09 20:32:00,56.6,41.6,30.02,SW,227,0.0,0.0,57,0.00,,CLR,0.00,VWS V14.01,2014-03-10 00:32:00,
2014-03-09 20:33:00,56.6,41.6,30.02,SW,227,0.0,0.0,57,0.00,,CLR,0.00,VWS V14.01,2014-03-10 00:33:00,
2014-03-09 20:34:00,56.2,41.6,30.02,SW,227,0.0,0.0,58,0.00,,CLR,0.00,VWS V14.01,2014-03-10 00:34:00,
2014-03-09 20:35:00,56.3,41.3,30.02,SW,227,0.0,0.0,57,0.00,,CLR,0.00,VWS V14.01,2014-03-10 00:35:00,
2014-03-09 20:36:00,56.2,41.6,30.02,SW,227,0.0,0.0,58,0.00,,CLR,0.00,VWS V14.01,2014-03-10 00:36:00,
2014-03-09 20:37:00,56.1,41.5,30.02,SW,227,0.0,0.0,58,0.00,,CLR,0.00,VWS V14.01,2014-03-10 00:37:00,
2014-03-09 20:38:00,56.0,41.5,30.03,SW,227,0.0,0.0,58,0.00,,CLR,0.00,VWS V14.01,2014-03-10 00:38:00,
2014-03-09 20:39:00,55.7,41.6,30.03,SW,227,0.0,0.0,59,0.00,,CLR,0.00,VWS V14.01,2014-03-10 00:39:00,
2014-03-09 20:40:00,55.8,41.7,30.03,SW,227,0.0,0.0,59,0.00,,CLR,0.00,VWS V14.01,2014-03-10 00:40:00,
2014-03-09 20:41:00,55.7,41.6,30.03,SW,227,0.0,0.0,59,0.00,,CLR,0.00,VWS V14.01,2014-03-10 00:41:00,
2014-03-09 20:42:00,55.6,41.5,30.03,SW,227,0.0,0.0,59,0.00,,CLR,0.00,VWS V14.01,2014-03-10 00:42:00,
2014-03-09 20:43:00,55.5,41.4,30.03,SW,227,0.0,0.0,59,0.00,,CLR,0.00,VWS V14.01,2014-03-10 00:43:00,
2014-03-09 20:44:00,55.3,41.7,30.03,SW,227,0.0,0.0,60,0.00,,CLR,0.00,VWS V14.01,2014-03-10 00:44:00,
2014-03-09 20:45:00,55.3,41.7,30.03,SW,227,0.0,0.0,60,0.00,,CLR,0.00,VWS V14.01,2014-03-10 00:45:00,
2014-03-09 20:46:00,55.2,41.6,30.03,SW,227,0.0,0.0,60,0.00,,CLR,0.00,VWS V14.01,2014-03-10 00:46:00,
2014-03-09 20:47:00,55.1,41.5,30.03,SW,227,0.0,0.0,60,0.00,,CLR,0.00,VWS V14.01,2014-03-10 00:47:00,
2014-03-09 20:48:00,55.0,41.8,30.03,SW,227,0.0,0.0,61,0.00,,CLR,0.00,VWS V14.01,2014-03-10 00:48:00,
2014-03-09 20:49:00,54.6,41.9,30.03,SW,227,0.0,0.0,62,0.00,,CLR,0.00,VWS V14.01,2014-03-10 00:49:00,
2014-03-09 20:50:00,54.6,41.4,30.03,SW,227,0.0,0.0,61,0.00,,CLR,0.00,VWS V14.01,2014-03-10 00:50:00,
2014-03-09 20:51:00,54.5,41.8,30.03,SW,227,0.0,0.0,62,0.00,,CLR,0.00,VWS V14.01,2014-03-10 00:51:00,
2014-03-09 20:52:00,54.4,42.1,30.03,SW,227,0.0,0.0,63,0.00,,CLR,0.00,VWS V14.01,2014-03-10 00:52:00,
2014-03-09 20:53:00,54.2,42.3,30.03,SW,227,0.0,0.0,64,0.00,,CLR,0.00,VWS V14.01,2014-03-10 00:53:00,
2014-03-09 20:54:00,54.0,42.1,30.03,SW,227,0.0,0.0,64,0.00,,CLR,0.00,VWS V14.01,2014-03-10 00:54:00,
2014-03-09 20:55:00,54.1,42.2,30.03,SW,227,0.0,0.0,64,0.00,,CLR,0.00,VWS V14.01,2014-03-10 00:55:00,
2014-03-09 20:56:00,54.0,42.1,30.03,SW,227,0.0,0.0,64,0.00,,CLR,0.00,VWS V14.01,2014-03-10 00:56:00,
2014-03-09 20:57:00,53.9,42.0,30.03,SW,227,0.0,0.0,64,0.00,,CLR,0.00,VWS V14.01,2014-03-10 00:57:00,
2014-03-09 20:58:00,53.8,41.5,30.03,SW,227,0.0,0.0,63,0.00,,CLR,0.00,VWS V14.01,2014-03-10 00:58:00,
2014-03-09 20:59:00,53.5,41.6,30.03,SW,227,0.0,0.0,64,0.00,,CLR,0.00,VWS V14.01,2014-03-10 00:59:00,
2014-03-09 21:00:00,53.6,41.3,30.03,SW,227,0.0,0.0,63,0.00,,CLR,0.00,VWS V14.01,2014-03-10 01:00:00,
2014-03-09 21:01:00,53.5,41.6,30.03,SW,227,0.0,0.0,64,0.00,,CLR,0.00,VWS V14.01,2014-03-10 01:01:00,
2014-03-09 21:02:00,53.5,41.6,30.03,SW,227,0.0,0.0,64,0.00,,CLR,0.00,VWS V14.01,2014-03-10 01:02:00,
2014-03-09 21:03:00,53.4,41.5,30.03,SW,227,0.0,0.0,64,0.00,,CLR,0.00,VWS V14.01,2014-03-10 01:03:00,
2014-03-09 21:04:00,53.2,41.8,30.03,SW,227,0.0,0.0,65,0.00,,CLR,0.00,VWS V14.01,2014-03-10 01:04:00,
2014-03-09 21:05:00,53.2,41.8,30.03,SW,227,0.0,0.0,65,0.00,,CLR,0.00,VWS V14.01,2014-03-10 01:05:00,
2014-03-09 21:06:00,53.2,41.3,30.03,SW,227,0.0,0.0,64,0.00,,CLR,0.00,VWS V14.01,2014-03-10 01:06:00,
2014-03-09 21:07:00,53.1,41.7,30.03,SW,227,0.0,0.0,65,0.00,,CLR,0.00,VWS V14.01,2014-03-10 01:07:00,
2014-03-09 21:08:00,53.0,41.6,30.03,SW,227,0.0,0.0,65,0.00,,CLR,0.00,VWS V14.01,2014-03-10 01:08:00,
2014-03-09 21:09:00,52.8,41.4,30.03,SW,227,0.0,0.0,65,0.00,,CLR,0.00,VWS V14.01,2014-03-10 01:09:00,
2014-03-09 21:10:00,52.9,41.5,30.03,SW,227,0.0,0.0,65,0.00,,CLR,0.00,VWS V14.01,2014-03-10 01:10:00,
2014-03-09 21:11:00,52.8,41.4,30.03,SW,227,0.0,0.0,65,0.00,,CLR,0.00,VWS V14.01,2014-03-10 01:11:00,
2014-03-09 21:12:00,52.8,41.8,30.03,SW,227,0.0,0.0,66,0.00,,CLR,0.00,VWS V14.01,2014-03-10 01:12:00,
2014-03-09 21:13:00,52.7,41.3,30.03,SW,227,0.0,0.0,65,0.00,,CLR,0.00,VWS V14.01,2014-03-10 01:13:00,
2014-03-09 21:14:00,52.5,41.1,30.03,SW,227,0.0,0.0,65,0.00,,CLR,0.00,VWS V14.01,2014-03-10 01:14:00,
2014-03-09 21:15:00,52.6,41.2,30.03,SW,227,0.0,0.0,65,0.00,,CLR,0.00,VWS V14.01,2014-03-10 01:15:00,
2014-03-09 21:16:00,52.5,41.1,30.03,SW,227,0.0,0.0,65,0.00,,CLR,0.00,VWS V14.01,2014-03-10 01:16:00,
2014-03-09 21:17:00,52.4,41.0,30.03,SW,227,0.0,0.0,65,0.00,,CLR,0.00,VWS V14.01,2014-03-10 01:17:00,
2014-03-09 21:18:00,52.4,41.0,30.03,SW,227,0.0,0.0,65,0.00,,CLR,0.00,VWS V14.01,2014-03-10 01:18:00,
2014-03-09 21:19:00,52.2,41.2,30.03,SW,227,0.0,0.0,66,0.00,,CLR,0.00,VWS V14.01,2014-03-10 01:19:00,
2014-03-09 21:20:00,52.2,40.8,30.03,SW,227,0.0,0.0,65,0.00,,CLR,0.00,VWS V14.01,2014-03-10 01:20:00,
2014-03-09 21:21:00,52.2,41.2,30.03,SW,227,0.0,0.0,66,0.00,,CLR,0.00,VWS V14.01,2014-03-10 01:21:00,
2014-03-09 21:22:00,52.1,41.1,30.03,SW,227,0.0,0.0,66,0.00,,CLR,0.00,VWS V14.01,2014-03-10 01:22:00,
2014-03-09 21:23:00,52.1,41.1,30.03,SW,227,0.0,0.0,66,0.00,,CLR,0.00,VWS V14.01,2014-03-10 01:23:00,
2014-03-09 21:24:00,51.9,41.3,30.03,SW,227,0.0,0.0,67,0.00,,CLR,0.00,VWS V14.01,2014-03-10 01:24:00,
2014-03-09 21:25:00,51.9,41.3,30.03,SW,227,0.0,0.0,67,0.00,,CLR,0.00,VWS V14.01,2014-03-10 01:25:00,
2014-03-09 21:26:00,51.9,41.3,30.03,SW,227,0.0,0.0,67,0.00,,CLR,0.00,VWS V14.01,2014-03-10 01:26:00,
2014-03-09 21:27:00,51.9,41.3,30.03,SW,227,0.0,0.0,67,0.00,,CLR,0.00,VWS V14.01,2014-03-10 01:27:00,
2014-03-09 21:28:00,51.8,41.2,30.03,SW,227,0.0,0.0,67,0.00,,CLR,0.00,VWS V14.01,2014-03-10 01:28:00,
2014-03-09 21:29:00,51.7,41.1,30.03,SW,227,0.0,0.0,67,0.00,,CLR,0.00,VWS V14.01,2014-03-10 01:29:00,
2014-03-09 21:30:00,51.7,41.1,30.03,SW,227,0.0,0.0,67,0.00,,CLR,0.00,VWS V14.01,2014-03-10 01:30:00,
2014-03-09 21:31:00,51.7,41.1,30.03,SW,227,0.0,0.0,67,0.00,,CLR,0.00,VWS V14.01,2014-03-10 01:31:00,
2014-03-09 21:32:00,51.6,41.0,30.03,SW,227,0.0,0.0,67,0.00,,CLR,0.00,VWS V14.01,2014-03-10 01:32:00,
2014-03-09 21:33:00,51.5,40.9,30.03,SW,227,0.0,0.0,67,0.00,,CLR,0.00,VWS V14.01,2014-03-10 01:33:00,
2014-03-09 21:34:00,51.3,41.1,30.03,SW,227,0.0,0.0,68,0.00,,CLR,0.00,VWS V14.01,2014-03-10 01:34:00,
2014-03-09 21:35:00,51.4,41.2,30.03,SW,227,0.0,0.0,68,0.00,,CLR,0.00,VWS V14.01,2014-03-10 01:35:00,
2014-03-09 21:36:00,51.3,40.7,30.03,SW,227,0.0,0.0,67,0.00,,CLR,0.00,VWS V14.01,2014-03-10 01:36:00,
2014-03-09 21:37:00,51.3,41.1,30.03,SW,227,0.0,0.0,68,0.00,,CLR,0.00,VWS V14.01,2014-03-10 01:37:00,
2014-03-09 21:38:00,51.2,41.0,30.03,SW,227,0.0,0.0,68,0.00,,CLR,0.00,VWS V14.01,2014-03-10 01:38:00,
2014-03-09 21:39:00,51.0,41.2,30.03,SW,227,0.0,0.0,69,0.00,,CLR,0.00,VWS V14.01,2014-03-10 01:39:00,
2014-03-09 21:40:00,51.0,40.8,30.03,SW,227,0.0,0.0,68,0.00,,CLR,0.00,VWS V14.01,2014-03-10 01:40:00,
2014-03-09 21:41:00,51.0,41.2,30.03,SW,227,0.0,0.0,69,0.00,,CLR,0.00,VWS V14.01,2014-03-10 01:41:00,
2014-03-09 21:42:00,50.9,41.1,30.03,SW,227,0.0,0.0,69,0.00,,CLR,0.00,VWS V14.01,2014-03-10 01:42:00,
2014-03-09 21:43:00,50.8,41.0,30.03,SW,227,0.0,0.0,69,0.00,,CLR,0.00,VWS V14.01,2014-03-10 01:43:00,
2014-03-09 21:44:00,50.6,40.8,30.04,SW,227,0.0,0.0,69,0.00,,CLR,0.00,VWS V14.01,2014-03-10 01:44:00,
2014-03-09 21:45:00,50.6,40.8,30.04,SW,227,0.0,0.0,69,0.00,,CLR,0.00,VWS V14.01,2014-03-10 01:45:00,
2014-03-09 21:46:00,50.6,40.8,30.04,SW,227,0.0,0.0,69,0.00,,CLR,0.00,VWS V14.01,2014-03-10 01:46:00,
2014-03-09 21:47:00,50.5,41.1,30.04,SW,227,0.0,0.0,70,0.00,,CLR,0.00,VWS V14.01,2014-03-10 01:47:00,
2014-03-09 21:48:00,50.4,41.0,30.04,SW,227,0.0,0.0,70,0.00,,CLR,0.00,VWS V14.01,2014-03-10 01:48:00,
2014-03-09 21:49:00,50.2,40.8,30.04,SW,227,0.0,0.0,70,0.00,,CLR,0.00,VWS V14.01,2014-03-10 01:49:00,
2014-03-09 21:50:00,50.3,40.9,30.04,SW,227,0.0,0.0,70,0.00,,CLR,0.00,VWS V14.01,2014-03-10 01:50:00,
2014-03-09 21:51:00,50.2,40.8,30.04,SW,227,0.0,0.0,70,0.00,,CLR,0.00,VWS V14.01,2014-03-10 01:51:00,
2014-03-09 21:52:00,50.1,40.7,30.04,SW,227,0.0,0.0,70,0.00,,CLR,0.00,VWS V14.01,2014-03-10 01:52:00,
2014-03-09 21:53:00,50.1,41.1,30.04,SW,227,0.0,0.0,71,0.00,,CLR,0.00,VWS V14.01,2014-03-10 01:53:00,
2014-03-09 21:54:00,49.9,40.9,30.03,SW,227,0.0,0.0,71,0.00,,CLR,0.00,VWS V14.01,2014-03-10 01:54:00,
2014-03-09 21:55:00,50.0,41.0,30.03,SW,227,0.0,0.0,71,0.00,,CLR,0.00,VWS V14.01,2014-03-10 01:55:00,
2014-03-09 21:56:00,49.9,40.9,30.03,SW,227,0.0,0.0,71,0.00,,CLR,0.00,VWS V14.01,2014-03-10 01:56:00,
2014-03-09 21:57:00,49.8,40.8,30.03,SW,227,0.0,0.0,71,0.00,,CLR,0.00,VWS V14.01,2014-03-10 01:57:00,
2014-03-09 21:58:00,49.7,40.7,30.03,SW,227,0.0,0.0,71,0.00,,CLR,0.00,VWS V14.01,2014-03-10 01:58:00,
2014-03-09 21:59:00,49.6,41.0,30.03,SW,227,0.0,0.0,72,0.00,,CLR,0.00,VWS V14.01,2014-03-10 01:59:00,
2014-03-09 22:00:00,49.6,40.6,30.03,SW,227,0.0,0.0,71,0.00,,CLR,0.00,VWS V14.01,2014-03-10 02:00:00,
2014-03-09 22:01:00,49.6,41.0,30.03,SW,227,0.0,0.0,72,0.00,,CLR,0.00,VWS V14.01,2014-03-10 02:01:00,
2014-03-09 22:02:00,49.5,40.9,30.03,SW,227,0.0,0.0,72,0.00,,CLR,0.00,VWS V14.01,2014-03-10 02:02:00,
2014-03-09 22:03:00,49.4,40.8,30.03,SW,227,0.0,0.0,72,0.00,,CLR,0.00,VWS V14.01,2014-03-10 02:03:00,
2014-03-09 22:04:00,49.2,40.6,30.03,SW,227,0.0,0.0,72,0.00,,CLR,0.00,VWS V14.01,2014-03-10 02:04:00,
2014-03-09 22:05:00,49.3,40.7,30.03,SW,227,0.0,0.0,72,0.00,,CLR,0.00,VWS V14.01,2014-03-10 02:05:00,
2014-03-09 22:06:00,49.2,40.6,30.03,SW,227,0.0,0.0,72,0.00,,CLR,0.00,VWS V14.01,2014-03-10 02:06:00,
2014-03-09 22:07:00,49.1,40.5,30.03,SW,227,0.0,0.0,72,0.00,,CLR,0.00,VWS V14.01,2014-03-10 02:07:00,
2014-03-09 22:08:00,49.0,40.7,30.03,SW,227,0.0,0.0,73,0.00,,CLR,0.00,VWS V14.01,2014-03-10 02:08:00,
2014-03-09 22:09:00,48.9,40.6,30.03,SW,227,0.0,0.0,73,0.00,,CLR,0.00,VWS V14.01,2014-03-10 02:09:00,
2014-03-09 22:10:00,48.9,40.6,30.03,SW,227,0.0,0.0,73,0.00,,CLR,0.00,VWS V14.01,2014-03-10 02:10:00,
2014-03-09 22:11:00,48.9,40.6,30.03,SW,227,0.0,0.0,73,0.00,,CLR,0.00,VWS V14.01,2014-03-10 02:11:00,
2014-03-09 22:12:00,48.8,40.9,30.04,SW,227,0.0,0.0,74,0.00,,CLR,0.00,VWS V14.01,2014-03-10 02:12:00,
2014-03-09 22:13:00,48.8,40.9,30.04,SW,227,0.0,0.0,74,0.00,,CLR,0.00,VWS V14.01,2014-03-10 02:13:00,
2014-03-09 22:14:00,48.7,40.8,30.03,SW,227,0.0,0.0,74,0.00,,CLR,0.00,VWS V14.01,2014-03-10 02:14:00,
2014-03-09 22:15:00,48.7,40.8,30.04,SW,227,0.0,0.0,74,0.00,,CLR,0.00,VWS V14.01,2014-03-10 02:15:00,
2014-03-09 22:16:00,48.7,40.8,30.03,SW,227,0.0,0.0,74,0.00,,CLR,0.00,VWS V14.01,2014-03-10 02:16:00,
2014-03-09 22:17:00,48.6,40.7,30.03,SW,227,0.0,0.0,74,0.00,,CLR,0.00,VWS V14.01,2014-03-10 02:17:00,
2014-03-09 22:18:00,48.6,41.0,30.03,SW,227,0.0,0.0,75,0.00,,CLR,0.00,VWS V14.01,2014-03-10 02:18:00,
2014-03-09 22:19:00,48.5,41.0,30.03,SW,227,0.0,0.0,75,0.00,,CLR,0.00,VWS V14.01,2014-03-10 02:19:00,
2014-03-09 22:20:00,48.5,41.0,30.03,SW,227,0.0,0.0,75,0.00,,CLR,0.00,VWS V14.01,2014-03-10 02:20:00,
2014-03-09 22:21:00,48.5,41.0,30.03,SW,227,0.0,0.0,75,0.00,,CLR,0.00,VWS V14.01,2014-03-10 02:21:00,
2014-03-09 22:22:00,48.5,41.3,30.03,SW,227,0.0,0.0,76,0.00,,CLR,0.00,VWS V14.01,2014-03-10 02:22:00,
2014-03-09 22:23:00,48.4,41.2,30.04,SW,227,0.0,0.0,76,0.00,,CLR,0.00,VWS V14.01,2014-03-10 02:23:00,
2014-03-09 22:24:00,48.3,41.1,30.04,SW,227,0.0,0.0,76,0.00,,CLR,0.00,VWS V14.01,2014-03-10 02:24:00,
2014-03-09 22:25:00,48.3,41.1,30.04,SW,227,0.0,0.0,76,0.00,,CLR,0.00,VWS V14.01,2014-03-10 02:25:00,
2014-03-09 22:26:00,48.3,41.1,30.04,SW,227,0.0,0.0,76,0.00,,CLR,0.00,VWS V14.01,2014-03-10 02:26:00,
2014-03-09 22:27:00,48.2,41.3,30.03,SW,227,0.0,0.0,77,0.00,,CLR,0.00,VWS V14.01,2014-03-10 02:27:00,
2014-03-09 22:28:00,48.2,41.3,30.03,SW,227,0.0,0.0,77,0.00,,CLR,0.00,VWS V14.01,2014-03-10 02:28:00,
2014-03-09 22:29:00,48.0,41.2,30.03,SW,227,0.0,0.0,77,0.00,,CLR,0.00,VWS V14.01,2014-03-10 02:29:00,
2014-03-09 22:30:00,48.0,41.2,30.04,SW,227,0.0,0.0,77,0.00,,CLR,0.00,VWS V14.01,2014-03-10 02:30:00,
2014-03-09 22:31:00,48.0,41.2,30.03,SW,227,0.0,0.0,77,0.00,,CLR,0.00,VWS V14.01,2014-03-10 02:31:00,
2014-03-09 22:32:00,47.9,41.0,30.03,SW,227,0.0,0.0,77,0.00,,CLR,0.00,VWS V14.01,2014-03-10 02:32:00,
2014-03-09 22:33:00,47.9,41.4,30.03,SW,227,0.0,0.0,78,0.00,,CLR,0.00,VWS V14.01,2014-03-10 02:33:00,
2014-03-09 22:34:00,47.7,41.2,30.03,SW,227,0.0,0.0,78,0.00,,CLR,0.00,VWS V14.01,2014-03-10 02:34:00,
2014-03-09 22:35:00,47.8,41.3,30.03,SW,227,0.0,0.0,78,0.00,,CLR,0.00,VWS V14.01,2014-03-10 02:35:00,
2014-03-09 22:36:00,47.7,41.2,30.03,SW,227,0.0,0.0,78,0.00,,CLR,0.00,VWS V14.01,2014-03-10 02:36:00,
2014-03-09 22:37:00,47.7,41.2,30.03,SW,227,0.0,0.0,78,0.00,,CLR,0.00,VWS V14.01,2014-03-10 02:37:00,
2014-03-09 22:38:00,47.7,41.2,30.03,SW,227,0.0,0.0,78,0.00,,CLR,0.00,VWS V14.01,2014-03-10 02:38:00,
2014-03-09 22:39:00,47.6,41.1,30.03,SW,227,0.0,0.0,78,0.00,,CLR,0.00,VWS V14.01,2014-03-10 02:39:00,
2014-03-09 22:40:00,47.6,41.4,30.03,SW,227,0.0,0.0,79,0.00,,CLR,0.00,VWS V14.01,2014-03-10 02:40:00,
2014-03-09 22:42:00,47.5,41.3,30.03,SW,227,0.0,0.0,79,0.00,,CLR,0.00,VWS V14.01,2014-03-10 02:42:00,
2014-03-09 22:43:00,47.4,41.2,30.03,SW,227,0.0,0.0,79,0.00,,CLR,0.00,VWS V14.01,2014-03-10 02:43:00,
2014-03-09 22:44:00,47.4,41.2,30.04,SW,227,0.0,0.0,79,0.00,,CLR,0.00,VWS V14.01,2014-03-10 02:44:00,
2014-03-09 22:45:00,47.2,41.0,30.03,SW,227,0.0,0.0,79,0.00,,CLR,0.00,VWS V14.01,2014-03-10 02:45:00,
2014-03-09 22:46:00,47.3,41.1,30.03,SW,227,0.0,0.0,79,0.00,,CLR,0.00,VWS V14.01,2014-03-10 02:46:00,
2014-03-09 22:47:00,47.2,41.0,30.03,SW,227,0.0,0.0,79,0.00,,CLR,0.00,VWS V14.01,2014-03-10 02:47:00,
2014-03-09 22:48:00,47.2,41.0,30.03,SW,227,0.0,0.0,79,0.00,,CLR,0.00,VWS V14.01,2014-03-10 02:48:00,
2014-03-09 22:49:00,47.1,40.9,30.03,SW,227,0.0,1.0,79,0.00,,CLR,0.00,VWS V14.01,2014-03-10 02:49:00,
2014-03-09 22:50:00,46.9,41.1,30.04,SW,227,2.0,2.0,80,0.00,,CLR,0.00,VWS V14.01,2014-03-10 02:50:00,
2014-03-09 22:51:00,47.0,41.2,30.03,SW,227,0.0,0.0,80,0.00,,CLR,0.00,VWS V14.01,2014-03-10 02:51:00,
2014-03-09 22:52:00,46.9,41.1,30.04,SW,227,1.0,1.0,80,0.00,,CLR,0.00,VWS V14.01,2014-03-10 02:52:00,
2014-03-09 22:53:00,46.9,41.1,30.04,West,279,1.0,2.0,80,0.00,,CLR,0.00,VWS V14.01,2014-03-10 02:53:00,
2014-03-09 22:54:00,46.8,41.0,30.04,West,280,0.0,2.0,80,0.00,,CLR,0.00,VWS V14.01,2014-03-10 02:54:00,
2014-03-09 22:55:00,46.5,40.7,30.04,WNW,298,0.0,2.0,80,0.00,,CLR,0.00,VWS V14.01,2014-03-10 02:55:00,
2014-03-09 22:56:00,46.6,40.8,30.04,West,280,0.0,1.0,80,0.00,,CLR,0.00,VWS V14.01,2014-03-10 02:56:00,
2014-03-09 22:57:00,46.5,40.7,30.04,WNW,298,2.0,2.0,80,0.00,,CLR,0.00,VWS V14.01,2014-03-10 02:57:00,
2014-03-09 22:58:00,46.5,41.0,30.04,WNW,298,0.0,2.0,81,0.00,,CLR,0.00,VWS V14.01,2014-03-10 02:58:00,
2014-03-09 22:59:00,46.5,41.0,30.04,WNW,298,0.0,0.0,81,0.00,,CLR,0.00,VWS V14.01,2014-03-10 02:59:00,
2014-03-09 23:00:00,46.4,40.9,30.04,WNW,298,0.0,0.0,81,0.00,,CLR,0.00,VWS V14.01,2014-03-10 03:00:00,
2014-03-09 23:01:00,46.4,40.9,30.04,WNW,298,0.0,0.0,81,0.00,,CLR,0.00,VWS V14.01,2014-03-10 03:01:00,
2014-03-09 23:02:00,46.4,40.9,30.04,WNW,298,0.0,0.0,81,0.00,,CLR,0.00,VWS V14.01,2014-03-10 03:02:00,
2014-03-09 23:03:00,46.4,40.9,30.04,WNW,298,0.0,1.0,81,0.00,,CLR,0.00,VWS V14.01,2014-03-10 03:03:00,
2014-03-09 23:04:00,46.3,40.8,30.04,WNW,298,0.0,0.0,81,0.00,,CLR,0.00,VWS V14.01,2014-03-10 03:04:00,
2014-03-09 23:05:00,46.3,40.8,30.04,WNW,298,0.0,0.0,81,0.00,,CLR,0.00,VWS V14.01,2014-03-10 03:05:00,
2014-03-09 23:06:00,46.3,40.8,30.04,WNW,298,0.0,0.0,81,0.00,,CLR,0.00,VWS V14.01,2014-03-10 03:06:00,
2014-03-09 23:07:00,46.3,40.8,30.04,WNW,298,0.0,0.0,81,0.00,,CLR,0.00,VWS V14.01,2014-03-10 03:07:00,
2014-03-09 23:08:00,46.3,40.8,30.04,WNW,298,0.0,0.0,81,0.00,,CLR,0.00,VWS V14.01,2014-03-10 03:08:00,
2014-03-09 23:09:00,46.3,40.8,30.04,WNW,298,0.0,0.0,81,0.00,,CLR,0.00,VWS V14.01,2014-03-10 03:09:00,
2014-03-09 23:10:00,46.3,40.8,30.04,WNW,298,0.0,0.0,81,0.00,,CLR,0.00,VWS V14.01,2014-03-10 03:10:00,
2014-03-09 23:11:00,46.3,40.8,30.04,WNW,298,0.0,0.0,81,0.00,,CLR,0.00,VWS V14.01,2014-03-10 03:11:00,
2014-03-09 23:12:00,46.3,40.8,30.04,WNW,298,0.0,0.0,81,0.00,,CLR,0.00,VWS V14.01,2014-03-10 03:12:00,
2014-03-09 23:13:00,46.3,40.8,30.04,WNW,298,0.0,0.0,81,0.00,,CLR,0.00,VWS V14.01,2014-03-10 03:13:00,
2014-03-09 23:14:00,46.2,40.7,30.05,WNW,298,0.0,0.0,81,0.00,,CLR,0.00,VWS V14.01,2014-03-10 03:14:00,
2014-03-09 23:15:00,46.2,40.7,30.04,WNW,298,0.0,0.0,81,0.00,,CLR,0.00,VWS V14.01,2014-03-10 03:15:00,
2014-03-09 23:16:00,46.2,40.7,30.05,WNW,298,0.0,0.0,81,0.00,,CLR,0.00,VWS V14.01,2014-03-10 03:16:00,
2014-03-09 23:17:00,46.2,40.7,30.04,WNW,298,0.0,0.0,81,0.00,,CLR,0.00,VWS V14.01,2014-03-10 03:17:00,
2014-03-09 23:18:00,46.2,41.0,30.04,WNW,298,0.0,0.0,82,0.00,,CLR,0.00,VWS V14.01,2014-03-10 03:18:00,
2014-03-09 23:19:00,46.1,40.9,30.05,WNW,298,0.0,0.0,82,0.00,,CLR,0.00,VWS V14.01,2014-03-10 03:19:00,
2014-03-09 23:20:00,46.1,40.6,30.05,WNW,298,0.0,0.0,81,0.00,,CLR,0.00,VWS V14.01,2014-03-10 03:20:00,
2014-03-09 23:21:00,46.1,40.6,30.05,WNW,298,0.0,0.0,81,0.00,,CLR,0.00,VWS V14.01,2014-03-10 03:21:00,
2014-03-09 23:22:00,46.1,40.6,30.05,WNW,298,0.0,0.0,81,0.00,,CLR,0.00,VWS V14.01,2014-03-10 03:22:00,
2014-03-09 23:23:00,46.1,40.6,30.05,WNW,298,0.0,0.0,81,0.00,,CLR,0.00,VWS V14.01,2014-03-10 03:23:00,
2014-03-09 23:24:00,46.1,40.6,30.05,WNW,298,0.0,0.0,81,0.00,,CLR,0.00,VWS V14.01,2014-03-10 03:24:00,
2014-03-09 23:25:00,46.1,40.6,30.05,WNW,298,0.0,0.0,81,0.00,,CLR,0.00,VWS V14.01,2014-03-10 03:25:00,
2014-03-09 23:26:00,46.1,40.6,30.05,WNW,298,0.0,0.0,81,0.00,,CLR,0.00,VWS V14.01,2014-03-10 03:26:00,
2014-03-09 23:27:00,46.0,40.5,30.05,WNW,298,0.0,0.0,81,0.00,,CLR,0.00,VWS V14.01,2014-03-10 03:27:00,
2014-03-09 23:28:00,46.0,40.5,30.05,WNW,298,0.0,0.0,81,0.00,,CLR,0.00,VWS V14.01,2014-03-10 03:28:00,
2014-03-09 23:29:00,46.0,40.5,30.05,WNW,298,0.0,0.0,81,0.00,,CLR,0.00,VWS V14.01,2014-03-10 03:29:00,
2014-03-09 23:30:00,46.0,40.5,30.05,WNW,298,0.0,0.0,81,0.00,,CLR,0.00,VWS V14.01,2014-03-10 03:30:00,
2014-03-09 23:31:00,46.0,40.5,30.05,WNW,298,0.0,0.0,81,0.00,,CLR,0.00,VWS V14.01,2014-03-10 03:31:00,
2014-03-09 23:32:00,46.0,40.5,30.05,WNW,298,0.0,0.0,81,0.00,,CLR,0.00,VWS V14.01,2014-03-10 03:32:00,
2014-03-09 23:33:00,46.0,40.5,30.05,WNW,298,0.0,0.0,81,0.00,,CLR,0.00,VWS V14.01,2014-03-10 03:33:00,
2014-03-09 23:34:00,45.9,40.1,30.05,WNW,298,0.0,0.0,80,0.00,,CLR,0.00,VWS V14.01,2014-03-10 03:34:00,
2014-03-09 23:35:00,45.9,40.4,30.04,WNW,298,0.0,0.0,81,0.00,,CLR,0.00,VWS V14.01,2014-03-10 03:35:00,
2014-03-09 23:36:00,45.9,40.1,30.05,WNW,298,0.0,0.0,80,0.00,,CLR,0.00,VWS V14.01,2014-03-10 03:36:00,
2014-03-09 23:37:00,45.9,40.4,30.05,WNW,298,0.0,0.0,81,0.00,,CLR,0.00,VWS V14.01,2014-03-10 03:37:00,
2014-03-09 23:38:00,45.9,40.4,30.04,WNW,298,0.0,0.0,81,0.00,,CLR,0.00,VWS V14.01,2014-03-10 03:38:00,
2014-03-09 23:39:00,45.9,40.4,30.05,WNW,298,0.0,0.0,81,0.00,,CLR,0.00,VWS V14.01,2014-03-10 03:39:00,
2014-03-09 23:40:00,45.8,40.3,30.05,WNW,298,0.0,0.0,81,0.00,,CLR,0.00,VWS V14.01,2014-03-10 03:40:00,
2014-03-09 23:41:00,45.8,40.3,30.04,WNW,298,0.0,0.0,81,0.00,,CLR,0.00,VWS V14.01,2014-03-10 03:41:00,
2014-03-09 23:42:00,45.8,40.3,30.05,WNW,298,0.0,0.0,81,0.00,,CLR,0.00,VWS V14.01,2014-03-10 03:42:00,
2014-03-09 23:43:00,45.8,40.3,30.05,WNW,298,0.0,0.0,81,0.00,,CLR,0.00,VWS V14.01,2014-03-10 03:43:00,
2014-03-09 23:44:00,45.8,40.3,30.05,WNW,298,0.0,0.0,81,0.00,,CLR,0.00,VWS V14.01,2014-03-10 03:44:00,
2014-03-09 23:45:00,45.8,40.6,30.05,WNW,298,0.0,0.0,82,0.00,,CLR,0.00,VWS V14.01,2014-03-10 03:45:00,
2014-03-09 23:46:00,45.8,40.6,30.05,WNW,298,0.0,0.0,82,0.00,,CLR,0.00,VWS V14.01,2014-03-10 03:46:00,
2014-03-09 23:47:00,45.7,40.5,30.05,WNW,298,0.0,0.0,82,0.00,,CLR,0.00,VWS V14.01,2014-03-10 03:47:00,
2014-03-09 23:48:00,45.7,40.5,30.05,WNW,298,0.0,0.0,82,0.00,,CLR,0.00,VWS V14.01,2014-03-10 03:48:00,
2014-03-09 23:49:00,45.7,40.5,30.05,WNW,298,0.0,0.0,82,0.00,,CLR,0.00,VWS V14.01,2014-03-10 03:49:00,
2014-03-09 23:50:00,45.7,40.8,30.05,WNW,298,0.0,0.0,83,0.00,,CLR,0.00,VWS V14.01,2014-03-10 03:50:00,
2014-03-09 23:51:00,45.7,40.5,30.05,WNW,298,0.0,0.0,82,0.00,,CLR,0.00,VWS V14.01,2014-03-10 03:51:00,
2014-03-09 23:52:00,45.7,40.8,30.05,WNW,298,0.0,0.0,83,0.00,,CLR,0.00,VWS V14.01,2014-03-10 03:52:00,
2014-03-09 23:53:00,45.6,40.7,30.05,WNW,298,0.0,0.0,83,0.00,,CLR,0.00,VWS V14.01,2014-03-10 03:53:00,
2014-03-09 23:54:00,45.6,40.7,30.05,WNW,298,0.0,0.0,83,0.00,,CLR,0.00,VWS V14.01,2014-03-10 03:54:00,
2014-03-09 23:55:00,45.6,41.0,30.05,WNW,298,0.0,0.0,84,0.00,,CLR,0.00,VWS V14.01,2014-03-10 03:55:00,
2014-03-09 23:56:00,45.6,40.7,30.05,WNW,298,0.0,0.0,83,0.00,,CLR,0.00,VWS V14.01,2014-03-10 03:56:00,
2014-03-09 23:57:00,45.6,41.0,30.05,WNW,298,0.0,0.0,84,0.00,,CLR,0.00,VWS V14.01,2014-03-10 03:57:00,
2014-03-09 23:58:00,45.6,41.0,30.05,WNW,298,0.0,0.0,84,0.00,,CLR,0.00,VWS V14.01,2014-03-10 03:58:00,
2014-03-09 23:59:00,45.5,41.0,30.05,WNW,298,0.0,0.0,84,0.00,,CLR,0.00,VWS V14.01,2014-03-10 03:59:00,